GFSMW_925_thetae_000.txt.gz
Theta_e
316 319 319 320 319 318 320 326 327 329 330 330 332 335 335 334 334 334 332 332 330 329 328 327 327 327 326 324 324 325 324 324 323 323 323 323 322 321 320 319 318 318 318
316 317 319 320 319 319 319 320 322 326 328 330 332 333 334 334 333 333 333 332 332 331 330 329 328 328 328 328 325 325 325 325 325 324 322 321 322 322 322 321 320 320 320
318 317 318 319 320 320 319 319 320 321 326 328 330 331 333 333 333 333 333 333 332 332 332 331 330 329 329 329 329 326 326 326 326 326 324 320 321 316 320 320 321 321 321
317 318 318 319 319 319 319 319 319 320 322 325 328 330 330 331 332 332 332 332 332 333 332 332 332 331 331 330 331 330 328 327 327 326 325 324 322 318 320 320 320 320 319
317 317 318 319 319 318 316 317 319 320 320 320 321 323 327 330 330 331 332 331 330 331 332 332 332 332 332 332 332 332 331 330 328 327 326 325 324 323 322 323 321 319 318
316 317 319 319 318 317 317 317 316 316 316 318 322 323 323 323 323 325 327 328 328 329 330 331 332 332 332 332 332 333 333 331 330 329 328 327 325 324 323 323 322 321 321
316 316 317 317 317 317 317 317 317 316 316 316 316 316 317 320 324 326 328 329 329 329 330 330 330 332 332 332 333 333 333 333 331 330 328 327 327 325 323 322 321 320 320
315 316 316 317 317 317 317 317 317 317 316 316 316 315 315 315 315 315 316 317 321 323 326 328 330 331 331 331 332 333 333 333 333 332 330 329 328 327 326 323 321 321 321
315 316 316 316 316 316 316 316 316 316 316 315 315 316 316 315 315 315 315 315 315 315 316 317 319 323 326 330 330 331 331 332 332 331 331 331 330 328 326 325 324 323 324
315 315 315 316 316 316 316 316 316 316 316 316 315 316 316 316 316 316 316 315 315 314 314 314 315 315 317 319 323 327 329 330 330 330 330 330 330 329 326 325 324 323 323
315 315 315 316 316 316 316 315 315 314 314 314 314 314 315 315 315 315 314 314 314 314 314 314 314 314 314 315 316 318 322 325 328 328 329 329 329 328 327 325 324 323 323
316 315 315 316 316 316 315 314 313 313 314 314 314 314 314 314 314 314 313 313 313 313 313 313 313 314 315 315 315 315 317 320 322 324 326 326 326 327 327 326 324 324 323
316 314 313 314 313 313 315 314 313 314 313 313 313 313 313 313 312 312 311 311 311 311 311 312 313 314 314 314 315 315 316 317 318 320 322 323 324 325 326 326 326 325 323
314 313 311 310 311 312 313 313 313 312 312 311 310 310 311 310 309 308 308 308 308 309 309 309 310 311 312 313 314 315 315 316 317 318 319 320 322 323 325 325 325 325 324
313 311 310 309 310 312 313 311 310 307 305 306 306 307 308 306 306 305 305 305 306 307 307 307 307 308 309 310 312 311 312 313 313 314 315 317 318 320 321 323 324 324 324
311 310 309 308 310 311 309 307 305 304 304 304 304 305 304 303 303 303 303 304 304 304 304 305 307 307 307 308 308 309 311 311 312 313 313 315 317 318 319 320 322 323 323
309 308 309 309 308 307 306 303 301 300 301 301 300 300 298 298 298 299 300 300 300 300 302 303 304 305 305 306 307 309 308 309 309 311 311 313 315 317 317 318 319 321 322
309 308 307 306 305 304 302 299 297 297 297 297 296 296 296 296 296 296 297 297 297 298 299 300 302 302 303 304 305 304 304 304 306 307 307 310 312 313 315 316 317 318 319
306 306 304 302 301 299 297 296 295 295 294 294 292 293 293 293 293 294 294 294 295 296 296 297 298 301 301 301 300 299 300 302 303 305 306 306 307 308 310 312 314 314 318
305 302 300 299 298 296 294 293 293 291 291 289 289 290 290 291 291 291 292 292 293 293 294 294 296 298 299 298 297 297 300 299 301 301 300 302 304 305 305 307 309 312 314
301 299 297 296 294 293 291 290 289 288 288 288 288 288 288 289 289 289 290 290 290 292 292 293 294 295 295 294 295 295 297 299 297 295 297 299 301 302 302 302 304 306 310
298 295 294 293 291 289 288 288 287 287 287 287 287 287 287 287 287 288 288 288 289 289 291 292 292 293 292 293 293 294 296 296 295 295 295 297 298 299 300 302 303 305 308
294 291 290 289 288 288 287 287 287 286 286 286 286 286 286 286 287 287 287 287 288 288 289 290 290 289 289 291 291 293 294 295 294 294 294 296 298 299 300 301 302 304 304
291 289 289 288 287 287 286 286 286 286 286 286 286 286 286 286 286 286 286 287 287 288 288 288 288 289 290 290 291 293 294 294 293 293 295 298 300 302 302 301 302 305 299
289 288 287 287 286 286 285 285 285 286 285 285 285 285 285 285 285 286 286 286 287 288 289 289 289 289 289 290 292 293 293 292 292 294 296 297 296 298 298 298 295 293 293
287 287 286 286 285 285 285 285 285 285 285 285 285 285 285 285 285 285 285 286 286 287 287 288 289 289 290 289 291 291 291 291 293 294 295 295 294 295 295 294 292 291 290

GFSMW_925_thetae_003.txt.gz
Theta_e
315 319 320 319 319 319 319 320 323 328 328 330 332 333 333 334 334 333 333 331 330 329 327 326 326 326 326 326 324 323 323 324 323 323 322 322 323 322 322 321 320 319 318
316 316 318 319 319 320 319 319 320 321 327 328 329 331 333 334 334 334 334 333 333 332 331 329 328 327 326 326 326 324 323 323 323 323 321 323 322 322 322 322 321 320 319
317 316 316 318 318 318 319 320 319 321 323 328 330 331 333 333 333 333 333 333 332 332 332 332 331 329 327 327 327 326 324 324 325 324 323 322 322 314 320 321 321 321 320
316 316 316 317 318 317 317 317 319 320 321 321 322 327 329 329 330 331 331 331 332 332 332 332 332 331 330 329 328 328 328 325 326 325 324 324 322 318 319 320 320 319 319
315 316 315 317 317 317 317 316 316 316 317 320 321 322 323 323 324 325 325 326 327 327 328 330 332 332 332 332 331 331 330 329 327 327 326 324 324 324 322 325 322 322 322
314 314 317 317 317 317 317 317 317 316 316 315 316 316 315 315 316 317 317 318 320 323 325 327 330 332 332 332 332 332 332 331 331 330 328 327 324 325 323 324 323 323 322
313 314 314 315 316 316 316 316 316 316 316 316 316 316 315 315 315 315 315 315 315 315 315 316 316 321 329 331 331 331 331 332 332 332 330 329 327 327 327 324 324 324 322
313 314 314 314 315 316 316 316 316 316 316 316 316 316 316 316 316 316 315 315 315 315 315 314 314 314 314 318 325 330 330 330 330 330 331 331 330 328 327 326 325 325 323
313 314 314 314 315 315 315 315 315 315 315 315 315 315 315 316 315 315 315 315 314 313 312 312 313 313 314 314 313 314 318 323 327 328 328 328 328 329 328 328 327 325 326
313 312 313 315 315 315 314 313 313 313 314 314 314 314 315 315 314 314 314 313 312 311 310 310 311 311 312 312 313 314 314 314 316 320 324 325 325 327 327 327 327 326 325
313 312 312 314 314 313 313 313 313 314 313 313 313 313 314 313 313 312 311 309 308 308 309 309 309 310 311 312 313 313 313 314 315 316 317 320 322 324 325 325 326 326 325
313 312 313 312 312 313 312 312 312 312 310 310 310 310 310 310 309 307 306 306 306 307 307 308 308 309 309 309 310 311 312 313 314 315 317 319 320 321 322 323 324 324 324
313 311 308 308 310 311 310 310 308 306 306 305 306 306 307 306 305 305 304 304 304 305 305 306 307 307 307 307 308 309 311 311 311 313 314 316 317 318 318 320 321 322 322
312 308 306 306 310 309 307 307 305 303 303 303 303 303 303 302 301 300 300 301 301 302 304 304 303 304 306 306 306 308 306 307 310 311 312 313 314 316 316 317 318 319 320
308 307 306 306 307 306 304 302 301 300 299 299 299 300 298 297 297 297 297 298 299 299 300 300 300 303 303 305 304 304 305 308 309 309 309 309 311 312 313 315 316 317 318
307 307 309 305 304 303 301 299 297 296 296 295 296 295 294 294 294 294 295 296 296 296 297 297 300 299 302 302 302 303 305 306 302 302 304 306 308 309 311 313 313 315 316
308 308 305 303 302 300 297 296 295 294 294 293 292 291 291 291 292 292 293 293 293 293 293 296 296 297 298 298 301 302 300 298 298 301 301 304 305 303 306 307 309 310 312
306 304 301 300 299 296 295 295 294 292 291 291 289 288 288 289 289 290 290 290 291 291 292 293 293 295 294 295 298 298 297 296 298 300 300 302 298 299 303 305 306 306 307
303 301 299 298 296 294 293 292 291 289 288 288 287 287 287 287 288 288 288 289 289 290 290 290 292 291 293 294 295 294 295 295 295 298 299 295 295 297 299 301 302 303 303
301 299 298 296 294 292 291 289 288 287 287 287 287 287 287 287 287 287 287 287 288 288 288 288 289 291 292 293 291 290 292 294 294 297 295 294 294 295 296 298 299 300 300
298 297 295 293 292 290 288 287 287 286 286 286 286 286 286 286 286 286 286 286 287 287 287 287 288 290 290 289 288 290 293 292 295 295 295 294 294 295 296 298 300 301 302
296 293 292 291 289 287 287 286 286 286 286 286 286 285 285 285 285 285 286 286 286 286 286 286 288 288 288 288 289 290 291 292 294 294 294 293 293 295 297 299 301 301 300
293 290 289 288 287 286 286 286 285 285 285 285 285 285 285 285 285 285 285 285 285 285 286 287 287 288 288 288 289 290 291 292 292 292 292 292 294 296 296 296 296 297 295
290 288 288 286 286 286 285 285 285 285 285 285 285 285 284 285 285 284 285 285 284 285 286 287 288 288 288 288 289 290 290 291 291 291 291 293 293 294 293 293 294 293 292
288 287 286 286 286 285 285 285 285 285 285 285 284 284 284 284 284 284 284 284 285 286 287 287 287 288 288 289 289 289 289 290 290 290 292 291 291 292 291 292 291 292 292
287 286 286 285 285 285 285 284 284 285 285 284 284 284 284 284 284 283 284 284 285 286 286 286 287 287 288 288 288 288 288 289 288 290 289 289 289 290 291 290 291 291 291

GFSMW_925_thetae_006.txt.gz
Theta_e
315 316 317 318 319 319 319 319 321 323 326 329 331 331 332 333 333 333 333 332 332 331 328 328 327 327 325 325 325 324 322 322 321 321 321 321 322 322 321 320 320 320 319
315 314 316 316 316 317 319 319 320 322 325 326 329 331 332 332 332 332 333 333 333 333 332 331 331 329 327 326 325 324 323 322 322 322 322 323 324 323 323 322 321 320 319
316 314 314 316 315 315 315 316 319 321 322 326 327 329 331 332 332 332 332 332 332 332 332 332 332 331 329 327 327 326 323 324 325 323 323 324 325 315 322 321 321 321 321
314 314 314 315 315 315 316 316 315 315 316 319 321 321 322 323 323 324 325 325 325 326 326 327 329 330 330 328 329 328 326 325 324 326 323 323 325 325 327 325 322 322 321
314 314 314 315 315 316 316 316 316 315 315 315 315 314 314 314 315 315 315 315 315 315 315 315 317 325 329 329 329 329 328 328 327 327 327 324 323 324 324 326 324 324 323
313 313 314 315 315 316 316 316 315 315 315 315 315 315 315 315 315 314 314 315 315 314 314 314 314 313 316 323 327 329 330 330 330 329 329 327 326 325 325 325 325 325 324
313 313 312 313 314 315 315 315 315 314 314 314 315 315 315 315 314 314 314 314 312 311 310 309 309 309 310 312 313 315 322 327 328 328 328 328 328 328 327 327 327 327 326
312 313 312 313 314 314 314 313 313 313 313 313 314 314 314 314 314 313 313 312 310 309 307 307 307 306 306 307 308 311 312 314 318 320 321 324 325 326 326 327 327 327 327
312 312 312 313 314 313 312 313 313 313 313 313 313 313 313 312 311 310 309 307 306 305 305 305 306 306 307 307 307 309 309 310 312 313 314 317 319 321 323 325 325 325 327
312 312 311 313 312 311 312 313 312 311 311 310 310 309 310 309 308 307 306 305 304 303 304 304 305 306 307 308 307 308 309 310 310 311 312 313 315 317 319 322 322 323 323
311 311 311 311 311 312 311 310 309 308 307 306 306 306 306 305 305 303 302 301 301 302 303 303 305 305 306 305 306 306 307 308 309 310 309 312 313 315 316 318 319 320 320
311 310 308 310 310 310 309 307 306 306 304 304 304 303 303 302 300 299 298 298 298 298 299 301 302 302 301 303 305 305 305 306 304 305 307 310 311 312 313 314 315 316 316
310 306 306 308 308 307 306 304 303 302 301 301 300 300 298 296 295 295 294 294 295 296 297 297 298 298 299 301 300 303 304 302 304 305 307 309 309 308 309 311 311 312 313
308 305 305 306 306 305 303 301 300 299 298 297 297 296 294 292 291 291 291 291 292 293 293 294 293 295 298 297 299 302 299 302 303 306 304 302 302 303 306 307 308 309 311
307 306 306 304 304 302 300 299 298 297 295 294 294 292 290 289 289 289 289 290 290 290 291 291 291 292 295 294 298 296 296 300 303 301 298 299 298 300 305 301 301 305 306
306 308 306 301 301 300 298 297 296 294 292 292 290 288 288 287 287 287 288 288 288 288 289 289 290 292 290 292 294 294 296 300 299 296 296 297 298 302 297 295 299 301 303
308 306 302 301 300 297 296 295 293 291 289 289 287 287 287 287 286 287 287 287 287 287 288 288 289 288 289 290 291 294 293 293 294 293 293 294 297 297 294 295 297 297 298
305 302 300 299 297 295 294 292 290 288 287 287 287 286 286 286 286 286 286 286 286 286 286 287 287 288 287 288 290 292 290 289 289 292 292 294 296 294 295 295 295 295 297
301 300 299 297 295 292 291 289 287 287 286 286 286 286 286 286 285 285 285 285 285 285 286 286 286 286 286 288 290 289 289 290 290 291 291 294 295 295 295 294 294 295 297
300 299 297 295 292 289 288 287 286 286 286 286 286 286 285 285 285 285 285 285 285 285 285 285 285 285 286 288 288 289 289 289 290 291 292 293 293 293 293 293 294 296 297
298 296 294 292 289 287 287 286 286 285 285 285 285 285 285 285 285 285 284 284 284 284 284 284 285 285 287 287 288 288 289 290 291 291 291 291 291 291 292 293 295 296 296
295 293 292 289 288 287 286 286 285 285 285 285 285 285 285 284 284 284 284 284 284 284 284 284 285 286 287 287 288 289 290 290 290 290 290 290 290 291 293 293 294 294 294
292 290 289 288 287 286 286 285 285 284 284 284 285 285 284 284 284 284 283 283 284 283 284 285 286 286 286 287 287 288 289 289 289 289 289 288 290 290 290 290 292 292 291
290 289 288 286 286 286 285 284 284 284 284 284 284 284 283 284 284 283 283 283 283 283 284 285 286 286 286 287 287 288 288 288 288 288 287 288 288 287 288 288 289 290 290
289 287 286 286 285 285 285 284 284 284 284 284 283 283 283 283 283 283 283 283 283 284 285 285 285 286 286 286 287 287 287 288 286 286 286 286 286 286 287 287 288 289 289
287 286 285 285 285 284 284 284 284 284 284 283 283 283 283 283 283 283 282 283 284 284 285 285 285 285 285 286 285 286 287 286 284 284 285 285 284 285 286 286 287 288 289

GFSMW_925_thetae_009.txt.gz
Theta_e
314 314 315 315 317 318 318 319 321 323 324 327 329 329 330 331 331 332 332 332 331 331 329 328 328 327 326 326 325 324 322 322 321 319 321 321 321 321 321 321 321 321 321
313 313 314 314 314 315 316 318 320 322 325 324 328 330 330 331 331 331 331 331 331 332 331 331 330 329 327 327 326 325 323 322 322 322 322 324 324 324 324 323 322 323 323
314 312 312 313 314 314 314 314 315 317 319 325 327 328 329 328 322 322 322 321 322 322 322 323 324 326 327 327 326 326 324 323 324 324 322 325 325 320 324 324 323 322 322
314 313 312 313 314 314 314 314 314 314 314 314 315 314 314 315 314 314 314 314 314 314 313 313 313 314 319 326 327 327 325 324 324 325 325 323 325 327 328 326 324 323 321
313 313 312 313 314 314 314 314 314 315 315 315 315 315 314 314 314 314 315 314 313 311 309 308 307 307 308 309 311 317 324 325 326 326 327 327 324 323 324 326 325 325 324
312 312 313 313 313 314 314 314 314 313 314 314 314 314 314 314 314 313 312 311 309 308 306 306 305 306 306 307 307 307 308 312 319 323 324 324 324 325 324 326 326 325 325
312 311 311 312 313 312 313 313 313 313 313 313 313 313 313 312 311 310 308 307 306 305 304 303 303 304 305 306 307 306 306 307 309 311 315 317 320 321 321 322 322 322 323
311 311 311 311 311 311 312 312 312 312 312 312 312 311 310 309 308 307 306 305 304 303 302 302 302 303 304 305 306 305 306 307 307 308 309 311 313 315 318 319 319 320 319
311 310 310 311 310 311 311 311 311 310 309 308 308 308 307 306 305 304 302 300 299 299 299 299 301 302 303 303 302 304 305 305 306 307 308 309 309 310 313 315 317 317 319
311 310 309 309 310 311 311 309 307 306 306 306 305 304 303 302 300 299 297 296 296 296 296 297 299 299 300 299 300 302 303 304 305 305 303 304 306 309 311 313 313 314 314
311 310 307 309 310 310 308 306 306 305 304 303 302 302 299 297 295 293 292 291 291 292 293 294 295 295 295 297 300 298 300 302 301 300 302 303 305 308 308 307 308 309 310
309 308 307 308 308 307 306 304 303 302 301 300 299 297 295 293 290 289 289 289 289 289 290 290 291 291 292 294 296 295 299 297 297 299 301 303 306 304 304 302 304 306 307
308 306 306 307 306 305 303 301 300 299 298 297 296 293 290 288 288 288 288 288 288 288 288 289 289 290 290 293 292 293 296 293 294 297 299 303 300 301 299 299 304 302 300
308 306 306 305 304 302 301 299 298 296 295 294 292 289 288 287 287 287 287 287 287 287 287 288 288 288 289 289 290 292 292 293 295 297 299 296 296 297 298 300 297 295 297
305 306 306 303 301 300 298 297 296 294 292 291 288 287 287 287 286 286 286 286 286 286 286 286 286 287 287 288 289 290 292 294 291 290 292 292 292 292 295 298 296 295 296
305 307 304 300 300 298 296 295 293 291 288 288 287 287 286 286 286 286 286 286 286 286 285 285 285 286 286 287 289 291 293 291 288 288 289 291 291 291 295 295 295 296 295
306 306 302 300 299 296 294 293 291 288 287 287 286 286 286 286 286 285 285 285 285 285 285 285 285 285 285 286 288 290 290 288 288 289 289 290 290 291 294 294 294 294 294
306 302 300 298 295 294 293 291 288 287 286 286 286 285 285 285 285 285 285 284 284 284 284 284 285 285 285 286 288 288 288 288 288 289 289 289 290 292 292 292 292 292 292
301 300 299 296 294 293 291 288 287 286 285 285 285 285 285 285 285 284 284 284 284 284 284 284 284 284 284 285 287 288 288 288 289 289 289 290 290 290 290 291 291 291 291
300 298 297 294 293 289 287 286 286 285 285 285 285 285 285 285 284 284 284 284 283 283 283 283 283 284 284 285 287 288 288 289 289 290 289 289 289 289 290 290 290 292 293
298 297 295 292 289 287 286 286 285 285 284 284 285 285 284 284 284 284 284 283 283 283 283 283 283 284 285 286 286 287 288 288 289 288 288 288 288 289 288 289 290 291 291
295 294 292 289 287 286 286 285 285 284 284 284 284 284 284 284 283 284 283 283 283 282 282 283 283 284 285 285 286 287 287 288 288 287 288 288 287 287 287 287 287 288 289
293 291 290 288 286 286 285 285 284 284 284 284 284 283 283 283 284 283 283 283 282 282 282 283 284 285 285 285 285 286 287 287 287 288 287 286 285 286 285 285 286 287 287
291 290 288 287 286 286 285 284 284 284 284 283 283 283 283 283 283 283 283 282 282 282 283 284 285 285 285 285 285 286 286 286 286 287 285 283 284 284 283 283 284 285 286
290 288 287 285 285 285 284 284 284 284 283 283 283 283 282 283 283 283 282 282 282 283 284 284 284 284 284 284 285 286 285 286 288 285 283 282 283 283 282 283 284 284 285
288 286 285 285 284 284 284 284 284 283 283 282 282 282 282 283 282 282 282 282 283 283 284 284 284 284 284 284 285 284 285 286 284 283 282 282 282 282 282 282 283 284 284

GFSMW_925_thetae_012.txt.gz
Theta_e
312 313 313 314 315 316 318 320 323 324 323 326 328 328 329 329 329 329 329 330 330 329 329 329 328 328 327 327 326 324 322 322 322 320 321 322 323 323 324 324 323 323 323
312 311 312 313 313 313 314 316 318 322 326 325 328 329 330 328 320 318 318 319 318 318 318 317 318 319 321 323 325 325 323 323 323 321 322 324 325 325 325 325 323 323 322
312 311 311 312 313 313 313 314 314 315 317 321 323 323 317 314 314 313 313 313 312 311 311 310 309 308 308 311 313 319 323 323 323 323 322 325 327 326 325 326 324 324 324
313 311 311 311 312 312 313 314 314 314 314 314 314 314 313 312 312 313 312 311 310 308 307 305 305 305 306 307 307 307 309 314 321 322 324 324 323 325 325 324 325 325 324
311 311 311 311 312 313 313 313 314 314 314 314 314 314 313 312 312 310 309 308 307 306 305 304 304 303 304 304 306 306 306 306 310 313 316 318 318 320 321 321 319 319 322
311 310 311 311 311 312 312 313 313 312 313 313 312 311 310 309 308 307 306 305 304 303 302 301 301 301 302 302 303 303 302 304 306 307 308 310 313 314 315 316 315 316 317
310 310 309 309 310 311 312 312 312 311 311 311 309 308 307 306 305 303 302 301 300 299 298 298 298 299 299 300 299 300 301 303 304 304 306 307 309 310 311 312 312 314 314
309 310 308 309 309 311 311 311 310 309 308 307 306 305 304 303 301 299 298 296 295 295 294 293 293 294 294 295 297 299 300 301 302 303 305 305 304 305 306 309 311 311 311
309 309 308 308 309 310 309 308 307 306 305 305 304 302 301 299 297 294 292 291 291 291 290 291 291 291 291 291 293 298 297 296 300 302 299 299 301 302 304 307 309 309 309
309 308 307 307 309 308 306 305 305 304 303 302 301 299 296 294 292 291 289 289 289 289 289 289 289 289 289 289 290 296 292 295 299 294 295 297 300 301 304 305 305 304 306
310 308 306 308 308 306 305 303 303 302 300 300 297 296 293 290 289 288 288 288 288 288 288 288 288 288 288 288 289 291 291 293 294 292 293 295 297 301 300 302 299 298 301
309 306 305 307 306 303 302 300 299 298 297 297 294 291 289 288 288 287 287 287 287 287 287 287 287 287 287 287 288 289 289 292 291 292 294 296 298 295 296 296 294 297 301
307 305 305 305 304 302 300 298 297 296 295 293 290 288 287 287 287 287 287 287 286 286 286 286 286 286 286 286 287 288 289 290 291 292 291 289 291 291 291 292 292 296 297
307 306 305 303 302 299 298 296 295 293 292 290 288 287 287 286 286 286 286 286 286 285 285 285 285 285 285 286 287 288 289 290 292 289 288 287 288 289 291 291 292 296 295
306 307 305 301 299 297 296 295 294 291 289 288 287 286 286 286 286 286 285 285 285 285 285 285 285 285 285 285 287 288 289 289 289 288 288 288 288 289 290 291 292 293 294
305 306 303 300 298 296 295 294 291 289 287 287 286 286 286 286 285 285 285 285 285 284 284 284 284 284 284 285 287 288 288 288 288 288 288 288 288 289 290 290 291 291 292
304 305 301 299 297 295 294 292 290 287 286 286 286 286 285 285 285 285 284 284 284 284 284 283 284 284 284 285 286 287 288 287 287 288 288 288 289 289 289 289 290 290 290
305 302 299 297 295 294 292 290 287 286 286 286 285 285 285 285 285 284 284 284 284 283 283 283 283 283 283 284 286 287 287 287 287 288 288 288 289 289 288 289 289 289 289
301 300 299 296 294 292 289 287 286 286 285 285 285 285 284 284 284 284 284 284 283 283 283 283 283 282 283 284 285 286 287 287 287 287 288 289 288 287 288 289 288 288 289
300 297 295 294 292 289 288 286 286 285 284 284 284 284 284 284 284 283 283 283 283 282 282 282 282 282 283 284 285 286 286 287 287 287 288 287 287 287 287 287 287 287 286
297 295 294 292 289 288 287 286 285 284 284 284 284 284 284 283 283 283 283 283 283 282 282 282 282 282 283 284 285 285 286 286 287 287 286 286 287 287 285 285 286 285 286
294 294 291 289 288 286 286 285 284 284 284 284 284 283 283 283 283 283 283 283 282 282 281 281 282 283 284 284 284 285 285 286 286 286 285 286 286 284 284 284 284 284 285
293 292 290 288 286 285 285 284 284 284 284 283 283 283 283 283 283 283 283 282 281 281 281 282 283 284 284 284 284 284 285 286 285 285 286 284 283 282 282 282 283 283 282
291 290 288 287 286 285 284 284 284 284 283 283 283 283 282 282 282 282 282 282 281 281 282 283 284 284 283 283 283 284 285 285 285 286 285 283 282 281 281 281 281 281 282
290 289 287 285 285 284 284 284 284 283 283 282 282 282 282 282 282 282 281 282 282 282 283 283 283 283 283 283 284 285 284 285 285 284 283 282 281 281 281 281 281 280 281
288 286 285 285 284 284 284 284 283 283 282 282 281 281 282 282 281 281 281 281 282 282 282 283 283 283 283 283 284 283 284 284 282 281 281 281 280 280 280 280 280 280 281

GFSMW_925_thetae_015.txt.gz
Theta_e
312 311 311 313 315 316 318 322 324 324 325 326 327 329 327 323 320 319 318 318 317 317 315 314 313 313 317 319 320 320 321 322 323 321 321 322 322 324 324 324 323 322 323
313 311 311 311 312 313 314 315 317 323 326 328 328 327 317 314 313 312 311 310 309 308 307 306 306 306 308 309 311 314 315 317 318 321 322 324 322 322 323 323 324 323 323
314 312 311 311 312 312 313 313 314 314 316 321 316 314 313 313 312 310 309 307 307 306 305 304 304 304 304 306 307 308 309 310 310 312 317 319 321 319 316 319 320 322 323
313 312 311 311 311 312 313 314 314 314 314 314 314 313 311 310 308 307 306 305 305 304 303 302 301 301 302 304 305 305 306 306 307 308 309 310 312 313 315 311 313 314 317
313 312 311 310 310 312 312 313 313 313 312 312 312 310 308 307 306 305 305 304 302 301 299 298 297 298 299 300 301 302 303 304 305 306 306 307 308 309 312 314 311 311 311
313 311 310 310 310 311 312 311 311 310 310 309 308 307 306 304 303 302 301 300 298 298 294 293 294 296 297 298 298 299 301 301 302 303 304 305 307 309 309 310 310 310 308
313 312 310 309 309 310 310 310 309 308 307 306 305 304 302 301 298 297 296 295 294 295 292 291 292 293 293 293 294 294 298 298 298 301 303 303 302 300 302 305 307 309 307
312 311 310 309 309 309 308 307 306 305 305 304 302 300 298 296 294 292 291 292 292 292 290 289 290 290 290 290 291 292 296 293 295 300 298 296 295 296 299 302 305 306 306
311 311 308 308 308 307 306 305 304 303 303 300 298 296 294 292 290 289 289 289 289 289 288 288 288 288 288 289 289 290 293 291 292 294 292 293 294 297 299 301 303 303 304
311 310 308 307 307 305 304 303 302 301 299 297 295 293 291 290 289 288 288 288 288 288 287 287 287 288 288 288 288 289 290 290 290 291 291 293 294 296 298 297 297 299 297
311 309 307 307 305 303 302 300 299 299 297 295 293 291 289 288 288 288 287 287 287 287 286 286 286 287 287 287 287 287 288 288 290 290 291 292 292 290 290 293 293 293 292
310 308 307 305 302 300 299 298 297 296 294 292 290 288 288 288 287 287 287 286 286 286 286 286 286 286 286 286 286 286 287 288 289 290 292 290 289 288 289 289 290 291 291
309 307 306 304 301 298 297 296 295 294 292 290 289 288 287 287 287 286 286 286 286 286 285 285 285 285 285 285 285 287 288 288 289 289 289 288 288 288 288 289 290 291 291
308 307 306 304 300 297 296 295 293 292 290 289 288 287 287 286 286 286 286 285 285 285 285 284 284 284 284 284 285 287 288 288 288 288 288 288 288 288 289 290 291 291 291
308 307 306 302 298 295 295 294 292 290 288 288 287 286 286 286 286 286 285 285 285 284 284 284 283 283 284 284 286 287 288 288 288 287 287 287 288 288 289 290 290 290 290
307 308 304 300 297 295 294 293 290 288 287 286 286 285 285 285 285 285 284 284 284 284 283 283 283 283 283 284 286 287 287 287 287 287 287 287 287 288 289 288 289 289 289
307 307 303 300 296 295 294 291 289 287 286 285 285 285 285 285 285 284 284 284 284 283 283 283 283 283 283 284 285 286 287 287 286 286 287 287 287 288 288 288 288 289 288
305 304 300 297 294 293 291 290 287 286 285 285 285 284 284 284 284 284 284 284 283 283 282 282 282 282 282 283 285 286 286 286 286 286 286 287 287 287 287 287 289 287 286
303 301 299 295 293 292 290 288 286 285 285 285 284 284 284 284 283 283 283 283 283 283 282 282 282 282 282 283 284 286 286 286 286 286 286 287 286 286 287 289 286 285 286
299 297 295 293 292 289 288 286 285 285 284 284 284 284 284 283 283 283 283 283 283 282 282 282 281 281 282 282 284 285 285 286 286 286 287 285 285 286 288 286 285 285 285
296 294 293 292 290 287 286 286 285 284 284 284 284 284 283 283 283 283 283 283 282 282 281 281 281 282 282 283 284 284 285 285 286 286 286 285 285 287 285 284 283 283 285
294 293 290 289 287 287 286 285 284 284 284 283 283 283 283 283 283 283 282 282 281 281 281 281 282 282 283 283 283 284 284 285 285 285 285 285 287 284 283 282 282 283 283
293 292 290 287 286 285 285 284 284 284 283 283 283 283 283 282 282 282 282 281 281 281 281 282 283 283 283 283 283 283 284 285 285 285 285 284 283 283 282 281 281 281 281
290 290 289 287 285 285 284 284 283 283 283 283 282 282 282 282 282 282 281 281 281 281 282 283 283 283 283 283 283 284 284 284 284 285 282 281 281 282 281 280 280 280 280
290 290 288 286 285 284 284 283 283 283 282 282 282 282 281 282 281 281 281 281 281 282 283 283 283 283 283 283 284 284 284 284 284 282 281 280 281 280 280 280 280 280 280
289 287 286 285 284 283 283 283 283 282 282 282 281 281 281 281 281 280 280 281 281 282 282 282 282 283 283 283 283 283 283 284 282 281 280 280 281 280 280 280 280 280 280

GFSMW_925_thetae_018.txt.gz
Theta_e
317 316 316 317 317 318 320 324 328 329 329 330 331 328 323 321 317 315 313 312 312 312 312 312 311 311 312 312 311 312 312 312 314 312 314 315 316 321 319 323 324 321 322
318 316 316 316 316 316 316 318 322 327 329 330 327 321 318 315 314 312 311 310 309 308 308 308 308 308 309 309 309 309 309 309 309 310 311 314 313 313 314 311 311 314 314
318 317 317 316 316 316 316 316 316 318 318 318 317 316 316 315 313 311 310 308 307 306 306 306 306 306 306 306 306 306 306 306 306 307 308 312 313 312 308 309 309 311 312
318 317 317 316 316 315 315 315 315 315 315 316 316 315 314 312 310 309 308 307 305 303 301 301 302 302 302 302 302 301 302 302 303 303 304 305 306 308 309 307 307 308 309
318 317 316 315 315 315 315 314 313 313 312 312 312 311 310 309 307 306 305 304 303 301 298 298 298 298 298 298 298 298 298 300 300 300 302 303 304 304 307 309 305 303 303
318 317 315 314 314 314 314 312 311 310 310 309 308 308 307 305 305 303 302 300 299 298 296 295 295 295 295 295 295 295 297 299 297 298 300 302 303 303 302 302 303 303 301
318 316 316 315 314 314 313 311 310 308 307 306 305 304 303 301 300 299 298 297 296 295 294 293 293 293 293 293 293 294 295 297 295 296 299 298 296 296 296 297 302 303 301
318 317 316 315 314 313 311 310 308 306 304 302 301 299 299 298 297 295 295 294 293 293 292 292 291 292 291 291 292 292 293 294 294 293 295 295 294 295 296 298 301 303 302
318 317 315 314 313 311 309 308 307 305 302 300 298 297 296 294 294 293 292 292 291 291 291 290 290 291 290 290 290 291 291 291 292 292 293 293 293 294 295 295 296 299 299
317 316 314 314 312 309 307 305 304 302 299 297 296 294 293 292 291 291 291 290 290 290 290 289 289 289 289 289 289 290 290 290 290 291 291 292 292 293 293 291 291 293 294
317 315 314 312 309 307 305 303 302 300 297 295 294 293 291 291 290 290 290 289 289 289 289 288 288 288 288 288 288 289 289 289 290 290 291 291 292 291 290 290 290 290 291
317 315 313 310 307 306 303 302 300 298 296 294 292 291 290 290 290 289 289 288 288 288 288 288 288 288 288 287 287 288 288 289 290 290 290 290 290 289 289 289 289 290 291
316 314 313 310 307 304 302 300 299 296 294 292 291 291 290 290 289 289 288 288 287 287 287 287 287 287 287 287 287 287 288 289 289 289 289 289 289 289 289 289 290 290 291
315 314 313 310 307 303 301 298 297 295 292 291 290 290 289 289 288 288 287 287 287 287 287 286 286 286 286 286 286 287 288 288 289 289 289 288 288 288 288 289 289 290 290
315 314 313 311 306 302 299 297 294 292 290 290 289 289 288 288 287 287 287 287 286 286 286 286 286 286 286 286 286 287 287 288 288 288 288 287 287 288 288 289 289 289 289
314 313 312 310 305 301 298 296 293 290 289 289 288 287 287 287 287 287 286 286 286 286 286 286 285 285 285 285 285 286 287 287 288 287 287 287 287 287 288 288 288 288 289
314 313 312 308 303 300 298 295 292 289 289 288 287 287 286 286 286 286 286 286 286 286 286 285 285 285 285 284 285 286 286 287 287 287 286 287 287 287 287 287 287 288 289
312 312 309 304 300 297 295 291 290 289 288 287 287 286 286 286 286 286 286 286 286 286 285 285 285 284 284 284 284 285 286 286 286 286 286 286 287 287 287 287 288 289 287
310 308 306 301 297 295 292 291 289 287 287 287 286 286 285 285 285 285 285 285 285 285 285 284 284 284 283 284 284 285 285 286 286 286 286 286 287 286 286 287 288 287 286
305 303 299 296 295 292 290 290 287 287 287 286 285 285 285 285 285 285 285 285 284 284 284 284 284 283 283 284 284 285 285 285 285 286 286 286 286 285 286 287 285 285 284
300 297 296 296 293 290 288 287 286 287 286 285 285 285 285 284 284 284 284 284 284 284 284 283 283 283 284 284 284 285 285 285 286 286 286 285 285 286 285 284 284 284 284
297 296 295 293 290 288 287 286 287 285 285 284 284 284 284 284 284 284 284 284 283 283 283 283 284 284 284 284 284 284 284 285 286 285 285 285 285 283 283 283 283 283 283
296 295 294 291 288 286 286 287 286 284 284 284 284 284 284 284 284 284 283 283 283 283 283 283 284 284 284 284 284 284 284 285 285 284 285 285 283 282 282 283 282 282 281
296 294 292 290 288 287 285 285 284 284 284 284 284 284 284 284 284 283 283 283 283 283 283 284 284 284 284 284 284 284 285 284 284 285 284 282 282 281 281 281 281 281 281
294 293 293 291 288 285 285 284 284 283 284 284 284 284 284 284 283 283 282 282 282 283 283 283 283 283 283 283 283 284 284 284 284 283 282 281 281 281 281 281 281 281 281
293 292 290 288 285 285 284 283 283 283 283 283 284 283 283 283 282 282 282 282 282 282 282 282 282 282 282 283 283 283 283 284 283 281 281 281 280 281 280 280 280 280 280

GFSMW_925_thetae_021.txt.gz
Theta_e
321 320 320 321 321 324 328 330 330 331 332 332 332 327 323 320 317 314 313 312 312 311 311 311 311 311 311 311 310 310 311 311 310 310 311 311 310 312 312 311 309 310 311
320 320 319 319 319 319 322 327 329 331 331 326 324 321 319 316 314 313 311 310 308 308 308 308 308 308 308 308 307 307 306 306 306 307 307 310 309 310 307 306 307 308 309
321 320 320 319 319 318 319 320 320 320 320 320 319 318 317 316 313 311 310 308 306 304 303 303 303 303 303 303 302 302 302 303 303 303 304 307 306 307 305 305 306 306 305
320 320 319 319 319 318 318 318 318 318 318 318 318 317 314 312 311 310 308 307 305 302 300 300 299 300 299 299 299 299 299 299 301 301 300 301 303 305 306 304 303 302 302
320 320 319 318 318 318 317 316 315 314 314 314 313 312 311 310 308 308 306 304 303 301 298 297 297 297 297 296 296 297 297 298 300 299 299 300 301 302 302 301 301 299 299
320 319 318 318 318 317 315 314 313 312 311 310 310 309 308 307 306 305 303 302 300 299 296 295 295 295 295 295 294 295 296 297 299 297 297 298 301 300 298 298 298 299 299
320 319 318 318 317 316 314 312 311 310 308 307 307 306 305 304 302 301 300 299 298 296 295 294 294 294 293 293 293 293 294 294 296 295 295 295 296 297 296 297 298 299 299
319 318 318 317 317 315 313 311 310 307 306 304 303 302 301 300 299 298 297 296 295 294 293 293 292 292 292 292 292 292 293 293 293 293 293 293 294 294 295 296 297 298 296
320 319 318 317 316 314 313 311 308 306 304 302 301 300 298 297 296 295 295 294 293 292 292 292 291 291 291 291 291 291 291 291 291 292 292 292 293 293 293 295 294 294 294
320 319 318 316 315 312 311 309 307 304 302 300 299 298 296 295 294 294 293 292 292 291 291 291 290 290 290 290 290 290 290 290 290 291 291 292 292 292 293 293 292 292 292
320 318 317 316 313 311 309 307 304 302 300 299 298 296 295 294 294 293 292 291 291 290 290 290 290 290 290 290 289 289 289 289 290 290 291 291 291 291 291 291 291 291 291
319 318 317 315 312 310 308 306 304 301 299 297 296 295 294 293 293 292 291 290 290 290 290 289 289 289 289 289 288 288 289 288 289 290 290 290 290 290 290 290 290 290 290
319 317 316 314 311 309 307 305 303 300 297 296 295 294 293 292 291 291 290 290 289 289 289 289 289 288 288 288 288 288 288 288 289 289 289 289 290 289 289 289 289 289 290
319 317 316 314 311 308 306 303 301 298 295 294 294 293 292 291 290 290 289 289 289 289 289 288 288 288 288 287 287 287 287 287 288 288 288 289 289 288 288 288 289 289 290
318 317 316 314 311 308 304 302 299 296 294 293 292 291 290 290 289 289 289 288 288 288 288 288 288 288 287 287 287 287 287 287 287 288 288 288 288 288 288 288 289 288 289
318 317 316 314 311 307 304 300 297 294 293 292 291 290 289 289 289 288 288 288 288 288 288 288 288 287 287 287 287 286 286 286 287 287 288 287 287 287 287 288 288 288 288
317 316 316 314 310 306 302 299 296 293 292 291 290 289 288 288 288 288 288 288 288 288 288 288 287 287 286 286 286 286 286 286 287 287 287 287 287 287 287 287 287 287 287
316 315 314 312 307 303 300 296 293 292 291 290 289 288 288 288 287 287 288 288 288 287 287 287 286 286 285 285 285 285 286 286 286 286 286 286 286 287 287 287 287 288 287
314 313 311 307 303 299 296 294 292 290 289 289 289 288 287 287 287 287 287 287 287 287 286 286 285 285 285 285 285 286 286 286 286 286 286 286 286 286 287 287 287 285 285
310 309 305 301 299 297 294 293 291 289 289 288 287 287 287 287 287 286 287 286 286 286 285 285 285 285 285 285 286 286 286 286 286 286 286 286 285 286 287 286 285 284 284
304 302 300 299 296 294 293 292 289 289 287 287 287 286 286 286 286 286 286 286 286 285 285 285 285 285 285 285 285 285 286 286 286 286 286 285 285 286 286 284 283 283 285
300 300 299 296 294 292 292 290 289 287 287 286 286 286 286 286 286 286 286 285 285 285 284 284 285 285 285 285 285 285 285 285 285 285 285 285 286 284 283 283 282 283 283
299 298 297 294 292 290 289 289 288 286 286 286 286 286 286 286 286 286 285 285 284 284 284 284 285 285 285 284 284 284 284 285 285 284 284 286 283 282 282 281 282 282 281
298 298 296 293 291 289 287 287 286 286 286 286 286 286 286 286 286 285 285 284 284 284 284 284 284 284 284 284 284 284 284 284 284 284 285 282 282 281 281 281 281 281 281
298 297 296 294 291 289 287 286 285 285 285 286 286 286 286 285 285 285 284 284 283 284 284 284 284 283 283 283 283 284 283 283 284 284 282 281 281 281 281 281 280 280 281
297 296 295 293 289 287 286 286 285 285 285 285 285 285 285 285 284 284 284 283 284 284 283 283 283 283 283 283 283 283 283 283 283 282 281 280 280 280 280 280 280 280 280

GFSMW_925_thetae_024.txt.gz
Theta_e
318 320 321 323 327 329 330 330 330 331 331 331 329 322 318 315 313 312 311 309 309 308 308 309 308 307 307 307 305 304 303 303 303 304 304 303 307 305 305 300 303 302 304
317 319 320 321 323 327 330 331 331 328 328 326 323 319 316 314 312 310 308 307 305 305 304 303 303 302 302 302 301 300 300 301 300 303 301 302 303 304 300 302 303 302 303
318 317 317 319 319 322 322 323 324 323 321 319 318 315 314 313 311 309 307 306 304 301 300 299 299 299 299 299 298 298 298 298 299 300 300 301 302 300 301 301 302 300 298
317 316 317 318 319 318 318 319 319 319 318 318 317 316 312 311 309 308 306 304 302 301 298 297 297 297 296 296 295 296 296 297 298 299 299 298 298 299 300 302 299 298 297
317 317 317 318 318 317 316 316 315 315 314 314 313 311 310 308 307 306 304 302 301 298 297 295 295 295 295 294 294 294 294 295 296 298 297 296 297 296 299 298 296 295 295
317 317 318 318 317 315 314 312 312 311 311 310 310 309 308 306 304 302 301 300 298 296 295 294 294 293 293 293 293 293 292 293 294 294 295 295 295 294 295 296 294 294 294
317 317 316 316 316 314 313 311 310 308 307 306 305 304 303 301 300 299 298 296 296 294 293 293 292 292 292 292 292 292 291 292 292 293 292 293 293 293 294 293 293 293 294
317 316 315 316 316 314 312 310 307 306 304 303 302 301 300 298 297 296 295 294 294 293 292 292 291 291 291 291 291 291 291 291 291 291 291 291 291 292 292 293 293 292 293
317 316 315 316 315 313 311 308 306 304 302 301 299 298 297 296 295 295 294 293 292 292 291 291 290 290 290 290 290 290 290 290 290 290 290 290 291 291 291 291 291 292 292
316 315 315 315 314 312 310 307 304 302 301 300 298 296 295 295 294 293 292 292 291 291 290 290 290 290 290 289 289 289 289 289 289 289 289 289 290 290 290 290 290 290 290
317 316 314 315 313 311 309 306 303 301 300 298 297 295 294 294 293 292 291 290 290 290 290 289 289 289 289 289 288 288 288 288 288 288 288 289 289 289 290 289 290 289 289
316 315 314 312 311 310 307 304 302 300 298 297 295 294 294 293 292 291 290 290 290 289 289 289 289 289 288 288 288 288 288 287 287 287 288 288 288 288 289 289 288 288 288
316 314 313 310 310 308 307 304 301 299 297 296 295 294 293 292 291 290 290 289 289 289 289 289 288 288 288 288 288 287 287 287 287 287 287 287 287 288 288 288 288 287 288
316 314 313 309 310 308 305 303 300 297 295 294 294 293 292 291 290 290 289 289 288 288 288 288 288 288 288 288 287 287 287 287 286 286 286 287 287 288 287 287 288 288 288
316 314 313 309 308 307 304 302 298 296 294 293 292 291 290 290 289 289 289 288 288 288 288 288 288 288 288 287 287 287 287 286 286 286 286 286 287 287 287 288 288 288 287
316 314 313 309 307 305 303 300 297 294 293 292 291 290 289 289 289 288 288 288 288 288 288 288 288 287 287 287 287 287 287 286 285 285 286 286 286 286 286 287 286 287 288
315 314 312 309 307 304 301 298 295 293 292 291 290 289 289 288 288 288 287 287 288 288 287 287 287 286 286 286 286 286 286 286 286 286 285 285 286 285 285 286 287 287 287
314 313 311 309 306 303 299 296 293 292 291 290 289 289 288 287 287 287 287 287 287 287 287 286 286 285 285 285 286 286 286 286 286 285 285 285 285 286 286 286 287 287 286
311 311 308 305 302 300 295 293 292 291 290 290 289 288 287 287 287 287 286 286 286 286 286 286 285 285 285 285 285 286 286 286 285 285 285 285 285 285 286 286 287 285 284
308 305 303 300 299 295 294 292 290 290 289 288 288 287 287 286 286 286 286 286 286 286 285 285 285 284 284 284 286 286 286 286 285 285 285 285 285 285 286 286 285 284 283
302 301 300 298 295 294 293 291 289 289 288 287 287 286 286 286 286 286 286 286 285 285 285 284 284 284 284 285 285 285 285 285 285 285 285 284 284 286 285 284 283 283 284
300 299 295 294 294 293 292 290 289 288 287 286 286 286 286 286 286 286 286 285 285 284 284 283 283 284 284 284 284 284 284 285 285 284 284 283 285 284 283 282 282 283 282
298 296 294 293 292 291 290 289 287 287 286 286 286 286 286 286 286 285 285 285 284 284 283 283 283 283 283 283 283 283 284 284 284 283 284 285 283 282 281 281 281 281 280
297 295 293 291 289 289 288 288 287 286 286 286 286 286 286 286 285 285 285 284 284 283 283 283 283 283 283 283 283 284 284 283 283 284 284 282 281 280 280 280 280 279 280
298 295 293 291 289 288 287 286 286 285 285 285 285 285 285 285 285 284 284 284 284 284 284 284 283 283 283 283 284 284 283 283 283 283 281 280 280 279 279 279 279 279 280
297 296 294 291 288 287 286 285 285 285 285 285 285 284 284 284 284 283 283 283 283 283 283 283 283 283 283 283 283 283 283 283 282 281 279 279 279 279 279 279 279 279 280

GFSMW_925_thetae_027.txt.gz
Theta_e
316 320 323 325 327 329 329 330 332 332 332 329 325 322 315 315 314 313 311 309 308 308 307 305 304 302 302 301 299 299 298 298 298 301 299 299 302 300 300 296 302 298 302
316 317 320 325 328 329 329 330 331 331 329 327 322 318 313 311 310 308 306 305 305 303 302 301 300 299 299 298 297 297 296 297 298 299 299 299 300 300 295 299 297 300 299
317 314 314 320 322 324 325 325 327 327 325 323 318 314 311 309 308 306 305 303 302 300 299 298 297 297 296 295 295 295 295 296 296 296 298 297 298 296 299 296 299 298 295
316 315 314 316 318 319 321 321 321 321 320 319 315 312 311 309 308 306 303 301 300 299 297 296 295 295 294 293 293 293 294 293 295 294 297 296 295 296 296 297 294 295 295
316 316 315 316 317 317 317 317 318 317 316 315 314 311 309 308 306 303 301 299 298 297 295 294 294 293 293 293 292 292 292 292 294 293 293 294 293 294 293 292 292 293 293
316 316 316 316 314 314 313 313 313 312 313 312 310 308 306 304 302 301 299 297 296 295 293 293 292 292 292 292 291 291 291 291 291 291 292 291 292 293 291 291 292 292 291
317 316 315 313 312 311 311 310 310 308 308 308 306 305 303 301 300 298 297 296 295 293 292 292 291 291 291 291 290 290 290 290 290 290 290 290 290 290 291 291 291 291 291
316 316 314 313 312 310 309 308 306 305 305 304 302 301 300 299 297 296 295 294 293 292 291 291 290 290 290 290 290 289 289 289 289 289 289 289 289 289 290 290 290 290 290
316 315 314 313 311 309 308 306 304 303 302 301 300 298 297 296 295 294 293 292 291 291 290 290 290 290 289 289 289 289 288 288 288 288 288 287 287 288 289 289 289 290 290
315 315 314 312 311 309 306 304 303 301 299 298 297 296 295 295 294 294 292 291 290 290 290 290 289 289 289 289 288 288 288 287 287 287 287 287 287 287 288 288 288 288 289
315 314 313 312 310 308 305 303 301 300 298 297 296 295 294 294 293 293 291 290 290 289 289 289 289 289 288 288 288 288 287 287 287 286 286 286 286 287 287 287 287 288 288
314 313 312 309 308 306 304 302 300 299 297 296 295 294 294 293 292 291 291 290 289 289 289 289 289 288 288 288 288 287 287 287 287 287 286 286 286 286 286 287 287 287 287
314 313 310 308 307 304 302 301 299 297 296 295 294 294 293 293 292 291 290 289 289 288 288 288 288 288 288 288 287 287 287 287 287 286 286 285 285 286 286 286 287 287 287
315 312 310 307 306 304 302 300 298 296 295 294 294 293 292 291 290 289 289 289 288 288 288 288 288 288 287 287 287 287 287 287 286 286 285 285 285 286 286 286 287 287 287
314 312 309 307 305 303 301 298 297 295 294 294 293 292 291 290 289 289 288 288 288 288 288 287 287 287 286 286 287 287 287 287 286 286 286 285 285 286 286 286 286 286 286
314 312 309 306 304 301 298 296 295 294 294 293 292 290 290 289 288 288 288 287 287 287 287 287 286 286 286 286 287 287 287 286 286 286 285 285 285 285 285 285 286 286 287
313 312 309 306 303 300 297 295 294 293 292 291 290 290 289 288 288 287 287 287 287 287 286 286 286 285 285 285 286 286 286 286 286 286 285 285 285 285 285 285 286 286 287
313 312 308 305 301 298 296 295 293 292 291 290 289 289 288 287 287 287 286 286 286 286 286 285 285 285 284 285 285 286 286 286 285 285 285 285 285 285 285 285 286 286 286
311 308 305 301 298 296 295 294 292 291 290 289 289 288 287 287 286 286 286 286 286 286 285 285 284 284 284 284 285 286 285 285 285 285 285 285 284 284 284 285 286 284 283
304 300 298 296 295 293 294 292 291 290 289 288 288 287 287 286 286 286 286 286 285 285 285 284 284 283 283 283 284 285 285 285 284 285 284 284 283 284 286 285 284 282 282
299 298 295 294 293 293 293 291 289 289 288 287 287 287 286 286 286 286 286 285 285 285 284 283 283 283 283 283 284 284 284 284 285 284 284 283 283 286 284 283 281 281 283
296 295 293 292 293 292 292 289 288 288 287 287 286 286 286 286 286 286 285 285 284 284 283 283 283 283 283 283 283 284 284 285 284 284 283 283 285 282 282 281 281 282 282
294 293 292 291 292 291 291 288 287 287 286 286 286 286 286 286 286 285 284 284 283 283 283 282 283 283 283 283 283 284 284 284 284 283 284 283 281 280 280 280 280 280 279
293 291 290 289 288 289 289 288 287 286 286 286 285 285 285 285 285 284 284 283 283 283 283 283 283 283 283 283 283 284 284 283 283 283 281 280 279 279 279 279 279 279 279
292 291 290 288 287 287 287 286 286 286 285 285 285 285 285 284 284 283 283 283 283 283 283 283 283 283 283 283 284 283 283 283 283 282 279 279 279 279 279 279 279 279 279
293 291 290 289 287 287 286 285 285 285 285 285 284 284 284 284 283 282 282 282 282 283 283 283 283 282 283 283 283 283 283 282 281 280 279 278 278 278 278 279 279 279 279

GFSMW_925_thetae_030.txt.gz
Theta_e
315 317 321 323 326 327 327 325 323 328 330 327 324 322 317 315 316 316 314 313 309 307 305 303 302 301 300 297 296 296 295 296 295 298 296 297 301 299 298 297 297 295 299
315 316 322 326 328 328 329 330 328 324 325 327 323 319 315 312 311 308 306 305 304 303 302 301 299 298 296 295 294 294 294 295 294 295 297 297 297 299 295 297 295 297 293
316 316 317 323 326 327 329 329 328 326 325 324 319 314 311 307 305 304 303 301 301 300 299 298 297 295 294 293 293 293 292 292 294 296 295 294 294 293 295 293 295 292 294
316 314 315 317 321 324 327 327 326 325 322 321 318 314 308 306 305 303 301 300 299 298 297 295 294 294 293 292 292 292 291 292 293 292 293 294 294 293 293 294 292 292 291
316 315 316 316 318 320 321 322 322 321 319 319 316 310 308 306 303 301 300 298 297 296 295 294 293 292 292 291 291 291 290 291 290 291 291 291 290 291 292 291 289 290 290
315 314 314 314 314 316 317 317 317 316 315 313 311 309 306 304 301 299 298 297 296 295 293 292 291 291 291 290 290 290 290 289 289 289 289 289 289 290 289 288 288 289 289
315 314 313 310 309 310 312 314 314 312 312 310 308 307 304 302 300 298 297 296 294 293 292 291 290 290 290 290 289 289 289 289 288 288 288 288 288 287 288 288 288 288 289
316 315 312 310 308 307 308 309 310 307 308 307 304 303 301 300 298 298 296 294 293 291 290 290 290 289 289 289 289 289 288 288 287 287 287 287 287 286 287 287 288 288 287
316 314 311 309 307 306 305 306 305 304 304 302 300 299 299 298 297 295 294 292 291 290 290 290 289 289 289 289 288 288 288 287 287 287 287 286 286 286 286 286 287 287 287
315 313 311 308 306 305 305 304 303 302 300 299 299 298 297 296 295 294 292 291 290 290 289 289 289 289 289 288 288 288 287 287 287 286 287 286 286 286 285 286 286 286 287
315 313 310 308 305 304 303 302 301 299 297 297 296 296 295 294 294 293 291 290 290 289 289 289 289 289 288 288 288 287 287 287 286 287 286 286 286 285 285 285 285 286 286
314 312 310 306 304 302 301 300 298 297 296 296 295 294 294 293 293 292 291 290 289 289 288 288 288 288 288 287 287 287 286 287 287 287 286 286 285 285 285 285 285 285 286
313 312 308 306 303 300 299 299 298 296 295 295 294 294 293 293 292 291 290 289 288 288 288 288 288 287 287 286 286 286 287 287 287 286 286 285 285 285 285 285 285 286 286
313 311 308 306 302 300 298 298 297 296 295 294 294 293 293 292 290 289 289 288 288 288 288 287 287 286 286 285 286 286 287 287 286 286 286 286 285 285 285 285 286 286 285
313 311 308 305 301 299 297 297 296 295 294 294 293 292 291 290 289 288 288 288 287 287 287 286 286 285 285 285 286 287 287 286 286 286 286 285 285 286 286 286 286 285 286
313 310 307 304 301 298 296 295 294 294 294 293 293 291 290 289 288 288 287 287 287 287 286 286 285 285 284 285 286 287 286 286 286 285 285 285 285 285 285 285 285 285 286
312 310 307 305 301 297 296 294 294 293 293 293 291 290 289 288 287 287 287 287 286 286 286 285 284 284 283 285 286 286 286 285 285 285 285 284 284 284 284 284 284 285 285
312 309 307 303 299 296 295 294 294 293 292 291 290 289 288 287 287 287 286 286 286 285 285 284 284 283 283 284 285 286 285 285 284 284 284 284 284 284 284 284 285 285 283
310 308 305 299 296 294 294 294 292 292 291 289 289 288 287 287 286 286 286 286 285 285 284 284 283 283 283 283 284 285 285 284 284 284 284 284 284 283 284 287 284 283 282
304 300 297 295 294 292 294 292 291 290 289 289 288 287 287 286 286 286 286 285 285 284 284 283 283 283 283 283 284 285 284 284 284 284 285 284 283 284 286 284 283 281 281
296 295 295 293 291 293 293 290 290 289 289 288 287 287 286 286 286 286 285 284 284 283 283 283 283 283 283 283 284 284 285 284 285 284 284 283 283 284 283 282 281 281 283
294 293 292 290 291 292 292 289 289 288 288 287 286 286 286 286 286 285 284 284 283 283 283 283 283 283 283 283 283 284 284 285 284 284 283 283 283 282 281 281 281 282 281
292 292 291 289 291 292 292 288 287 287 287 286 286 286 286 286 285 284 283 283 282 282 283 282 283 282 282 282 283 283 284 283 284 283 283 282 281 280 279 279 280 280 279
290 290 289 288 288 290 290 289 287 286 286 286 285 285 285 285 284 283 283 282 282 282 283 283 282 282 282 282 282 283 283 283 283 283 281 280 279 279 279 278 279 278 279
290 289 288 287 287 288 287 287 286 286 285 285 285 285 284 284 283 283 282 282 282 283 283 283 282 282 282 282 283 283 283 283 282 281 279 278 278 278 278 278 278 278 279
290 289 287 287 286 287 286 286 285 285 285 284 284 284 284 283 283 282 282 282 282 282 282 282 282 282 282 282 282 282 282 282 280 279 278 278 277 278 278 278 278 278 278

GFSMW_925_thetae_033.txt.gz
Theta_e
313 315 317 320 321 321 323 324 323 328 331 329 323 320 317 317 320 318 314 315 313 307 305 303 302 301 300 296 295 294 294 294 293 294 295 297 298 298 298 294 295 295 295
314 314 317 322 324 325 325 324 324 327 326 325 322 320 314 311 310 307 306 305 304 303 303 301 300 298 295 294 293 293 292 292 293 295 295 294 294 297 297 294 293 294 293
314 314 316 322 325 326 327 325 323 323 323 323 320 313 309 305 302 302 302 301 302 301 300 299 297 295 293 293 292 292 291 292 292 293 292 290 292 292 293 294 294 293 291
314 315 316 319 323 326 327 325 323 322 320 319 318 315 307 303 301 301 300 300 299 298 297 296 294 293 292 292 291 291 290 290 290 291 291 291 293 290 290 292 291 290 288
314 315 318 319 322 324 325 324 321 320 318 319 319 315 307 304 301 300 299 298 297 296 295 293 292 291 291 291 290 290 290 289 289 289 289 289 289 290 289 289 288 287 287
314 315 315 316 316 319 321 320 319 317 317 317 315 313 306 302 299 298 298 296 295 294 293 292 291 290 290 290 290 289 289 289 288 288 287 287 288 289 287 286 286 286 287
314 314 314 312 310 313 315 316 316 313 314 313 310 307 305 303 301 299 298 296 294 293 291 291 290 290 289 289 289 289 288 288 287 287 287 287 286 286 286 286 286 286 286
314 316 314 311 310 309 312 312 312 310 309 308 306 305 303 301 299 298 296 295 293 291 290 290 289 289 289 289 289 288 288 287 287 287 286 286 286 286 286 285 285 285 285
315 315 311 309 308 307 308 310 308 307 307 305 303 301 300 299 297 296 295 293 291 290 290 289 289 289 289 288 288 288 287 287 287 286 286 286 286 286 285 285 285 285 285
315 312 309 307 305 305 306 307 307 304 302 301 300 298 298 297 296 294 293 292 290 289 289 289 289 289 288 288 287 287 287 286 286 286 286 286 286 285 285 285 284 285 285
313 310 308 305 302 302 302 301 302 300 298 298 297 297 295 295 294 294 292 290 289 289 289 288 288 288 288 287 287 286 286 286 286 286 286 286 286 285 285 285 284 284 285
312 309 306 303 301 299 299 298 298 297 297 296 295 295 294 294 293 292 290 289 289 288 288 288 288 287 287 286 286 285 286 286 287 287 286 286 286 285 285 285 284 284 284
311 308 305 302 300 298 297 296 296 295 295 295 295 293 293 293 292 290 289 288 288 288 288 288 287 286 286 285 285 286 286 287 286 286 286 285 285 285 285 285 284 284 285
311 308 305 302 299 297 296 295 294 294 294 294 294 293 293 292 290 289 288 288 288 287 287 287 286 285 285 284 285 286 287 286 286 286 285 285 285 285 285 285 285 286 285
311 309 305 301 298 296 295 294 294 294 294 294 293 292 291 290 289 288 288 287 287 287 286 286 285 285 284 284 286 287 287 286 285 285 284 284 284 285 285 285 285 285 285
311 309 305 300 297 296 294 293 293 294 294 293 292 291 290 289 288 287 287 287 287 286 286 285 285 284 283 284 286 287 287 286 285 284 284 284 284 284 284 284 284 285 285
311 308 305 301 299 295 294 293 294 293 293 293 291 290 289 288 287 287 287 287 286 286 285 285 284 283 283 284 286 286 286 285 284 284 284 284 283 284 284 283 284 285 285
310 308 304 301 297 295 294 294 293 293 292 291 290 289 288 287 287 287 287 286 286 285 285 284 283 283 283 284 285 285 285 284 284 284 284 283 284 284 284 285 286 283 282
309 306 303 298 295 294 294 293 292 292 291 290 289 288 287 287 286 286 286 286 285 284 284 283 283 283 283 283 284 285 284 284 284 284 284 284 284 283 284 285 283 282 281
305 300 297 295 293 292 293 292 291 290 290 289 288 287 287 286 286 286 285 285 284 283 283 283 283 283 283 283 284 284 284 284 284 285 284 283 283 284 285 283 282 281 280
298 296 295 293 291 292 293 290 290 290 289 288 287 286 286 286 286 285 285 284 283 283 283 283 283 283 282 282 283 284 284 284 285 283 283 283 283 284 283 282 281 281 283
294 293 291 289 290 292 293 289 289 288 288 287 286 286 286 286 286 285 284 283 283 282 282 283 283 282 282 282 282 283 284 284 283 284 283 283 283 282 281 280 281 282 281
292 291 289 288 290 292 293 289 287 287 287 286 285 286 286 286 285 284 283 283 282 282 282 282 282 282 282 282 282 283 283 283 284 283 283 282 281 280 279 279 280 280 278
290 290 289 288 287 290 290 289 287 287 286 285 285 285 285 285 284 283 283 282 282 282 282 282 282 282 281 281 282 283 283 283 283 282 281 280 279 278 278 278 278 278 278
289 289 288 287 286 288 287 287 286 286 285 285 285 285 284 284 283 282 282 282 282 282 283 282 282 282 281 282 283 283 283 283 282 281 279 277 277 277 277 277 277 278 278
288 287 286 286 286 286 286 286 285 285 285 285 284 284 284 283 282 282 282 281 281 282 282 282 282 281 281 282 282 282 282 282 280 279 277 277 277 277 277 277 277 277 277

GFSMW_925_thetae_036.txt.gz
Theta_e
315 315 317 317 318 319 322 323 327 329 332 331 327 323 323 321 321 320 318 319 313 309 306 304 302 300 300 297 295 294 293 293 292 293 294 296 295 297 297 296 293 294 293
313 312 315 317 319 319 321 322 325 327 328 327 324 321 318 313 314 312 310 308 304 303 303 302 300 298 296 294 293 292 292 292 291 293 292 291 293 294 294 293 294 293 293
316 312 313 318 321 322 322 322 323 325 325 325 321 315 313 307 303 302 300 300 302 302 301 299 297 295 294 292 291 291 291 291 290 292 291 288 289 291 291 292 291 292 290
314 312 312 317 321 323 324 323 322 322 322 321 319 318 308 302 299 299 298 299 299 299 298 296 294 293 292 291 290 290 290 290 289 290 289 289 290 289 288 290 290 289 287
315 312 313 318 321 324 325 323 320 319 318 317 316 311 304 302 298 297 297 297 297 296 295 293 292 291 291 290 290 290 289 289 288 288 288 288 288 289 288 287 287 286 286
312 312 314 318 320 322 322 320 318 316 315 315 312 312 308 300 297 296 296 296 295 294 292 292 291 290 290 290 289 289 289 288 288 287 287 286 287 287 286 285 285 285 285
311 312 314 315 313 316 317 316 316 312 312 312 311 310 305 301 299 298 297 295 293 292 291 290 290 290 289 289 289 289 288 288 287 287 286 286 286 286 286 285 285 284 285
311 314 315 315 314 313 314 313 313 311 311 311 309 306 303 301 299 298 296 295 293 291 290 290 289 289 289 289 289 288 288 287 287 286 286 286 286 286 286 285 284 284 284
312 313 314 314 312 311 311 312 310 308 308 307 304 302 301 299 297 296 295 293 291 290 289 289 289 289 289 288 288 287 287 286 286 286 286 286 286 286 286 285 285 284 284
312 313 312 309 309 307 308 309 309 306 304 303 302 299 298 297 296 294 293 291 290 289 289 289 289 288 288 288 287 286 286 286 286 286 286 286 286 286 285 285 285 284 284
313 312 309 305 302 303 303 303 302 302 300 299 298 296 295 295 294 293 291 290 289 289 289 288 288 288 287 286 286 285 285 286 286 286 286 286 286 285 285 285 285 284 284
311 307 304 302 301 299 299 298 297 298 298 297 296 295 294 293 293 291 290 289 289 288 288 288 288 287 286 286 285 285 286 286 286 286 286 285 285 285 285 284 284 284 284
307 304 303 301 298 296 295 295 295 295 295 295 294 293 293 293 291 290 289 288 288 288 288 288 287 286 285 285 284 285 286 286 286 286 285 285 284 284 284 284 284 284 284
308 305 302 299 297 295 293 293 293 294 294 294 293 293 292 291 290 289 288 288 288 288 287 287 286 285 285 284 285 286 287 286 286 285 285 284 283 284 284 284 285 285 284
308 305 301 298 296 293 292 292 293 293 293 293 293 292 291 290 289 288 287 287 287 287 287 286 285 285 284 284 286 287 287 286 286 285 284 284 284 284 285 285 285 284 285
309 305 301 297 295 293 292 291 292 292 293 293 292 290 290 289 288 287 287 287 287 286 286 285 285 284 283 283 286 287 286 286 285 284 284 284 283 283 284 284 284 285 286
309 305 300 298 296 293 292 291 292 292 293 292 290 290 289 288 287 287 287 287 286 286 285 284 284 283 283 284 286 286 286 285 284 284 284 284 284 284 284 284 284 285 285
309 304 300 297 294 293 293 293 293 292 292 291 289 289 288 287 286 287 287 286 286 285 284 284 283 283 283 283 285 285 285 284 284 284 284 284 284 284 284 284 286 284 282
307 303 300 296 293 293 293 293 292 292 291 289 289 288 287 286 286 287 286 286 285 284 284 283 283 283 283 283 284 285 284 284 284 284 284 284 284 283 284 286 284 283 281
305 300 296 294 293 292 293 292 290 291 290 289 288 287 286 286 286 286 286 285 284 283 283 283 283 282 282 282 283 284 284 284 284 284 283 283 283 283 285 283 282 281 280
298 296 295 293 291 292 292 290 290 289 289 288 287 286 286 286 286 285 285 284 283 283 282 282 283 282 282 282 283 283 284 284 284 283 283 283 283 284 283 282 281 281 283
296 293 291 290 290 291 292 289 289 288 288 287 286 286 286 286 285 285 284 283 283 282 282 282 282 282 282 282 282 283 284 284 283 283 283 282 283 282 281 280 281 282 281
292 291 289 288 289 291 292 288 286 287 286 286 286 285 285 285 285 284 283 283 282 281 282 282 282 282 281 281 281 283 283 283 283 283 283 282 281 280 279 279 280 279 277
290 289 289 288 286 290 290 288 287 287 286 285 285 285 285 285 284 283 283 282 282 281 282 282 282 281 281 281 281 282 283 283 283 282 281 280 278 278 278 277 277 277 277
290 289 288 286 285 288 287 287 286 286 285 285 285 284 284 284 283 283 282 282 281 282 283 282 282 281 281 281 282 283 283 283 282 281 279 277 277 277 277 277 277 277 277
287 286 285 284 285 286 285 285 285 286 285 284 284 284 284 283 282 282 282 281 281 281 282 281 281 281 281 281 282 282 282 282 280 279 277 276 276 276 276 276 277 277 277

GFSMW_925_thetae_039.txt.gz
Theta_e
317 317 318 318 318 318 319 322 324 328 330 332 332 327 328 326 325 326 324 321 320 313 311 303 302 303 302 298 296 295 293 293 292 294 296 295 294 297 298 295 293 293 293
316 317 316 317 317 318 318 321 325 328 329 328 325 322 321 314 318 316 314 312 309 305 303 303 302 300 298 295 294 293 292 291 292 293 293 296 295 294 294 293 292 291 291
315 317 315 315 318 317 318 320 324 326 326 327 325 320 314 310 307 305 305 301 302 301 302 301 300 297 295 293 292 291 291 292 291 291 293 295 294 293 292 292 291 291 289
312 315 316 315 317 319 319 320 322 324 324 324 323 321 312 306 301 300 299 298 299 300 299 298 296 294 293 291 291 290 290 290 291 290 289 289 291 292 292 291 291 289 288
312 314 316 316 317 319 321 321 321 321 321 320 320 314 309 303 299 297 297 296 295 297 296 295 294 292 291 291 290 290 290 289 289 289 289 289 289 289 290 290 290 288 288
313 315 315 315 317 319 322 321 319 317 316 316 314 313 310 300 296 295 295 294 294 293 293 293 292 291 290 290 290 289 289 288 288 287 287 287 288 289 288 288 288 288 287
314 314 314 317 317 318 318 317 316 312 312 312 310 309 305 300 298 295 294 293 292 292 291 291 290 290 290 290 289 289 288 288 287 287 286 286 287 287 287 287 288 287 287
312 313 315 317 317 317 314 313 311 308 308 308 306 304 301 299 297 297 295 294 293 292 291 290 290 290 289 289 289 288 287 287 286 286 286 286 286 286 286 286 286 288 288
311 313 314 316 317 315 314 312 309 307 307 306 305 302 301 300 297 295 295 293 292 291 290 290 289 289 289 289 288 287 287 286 286 286 286 286 286 286 286 286 286 286 287
309 313 315 315 315 314 310 308 307 305 305 304 304 301 298 297 295 294 293 292 291 290 289 289 289 289 288 288 287 286 286 286 286 286 286 286 286 285 285 285 285 285 286
312 314 314 312 310 307 306 303 303 302 300 300 299 297 295 295 294 293 292 291 290 289 289 289 288 288 287 287 286 285 285 286 286 286 286 285 285 285 285 285 285 285 285
312 312 307 305 305 303 301 301 298 297 296 296 296 295 294 293 293 291 290 290 289 289 288 288 288 287 286 286 285 285 286 286 286 286 286 285 285 284 284 284 284 284 284
306 304 304 304 302 300 298 297 294 293 294 294 294 292 292 292 291 290 289 289 288 288 288 288 287 286 286 285 284 285 286 286 286 286 285 284 284 284 284 284 284 284 285
305 305 303 301 298 297 296 293 292 292 292 293 292 292 292 291 290 289 288 288 288 288 287 287 286 285 285 284 285 286 287 287 286 286 285 284 284 284 284 285 285 285 285
306 303 300 299 296 294 293 292 291 291 292 292 292 291 290 290 289 288 287 287 288 287 287 286 285 285 284 284 286 287 287 286 286 285 284 284 284 285 285 285 285 285 285
306 302 299 297 295 293 292 291 290 290 293 292 291 290 289 288 288 287 287 287 287 286 286 285 285 284 284 283 286 287 286 286 285 284 284 284 284 283 284 284 284 285 285
305 301 298 296 294 293 292 291 290 291 292 291 289 289 288 287 287 287 287 287 286 286 285 285 284 283 283 284 286 286 286 285 284 284 284 284 283 284 283 283 284 285 286
304 300 298 295 292 292 291 290 291 291 291 289 289 288 287 287 286 287 287 286 286 285 284 284 283 283 283 283 285 285 285 284 284 284 283 283 283 283 284 284 285 284 283
304 301 297 294 292 291 291 290 290 290 289 288 288 287 287 286 287 287 286 286 285 284 284 283 282 283 282 282 284 285 284 284 284 283 283 283 283 283 284 285 284 283 282
302 298 295 293 292 290 291 290 289 289 288 288 287 287 287 287 287 286 286 285 284 284 283 282 282 282 282 282 283 284 284 284 284 284 284 283 283 283 285 284 283 282 281
298 296 295 293 291 290 291 289 289 287 288 287 287 286 286 287 286 286 285 284 284 283 282 282 282 282 282 282 283 283 284 284 284 283 283 283 283 284 283 282 282 281 283
296 294 292 290 290 290 291 289 287 287 287 287 286 286 286 286 285 285 284 283 283 282 282 282 282 282 282 281 282 283 284 284 283 283 283 283 283 282 281 281 280 282 281
293 291 290 289 289 290 290 287 285 287 287 286 286 286 285 285 285 284 283 283 282 281 282 282 282 282 281 281 281 282 283 283 283 283 283 283 281 280 279 279 280 279 278
290 289 289 288 287 288 288 288 287 287 286 285 285 285 285 284 284 283 283 282 281 281 282 282 282 282 281 281 281 282 283 283 283 282 282 280 279 278 278 278 278 278 278
290 289 288 286 284 287 287 287 287 286 285 285 285 284 284 284 283 282 282 281 281 282 282 282 281 281 281 281 282 282 283 283 282 282 280 278 277 277 277 277 277 278 278
287 286 285 284 284 286 285 285 286 286 285 284 284 284 283 283 282 281 281 281 281 281 281 281 281 281 281 281 282 282 283 282 281 279 277 277 277 277 277 277 277 277 277

GFSMW_925_thetae_042.txt.gz
Theta_e
319 319 320 321 322 321 321 322 323 327 331 333 335 337 334 329 325 324 327 323 321 322 318 309 303 301 300 299 298 298 298 297 297 299 300 300 298 301 300 298 297 296 295
315 317 318 320 321 321 321 323 324 328 331 332 331 331 326 318 319 320 318 314 317 318 314 302 301 300 298 297 297 297 297 296 296 297 298 301 300 299 299 296 296 295 294
313 314 315 318 321 321 322 322 325 329 330 330 330 322 314 310 309 306 310 308 309 307 304 300 299 298 297 296 296 296 296 297 295 294 296 299 300 296 296 296 294 294 293
313 313 314 315 319 321 322 322 325 328 328 325 320 318 321 316 308 305 305 303 303 301 299 298 297 296 296 295 294 294 294 295 295 294 293 293 293 295 296 295 294 293 292
313 314 314 313 316 319 322 322 324 325 323 321 323 323 321 315 305 300 299 298 297 298 296 296 295 295 294 294 293 293 293 293 293 293 293 292 292 292 293 294 294 292 292
313 313 313 314 315 318 323 323 322 322 321 322 322 324 318 307 300 297 296 296 295 295 294 294 294 293 293 293 292 292 292 291 291 291 291 291 291 292 292 293 292 292 291
313 314 315 316 316 318 323 322 321 320 319 320 321 318 310 306 302 296 296 294 294 293 293 293 293 292 292 292 292 292 291 291 291 290 290 289 290 290 290 290 291 291 290
314 313 315 318 318 319 322 321 320 318 317 317 316 313 307 300 296 295 294 294 294 295 293 292 292 291 291 291 291 291 290 290 290 289 289 289 289 289 289 289 289 290 291
314 314 314 317 318 320 322 321 319 316 315 314 311 306 299 297 295 295 295 293 293 292 292 291 291 291 290 290 290 290 289 289 289 289 289 289 289 288 288 288 288 289 290
316 314 313 317 319 321 321 320 317 314 312 308 306 301 296 297 296 295 294 293 292 291 291 291 291 290 290 289 289 289 288 288 288 288 288 288 288 288 288 288 288 287 288
316 313 313 317 319 321 319 317 314 310 307 304 300 297 296 296 296 294 294 293 292 291 291 290 290 290 289 288 288 288 288 288 288 288 288 288 287 287 287 287 286 286 286
315 315 316 318 319 317 315 312 309 306 303 298 297 294 295 294 294 293 292 291 291 290 290 289 289 288 288 287 287 287 288 288 288 288 288 287 287 286 286 286 286 286 286
314 312 313 314 315 313 311 308 303 299 298 296 294 293 294 293 293 292 291 290 290 289 289 289 288 287 287 286 286 287 287 288 288 288 287 287 286 286 286 286 286 286 286
312 311 312 312 312 308 304 300 296 293 293 293 293 293 294 292 291 291 290 290 289 289 288 288 287 286 286 285 286 287 288 288 288 287 287 286 285 285 285 286 286 286 286
311 310 310 309 305 300 296 294 293 292 292 292 293 293 292 291 290 289 289 289 289 288 287 287 286 286 285 285 287 288 288 288 288 287 286 286 285 285 285 286 286 286 285
309 307 306 303 299 296 294 293 292 291 292 292 291 291 290 290 289 289 288 288 287 287 286 286 285 285 285 284 286 287 287 287 287 286 286 285 285 285 285 285 285 285 286
307 305 302 299 296 295 293 292 292 292 292 292 291 290 290 289 289 288 288 288 287 287 286 285 285 285 284 283 286 286 286 287 286 286 285 285 285 285 284 284 285 285 286
307 303 299 297 295 294 293 292 292 293 293 292 291 290 289 288 288 288 287 286 286 286 286 285 284 284 284 283 285 285 286 286 285 285 285 285 285 285 285 285 285 286 285
305 301 298 296 296 295 294 294 294 293 292 291 290 289 288 288 288 287 286 286 286 286 285 284 284 284 284 283 284 285 285 285 285 285 285 285 284 284 285 285 286 284 284
304 300 298 297 296 294 294 294 293 292 291 290 288 288 288 288 287 286 286 285 285 285 284 284 284 283 283 283 284 284 285 285 285 285 285 284 284 284 285 285 284 284 283
301 298 297 297 295 294 294 293 292 291 289 288 287 287 286 286 286 286 285 285 285 284 284 284 284 284 283 283 283 284 284 285 285 285 284 284 284 284 284 283 283 282 282
297 295 293 293 292 293 292 291 289 287 287 287 286 286 286 285 285 285 285 284 284 284 284 284 284 284 283 283 283 283 284 284 284 284 284 284 284 283 282 282 281 282 282
296 296 295 293 293 292 290 287 286 287 287 286 285 285 285 285 285 285 285 285 284 284 284 284 284 284 283 283 282 283 283 284 284 284 284 284 283 281 280 280 281 280 280
295 294 293 293 291 289 288 288 286 286 286 286 286 285 285 285 284 284 283 284 284 284 284 284 283 283 283 282 282 283 283 283 284 283 283 282 281 280 280 280 280 280 280
293 293 292 291 288 287 286 286 286 286 286 286 286 286 285 285 284 283 283 283 283 283 283 283 282 282 282 282 282 283 283 283 283 282 281 280 280 280 280 280 280 280 280
291 290 289 288 287 286 285 285 286 286 286 286 285 285 284 284 283 283 283 281 281 280 281 281 281 281 281 282 282 282 283 282 281 280 280 279 279 279 279 279 279 279 279

GFSMW_925_thetae_045.txt.gz
Theta_e
320 320 321 322 322 322 324 324 325 325 326 330 335 338 339 338 339 338 335 332 326 317 318 314 308 306 305 304 303 301 301 300 299 301 301 302 300 302 301 301 299 299 297
317 318 319 320 321 322 324 323 324 325 328 331 334 336 338 334 330 326 327 322 316 312 311 311 306 303 302 301 300 301 300 299 297 298 301 305 302 301 302 300 298 297 296
316 316 316 318 320 321 323 323 324 325 329 331 334 335 329 320 319 317 313 311 313 314 311 306 303 301 301 300 299 299 299 299 298 296 298 302 304 298 298 298 297 296 296
315 315 315 316 317 320 323 323 324 326 330 332 333 331 323 317 311 310 308 307 305 306 304 302 301 300 299 299 297 297 297 297 297 297 295 295 295 297 297 297 296 296 294
314 314 315 315 314 316 322 324 324 326 331 331 332 327 322 321 309 307 305 304 302 300 300 300 299 298 298 296 296 296 295 295 296 295 295 294 294 294 295 296 296 294 294
313 313 314 314 315 315 319 324 325 327 330 330 326 323 326 313 305 302 301 300 299 298 298 298 297 297 296 295 295 295 294 294 294 293 293 293 293 294 294 294 294 293 293
313 313 314 315 314 315 316 324 325 326 328 326 326 325 325 310 305 302 300 298 297 296 296 296 296 296 295 294 294 294 294 293 293 292 292 291 292 292 291 291 292 292 292
313 315 316 316 315 317 317 323 325 325 324 325 325 327 316 310 305 302 298 297 297 297 296 296 295 294 294 293 294 293 293 292 292 292 291 291 291 291 291 291 291 291 291
314 315 316 316 316 318 318 322 324 323 323 324 325 318 313 307 301 298 297 296 296 295 295 294 294 293 293 293 292 292 292 291 291 291 291 291 290 290 290 290 290 290 290
314 315 315 316 315 317 319 323 323 321 321 322 319 312 304 299 296 296 296 296 295 294 294 294 293 292 292 291 291 291 290 290 290 290 290 290 290 289 289 289 289 289 289
314 315 315 314 315 318 321 322 322 320 319 316 309 303 299 295 295 295 295 294 294 294 294 293 292 292 291 290 290 290 289 289 290 290 290 290 289 289 288 288 288 288 288
315 315 316 316 318 321 323 322 319 316 313 308 303 299 295 295 295 295 294 294 294 293 293 292 292 291 290 289 289 289 289 289 290 290 289 289 289 288 288 287 287 287 287
314 315 315 318 319 321 320 318 314 311 306 303 298 295 295 295 295 294 294 293 293 292 291 291 291 290 289 288 288 288 289 289 290 289 289 289 288 288 287 287 287 287 287
315 315 315 315 316 317 315 312 309 304 301 299 296 295 295 294 294 293 293 292 292 291 291 290 289 288 288 287 287 289 289 290 290 289 289 288 288 287 286 286 286 287 287
316 313 314 313 313 312 309 304 302 300 297 296 295 294 295 293 293 292 292 291 291 290 289 289 288 287 287 287 287 288 289 289 289 289 288 287 287 286 286 286 286 286 286
312 310 311 310 306 301 299 297 295 295 295 295 294 294 293 292 292 291 291 290 289 289 288 288 287 287 286 285 285 288 288 288 288 288 287 287 286 286 286 286 286 286 286
310 308 307 303 298 296 295 294 293 293 293 293 292 293 292 291 291 290 290 290 289 289 288 287 287 287 286 285 285 287 287 287 287 287 287 286 286 286 286 285 285 286 286
307 305 301 299 295 294 293 293 293 293 293 292 292 292 291 291 290 290 289 288 288 288 288 287 286 286 286 285 284 286 286 286 286 286 286 286 286 286 286 286 286 286 286
304 301 297 295 294 293 294 294 294 293 293 292 292 291 291 290 290 289 288 288 288 287 287 286 286 286 285 285 284 285 285 285 286 286 286 286 286 285 286 286 286 286 284
299 297 296 295 295 295 296 295 295 294 293 292 291 290 290 289 289 288 288 287 287 286 286 286 285 285 284 285 284 285 285 285 285 285 285 285 285 286 286 285 285 284 283
299 298 297 296 296 296 296 295 294 293 291 290 289 289 288 288 288 287 287 287 286 286 286 285 286 285 285 284 284 284 284 285 285 285 285 285 285 285 285 285 284 283 283
301 300 299 298 297 297 295 294 291 289 288 287 287 287 287 287 287 287 286 286 286 286 286 286 286 285 285 284 284 284 284 285 285 284 284 284 284 285 284 283 282 282 283
295 294 294 294 293 292 290 288 287 287 287 287 286 286 286 287 287 287 286 287 286 286 286 285 285 285 284 284 284 283 284 284 284 284 284 284 284 283 282 281 282 282 281
298 296 295 293 290 288 287 287 287 287 287 287 287 286 286 286 286 285 285 286 285 285 285 284 284 284 283 283 283 283 283 283 283 284 283 283 282 281 281 281 281 281 281
296 296 294 290 287 287 286 286 287 287 287 287 287 287 286 286 286 285 285 285 284 283 283 283 282 282 282 282 283 283 283 283 283 283 282 281 281 280 280 280 280 280 280
294 291 288 287 286 286 286 287 288 288 287 287 287 286 286 286 285 285 285 284 282 281 280 281 281 281 282 282 282 282 282 283 282 281 280 280 280 280 280 280 279 279 280

GFSMW_925_thetae_048.txt.gz
Theta_e
317 319 320 321 320 321 323 327 326 325 324 326 338 340 340 339 338 337 336 334 333 329 323 320 313 312 308 305 303 302 301 300 298 300 301 302 301 302 301 301 300 299 298
313 314 318 320 321 321 322 322 325 325 324 324 330 338 339 338 338 338 336 334 330 325 319 314 311 308 306 303 301 302 300 299 297 297 299 299 300 300 300 301 299 298 296
313 312 312 316 318 320 321 322 323 325 325 326 331 336 336 335 334 334 332 329 322 319 313 310 309 306 304 301 301 300 300 299 297 296 298 297 298 295 298 300 298 297 296
313 312 312 312 315 318 320 321 323 324 324 327 333 335 331 325 325 325 321 316 316 315 310 308 305 303 302 301 299 298 297 298 297 296 295 295 295 293 292 296 296 296 294
311 311 311 313 314 314 319 320 321 323 324 328 333 332 328 323 319 317 316 315 312 309 306 304 302 301 300 298 297 296 296 296 296 295 295 294 294 294 292 291 293 294 293
311 312 312 314 314 315 314 315 322 324 324 330 333 330 324 320 314 310 310 307 305 302 301 301 300 299 298 297 296 295 294 294 293 293 293 293 293 292 292 290 290 290 291
310 310 311 310 312 313 315 314 318 324 326 332 331 327 320 320 312 308 306 303 300 299 299 299 298 297 297 296 295 294 293 293 293 292 292 292 291 291 291 291 290 289 290
308 311 313 311 313 314 314 315 318 325 329 331 327 324 319 313 309 308 305 301 299 298 298 297 297 296 295 294 294 293 293 292 292 291 291 291 291 291 291 290 290 288 288
309 313 312 312 313 314 315 315 320 325 328 328 325 318 314 309 306 304 301 299 298 297 297 296 295 294 294 293 293 292 292 291 291 291 291 291 290 290 290 290 289 289 288
312 312 312 312 312 313 317 316 322 325 326 325 320 311 309 307 304 300 300 298 297 296 296 295 294 293 293 292 292 291 291 290 290 290 290 290 290 290 289 289 289 288 288
310 311 312 313 314 314 318 318 324 324 324 321 311 307 304 302 299 297 297 296 295 295 294 294 293 292 291 291 291 290 290 289 290 290 290 290 289 289 289 288 288 287 287
310 312 312 312 314 316 319 322 323 321 314 305 303 299 298 296 295 295 295 295 295 294 293 293 292 291 290 290 289 289 289 289 289 289 289 289 289 289 288 288 287 287 287
309 312 312 312 315 320 321 320 318 308 303 301 298 296 295 295 295 295 294 294 294 293 292 292 291 290 289 289 288 288 289 289 289 290 289 289 289 288 288 287 286 286 286
311 312 312 312 316 316 314 311 305 302 299 296 295 295 295 295 294 294 293 293 292 292 291 290 290 289 289 288 288 289 289 289 290 289 289 289 288 287 287 286 286 286 286
314 312 312 312 313 312 309 304 301 298 296 296 295 295 294 294 293 293 292 292 291 291 290 289 289 288 288 287 287 286 288 288 288 288 288 288 287 287 287 287 287 287 286
312 311 311 311 306 303 302 300 298 297 296 295 295 294 293 292 292 291 291 291 290 289 289 288 288 288 287 287 285 287 286 286 287 287 287 287 286 286 287 286 286 287 286
311 310 308 301 298 298 297 296 296 296 295 294 293 293 292 291 291 291 290 289 289 289 288 288 287 287 287 286 285 286 285 285 286 286 286 286 286 286 286 286 286 286 286
310 307 301 297 295 295 294 294 294 294 294 293 292 292 291 290 290 290 289 289 289 288 288 287 287 286 286 286 285 285 284 285 285 285 285 286 286 286 286 286 286 286 285
302 299 296 294 294 293 294 294 293 293 292 292 291 291 290 290 289 289 289 288 288 288 287 287 286 286 285 285 285 285 285 284 284 285 285 285 285 285 286 286 286 285 285
296 295 294 294 294 294 294 293 293 293 292 291 291 291 290 289 289 288 288 288 288 287 287 286 286 285 285 285 285 285 284 284 284 284 284 285 285 285 285 286 286 284 283
296 296 296 296 296 296 295 295 294 293 292 291 291 290 289 288 288 288 287 287 287 287 286 286 286 286 285 285 285 285 284 284 284 285 284 284 284 285 285 285 284 283 283
297 296 295 295 296 297 295 292 291 290 289 288 288 288 288 289 288 287 287 286 286 286 286 285 285 285 285 284 284 285 285 285 285 284 284 284 285 285 284 283 282 283 283
296 296 294 292 292 291 289 287 287 288 288 287 288 288 287 287 287 287 286 286 286 285 285 285 284 284 283 283 283 284 284 284 284 283 283 284 283 283 282 281 282 282 280
295 293 292 290 289 289 288 287 287 287 287 287 287 287 287 286 286 286 286 286 285 284 284 283 283 282 282 282 282 283 283 282 283 283 283 282 281 281 280 280 280 280 280
296 292 290 288 286 286 286 286 287 288 287 287 287 287 286 286 286 285 285 284 284 283 281 282 281 281 281 281 283 283 283 283 283 283 281 280 279 279 279 279 279 279 279
290 288 287 286 286 286 287 288 288 288 287 287 286 286 286 285 285 285 284 284 283 282 281 281 281 281 281 282 282 282 283 283 282 281 279 279 279 279 279 279 278 278 279

GFSMW_925_thetae_051.txt.gz
Theta_e
313 316 317 318 319 320 320 322 326 333 337 340 341 340 338 338 339 337 334 334 331 332 332 328 323 317 316 313 309 304 303 301 300 301 300 301 301 302 301 300 300 299 298
312 311 315 317 317 319 319 320 324 326 335 338 340 340 340 338 339 337 335 335 333 333 332 327 320 315 313 309 305 304 301 299 297 298 299 298 299 300 301 301 301 298 297
310 309 309 313 315 317 319 320 321 324 325 328 338 339 338 337 337 336 335 334 333 332 331 323 316 312 312 307 304 303 302 300 297 296 298 297 298 294 297 300 299 297 296
308 309 309 309 313 314 316 318 320 321 324 323 326 337 336 332 334 335 334 333 332 328 324 318 311 307 306 303 302 301 301 300 298 296 295 295 295 292 292 295 296 295 295
309 310 308 310 313 314 314 315 318 320 322 324 324 329 332 332 331 329 329 324 321 321 315 313 310 307 304 302 301 299 298 298 297 297 295 294 294 294 291 291 292 294 294
308 308 309 310 311 312 312 313 316 319 321 323 326 329 332 330 321 316 315 314 313 313 312 308 305 304 302 300 298 298 297 296 295 294 293 293 293 292 291 289 289 289 291
306 307 309 309 312 313 314 313 313 315 319 322 328 330 330 329 324 315 312 310 308 307 304 305 302 301 300 298 297 296 295 294 293 293 292 292 292 291 291 290 289 288 290
306 308 310 309 311 312 313 313 313 314 315 324 328 329 327 321 319 313 311 309 305 304 302 301 300 299 298 296 295 294 293 292 292 292 292 291 291 291 290 290 289 287 287
305 308 310 310 312 313 313 313 313 314 318 327 326 323 320 321 318 312 309 307 303 301 300 300 299 297 296 295 294 293 292 292 291 291 291 291 290 290 290 290 289 288 286
306 308 310 311 312 312 314 314 313 314 325 325 323 317 318 318 314 309 305 303 300 298 299 298 297 295 294 293 293 292 291 291 291 290 290 290 290 290 289 289 289 288 287
306 306 309 311 312 312 314 315 313 319 324 318 313 315 312 311 307 305 302 300 297 298 298 297 295 294 293 292 292 291 290 290 290 290 290 290 289 289 289 288 288 287 287
308 305 309 311 311 313 315 316 319 320 313 311 312 308 307 304 303 301 298 297 296 296 295 294 293 292 291 291 291 290 289 289 289 289 289 289 289 289 288 288 287 287 286
308 309 310 310 311 316 318 317 311 306 305 307 303 300 298 299 297 297 296 295 295 295 294 293 292 291 290 290 289 289 289 289 289 289 290 289 289 288 288 287 287 286 286
312 310 310 310 312 312 309 304 301 300 299 298 297 296 296 295 295 295 295 294 294 293 292 292 291 290 289 289 288 289 289 289 289 289 288 288 288 287 287 287 287 287 286
313 313 311 310 309 305 303 300 297 297 297 297 296 295 295 294 294 293 293 293 293 292 291 292 292 290 289 288 288 287 287 287 286 286 287 287 287 287 287 287 287 287 287
312 311 309 306 302 302 300 297 297 296 296 295 295 295 294 293 292 291 291 292 292 291 290 290 290 288 287 287 286 286 286 285 285 286 286 286 286 286 286 286 286 287 287
312 309 299 298 297 297 297 296 296 295 295 294 293 293 292 291 291 292 291 290 290 290 289 288 288 287 287 286 286 285 285 284 285 285 285 285 285 285 285 285 286 286 286
306 299 296 295 294 294 295 295 295 294 293 292 292 292 291 291 290 290 290 290 290 290 288 287 287 286 286 286 285 286 285 284 284 284 285 284 285 285 285 286 286 286 285
296 295 294 294 294 294 294 293 293 292 292 291 291 291 290 290 290 289 289 288 288 288 287 287 286 286 286 285 285 285 285 284 284 284 284 285 284 284 286 286 286 286 285
294 294 294 294 294 293 293 293 292 291 291 290 290 290 290 289 289 290 290 289 288 287 287 286 286 286 285 285 285 285 285 284 284 285 284 284 284 285 286 286 285 284 283
296 296 295 295 294 293 293 293 292 291 291 291 291 291 293 293 291 288 288 287 287 287 286 286 285 285 285 285 285 285 285 285 285 284 283 283 283 285 285 285 284 283 284
295 295 294 293 294 294 293 292 292 292 292 292 292 292 290 288 287 287 287 287 286 286 285 285 285 284 284 284 284 285 285 285 284 283 283 283 284 284 283 283 282 283 283
295 293 293 294 293 292 293 292 291 293 291 287 287 288 289 287 287 287 286 286 285 285 284 284 283 282 282 282 282 283 283 283 283 283 283 284 283 281 280 280 281 281 279
293 292 292 290 288 288 287 287 286 287 288 290 290 287 287 286 286 286 286 285 284 283 282 282 281 281 281 281 283 283 282 283 283 283 282 281 280 279 279 279 279 279 279
293 291 290 289 287 287 287 288 288 290 289 287 286 287 286 286 285 285 284 284 283 282 281 281 281 281 281 281 283 283 283 283 283 282 280 279 278 278 278 278 278 278 278
290 289 287 287 286 287 287 287 288 288 287 286 286 286 285 285 284 284 283 283 282 282 282 282 282 281 282 282 282 282 283 282 281 279 278 277 278 278 277 278 277 278 278

GFSMW_925_thetae_054.txt.gz
Theta_e
312 313 315 316 317 318 318 319 319 335 338 339 339 339 339 340 339 338 336 334 332 330 329 329 327 325 323 320 315 312 306 302 300 300 300 301 301 301 301 300 300 299 298
309 309 313 315 316 316 317 318 319 319 336 338 338 338 338 340 340 338 337 334 333 331 330 330 327 324 319 315 313 311 303 301 299 299 299 300 299 300 301 300 300 299 298
310 308 308 311 314 314 316 317 317 319 323 337 338 338 337 336 338 337 336 335 333 332 331 330 329 323 317 315 312 307 304 302 297 298 299 297 298 295 297 299 300 297 295
307 308 307 308 312 313 315 316 317 318 320 330 338 336 335 334 335 336 337 336 332 331 331 330 327 320 316 314 308 303 303 303 300 296 296 296 296 293 293 295 296 295 294
307 306 305 308 311 312 313 313 314 315 319 322 330 335 334 334 335 335 335 335 331 327 329 327 322 316 312 309 304 303 303 301 300 298 295 294 294 293 292 292 292 294 294
306 305 307 309 310 311 312 312 312 314 315 320 322 328 333 333 331 330 328 327 325 323 322 318 314 311 308 305 304 301 300 299 298 296 295 294 293 292 292 290 289 289 291
304 306 308 307 310 311 312 313 313 312 313 316 321 326 331 333 332 329 325 320 318 316 316 313 309 306 307 305 301 299 298 296 295 294 293 293 292 292 291 290 289 288 289
303 304 308 308 310 311 312 312 312 313 313 313 317 323 326 329 327 325 323 319 314 312 310 309 306 306 304 301 299 298 295 294 293 292 292 292 291 291 290 290 289 287 287
305 304 307 309 310 311 311 311 312 313 313 313 316 323 325 323 324 321 319 314 311 309 306 305 303 301 300 299 297 295 294 292 292 292 291 291 291 290 290 290 289 288 287
309 306 307 309 311 311 310 311 313 314 314 313 318 322 323 321 320 317 313 311 309 306 304 303 301 298 298 296 295 293 292 292 291 291 291 290 290 290 289 289 289 288 287
308 306 307 307 311 311 310 310 313 315 314 318 319 316 315 315 315 311 309 308 306 304 301 300 299 296 295 294 293 292 291 290 290 290 290 290 290 289 289 289 288 288 287
309 307 304 306 308 309 312 314 316 317 318 317 314 312 312 310 309 308 306 304 302 299 299 298 296 295 294 293 291 290 291 293 291 289 289 289 289 289 289 288 288 287 287
308 309 308 308 309 313 314 315 316 315 312 310 310 308 307 305 304 302 300 299 297 296 296 295 295 293 291 291 291 289 289 289 289 290 289 289 289 288 288 287 287 287 287
311 312 310 310 311 307 305 302 302 302 304 305 304 302 301 301 300 298 296 295 295 295 294 293 292 290 289 289 289 290 291 291 289 289 288 288 287 287 287 287 287 287 286
314 313 312 311 307 300 298 297 297 298 298 297 297 296 296 296 295 294 293 293 293 293 294 291 289 289 291 293 291 290 288 287 286 286 286 286 286 287 288 287 287 287 286
310 312 308 304 300 296 297 298 298 298 297 296 296 295 295 294 293 292 291 292 291 292 292 292 292 292 290 289 288 287 286 285 285 285 285 285 285 285 286 287 286 287 287
309 304 297 296 295 296 296 296 295 295 294 294 294 293 292 291 290 291 292 292 292 292 291 290 288 288 289 288 287 286 285 284 284 284 284 284 284 284 284 285 286 286 286
297 296 295 294 295 295 295 294 293 292 292 291 291 291 291 291 292 293 292 291 290 289 289 290 291 289 287 288 287 285 285 284 284 284 284 284 284 284 285 285 286 286 286
295 294 294 294 294 293 293 292 292 291 291 291 291 291 293 292 291 289 289 289 289 287 287 287 286 286 286 285 285 285 285 285 284 284 284 284 284 284 285 286 286 285 284
294 294 294 293 293 293 292 292 291 291 291 291 291 293 294 291 289 288 288 288 290 291 288 286 285 285 285 286 286 286 285 285 284 284 284 283 283 284 285 286 285 283 283
296 295 294 293 293 293 293 293 292 290 290 290 291 290 289 290 290 291 292 289 287 285 285 285 285 285 284 284 285 286 285 285 284 283 283 282 283 285 285 284 283 282 283
295 294 293 292 293 293 292 290 289 290 290 290 290 291 292 292 292 291 287 286 285 285 285 284 284 283 283 283 284 284 284 284 283 283 283 283 284 283 282 282 281 282 282
294 294 293 292 291 292 293 290 290 292 292 292 292 291 290 288 286 286 285 285 285 284 284 283 282 281 281 281 282 283 283 283 283 283 283 283 282 280 280 280 281 281 279
296 295 294 292 290 292 292 292 292 291 290 288 288 288 287 286 286 285 285 285 283 282 282 281 281 281 281 282 283 283 283 283 283 283 281 280 279 279 279 279 279 279 278
292 291 289 288 287 290 290 290 288 288 289 289 287 286 285 285 285 284 283 283 282 282 281 281 281 281 281 282 283 283 283 283 282 281 279 278 278 277 278 278 278 278 278
292 290 288 287 287 288 288 287 288 290 289 286 286 285 285 284 284 284 283 284 283 283 282 282 282 282 282 282 282 282 282 281 281 279 277 277 277 277 277 277 277 277 277

GFSMW_925_thetae_057.txt.gz
Theta_e
311 311 313 314 316 316 315 316 317 324 338 338 339 339 338 338 338 338 337 336 334 333 329 328 325 327 326 324 319 313 312 307 302 300 300 300 301 301 300 301 300 299 298
307 307 310 312 314 316 315 315 315 318 331 337 338 338 338 338 339 338 338 336 335 333 330 328 327 327 326 321 317 315 310 303 300 300 299 298 299 300 300 299 299 299 298
309 308 306 310 312 313 315 316 315 315 319 334 337 337 337 336 336 336 337 337 336 333 330 328 328 328 325 321 317 315 313 303 299 299 300 297 298 296 297 299 299 299 297
307 306 306 306 309 311 313 313 314 315 315 321 336 336 335 334 334 335 336 337 336 333 330 329 329 328 324 320 316 312 310 305 301 297 297 297 297 293 293 295 297 296 295
303 305 305 306 308 309 310 311 312 313 315 317 332 336 333 333 333 334 334 335 335 332 330 329 328 326 320 316 315 309 305 304 303 300 295 295 294 294 292 291 292 294 294
302 303 306 306 307 309 310 312 312 312 312 314 321 333 334 333 333 332 331 333 333 331 330 328 326 321 319 314 312 307 304 304 302 300 298 296 294 292 292 290 290 290 292
304 304 303 305 308 309 310 311 311 312 312 313 315 321 331 332 333 332 330 328 328 327 327 326 323 319 314 311 307 304 303 300 299 297 295 294 293 293 292 291 289 288 290
303 305 304 306 308 309 310 310 311 312 312 312 312 315 320 326 330 330 329 327 325 323 322 321 319 314 309 306 304 301 299 298 295 294 293 293 292 292 291 291 289 287 287
307 305 305 308 309 310 311 310 310 311 311 311 311 312 316 323 326 328 326 323 323 321 317 315 311 308 304 303 300 297 297 294 293 293 292 292 291 291 290 290 290 289 286
309 307 304 306 309 310 311 311 310 310 311 312 313 312 314 319 324 324 321 320 317 314 313 311 308 304 303 299 297 295 293 292 292 291 291 291 290 290 290 289 289 288 288
307 307 306 307 307 307 306 309 309 310 312 314 314 314 316 320 320 318 316 314 312 310 309 307 305 303 299 297 295 293 292 291 291 291 291 291 291 290 289 289 288 288 287
308 306 305 308 309 309 312 312 313 314 315 315 315 314 315 314 314 312 310 309 307 305 305 303 300 297 296 294 292 292 292 292 292 292 290 289 289 289 289 288 288 287 287
311 308 309 310 308 309 306 305 304 306 308 309 310 310 309 309 308 306 305 304 302 300 298 297 295 294 293 292 292 292 292 291 289 289 291 290 289 289 288 288 287 287 286
311 309 309 310 310 303 300 299 299 300 302 303 304 304 304 303 303 301 300 298 297 296 295 296 295 293 291 291 291 289 289 290 290 290 289 288 288 287 287 287 287 287 287
306 306 310 310 302 298 298 298 298 298 299 299 299 299 299 298 297 295 294 293 292 291 293 292 290 290 289 289 291 293 292 290 287 286 286 286 286 287 287 288 287 287 287
300 306 301 298 296 296 295 296 296 296 296 295 295 295 294 293 292 291 290 291 291 291 291 291 290 291 293 293 291 288 287 285 285 285 285 285 285 285 285 286 286 287 287
299 296 295 295 295 294 295 294 293 293 293 292 291 291 291 291 291 291 291 291 291 291 291 293 293 291 291 290 289 286 285 284 284 284 284 284 284 284 284 284 285 286 286
297 296 295 295 295 295 294 294 293 293 292 292 291 292 292 291 291 291 292 292 293 293 293 292 292 291 290 289 288 285 285 285 284 284 284 284 284 284 284 285 285 285 286
295 294 294 294 294 293 293 293 292 292 292 292 292 292 291 291 291 290 290 291 291 291 291 291 288 287 288 287 286 285 285 285 284 284 284 284 283 283 285 285 286 285 284
294 294 294 293 292 292 292 292 292 292 291 291 290 290 291 291 290 291 291 291 292 291 291 285 286 285 285 287 286 286 285 284 284 284 283 282 283 284 285 286 284 283 282
295 294 294 294 293 293 292 291 290 289 290 290 291 291 291 291 292 291 291 290 289 286 284 284 284 284 284 285 286 286 285 284 284 283 283 283 283 285 284 284 282 282 283
294 294 293 293 293 292 292 290 289 290 291 291 292 291 291 291 291 291 288 286 284 284 284 284 283 283 283 282 283 284 285 284 283 283 283 283 284 283 282 281 281 282 282
294 294 293 292 293 292 291 290 289 291 291 291 291 291 291 290 287 286 285 284 284 284 283 283 282 281 281 281 283 283 284 283 284 283 283 282 281 280 279 280 281 281 280
294 294 293 292 292 291 291 291 291 292 292 291 289 287 286 285 285 285 284 284 283 282 281 281 280 281 281 282 283 283 283 283 282 282 281 279 278 278 279 279 280 279 279
294 292 291 289 290 292 291 292 292 292 289 287 286 285 285 285 284 283 283 282 282 282 281 281 281 281 281 282 283 283 283 282 281 281 279 278 278 278 278 278 279 278 278
290 289 290 289 289 290 290 290 289 289 288 286 286 285 284 284 284 283 284 284 284 283 283 282 282 282 282 282 282 282 281 280 280 278 277 277 277 277 277 277 277 278 277

GFSMW_925_thetae_060.txt.gz
Theta_e
310 311 313 313 314 314 315 315 316 322 338 339 337 337 336 336 337 336 336 335 335 332 327 324 328 330 330 326 326 319 315 311 306 301 300 300 301 301 301 302 302 300 299
307 306 309 311 311 313 314 314 315 316 329 337 337 337 337 336 337 337 337 337 336 334 332 329 327 328 327 324 324 321 312 307 303 301 299 298 299 300 299 300 300 299 298
307 307 305 308 309 310 312 313 314 314 317 330 335 337 337 336 334 336 336 337 336 335 334 332 328 328 325 325 324 318 316 308 302 301 302 297 299 296 297 299 299 298 298
300 302 304 305 307 309 310 311 312 313 314 324 334 335 335 335 334 335 336 336 336 336 335 333 331 328 325 324 323 319 314 311 304 299 299 299 299 296 293 294 297 297 296
302 303 304 305 306 307 307 309 310 311 313 314 331 334 334 334 334 334 334 333 334 335 334 333 331 328 325 323 322 319 311 310 308 303 297 295 295 294 293 293 292 294 294
305 305 305 307 308 308 308 308 308 310 311 313 316 329 332 333 333 333 333 333 332 333 332 332 330 329 325 323 321 318 313 310 307 304 301 298 296 293 292 291 290 291 293
305 305 306 304 307 309 309 310 309 309 310 311 312 316 326 331 332 332 332 330 328 329 331 331 329 326 324 320 318 314 311 307 304 301 300 297 295 295 294 292 289 289 290
306 305 304 306 308 309 310 310 309 310 310 310 311 314 318 327 331 331 330 329 328 326 328 326 324 322 319 314 312 311 308 304 300 299 297 295 294 293 293 292 290 288 287
307 306 305 306 307 310 310 308 307 309 309 309 310 310 311 314 317 322 327 328 327 325 323 322 322 319 316 313 310 307 303 298 297 295 294 293 292 292 291 291 291 290 287
307 307 306 306 308 309 310 311 308 308 309 309 311 312 312 312 314 317 321 323 323 320 318 316 315 313 311 309 306 302 297 295 293 293 292 291 291 291 290 290 289 289 288
307 307 306 306 308 309 311 311 311 311 313 313 313 313 313 314 316 318 319 319 318 316 313 310 309 307 306 302 300 296 293 292 291 291 291 290 291 292 291 290 289 288 288
308 307 305 306 308 309 306 304 305 306 308 310 311 312 311 311 312 313 313 313 312 310 309 306 304 300 299 297 295 293 292 291 291 291 292 290 290 290 288 289 288 288 287
309 307 306 306 307 303 300 300 301 303 306 308 309 307 307 306 307 309 309 308 306 304 301 301 298 296 295 294 292 292 292 292 291 290 290 291 291 289 288 288 287 287 286
304 301 302 304 301 299 298 298 299 299 301 304 304 304 304 304 302 302 300 299 298 298 296 294 293 292 292 291 291 291 290 290 291 291 291 290 288 287 286 286 287 287 287
299 298 298 296 296 297 296 297 297 297 298 299 300 298 298 299 298 296 296 294 293 292 292 292 292 292 292 292 291 291 293 293 291 289 287 286 286 287 287 288 287 287 287
299 298 295 296 296 295 295 294 295 295 296 295 293 293 293 292 292 292 292 292 291 291 291 291 290 290 291 292 294 293 290 288 285 285 284 284 284 284 284 285 286 287 287
298 297 295 296 295 294 294 293 293 293 292 292 292 292 292 291 291 291 291 290 290 290 290 291 292 293 292 292 293 291 288 285 284 284 284 284 284 284 284 284 285 285 286
296 295 295 295 295 294 294 294 293 293 292 292 292 291 291 291 291 291 290 291 292 293 293 293 293 292 291 290 286 285 284 284 284 284 284 284 284 283 284 285 285 285 286
295 294 294 293 293 293 293 293 293 292 292 291 291 291 291 291 291 291 291 292 293 292 291 291 291 289 289 288 287 285 285 285 284 284 284 283 283 283 285 286 286 284 283
294 294 293 293 292 292 292 292 291 291 290 290 290 291 290 291 291 291 291 291 291 290 289 287 287 287 287 287 286 286 285 285 284 284 283 283 283 285 285 285 284 282 282
294 294 294 294 293 292 292 290 290 290 290 290 290 290 291 292 291 291 291 291 290 287 285 284 283 284 285 287 287 286 285 284 284 283 283 283 283 284 284 283 282 281 283
294 294 294 293 292 291 291 290 289 290 291 291 291 292 292 291 291 291 289 285 284 283 283 283 283 283 283 283 285 285 285 284 284 283 283 282 283 282 281 281 281 283 282
294 293 293 293 292 292 290 290 290 291 292 292 291 291 291 290 288 285 284 284 284 283 283 282 281 281 281 282 283 283 284 283 283 282 282 281 280 279 279 280 281 280 280
293 293 293 293 291 291 291 291 291 292 292 291 290 287 285 284 284 284 284 284 283 282 281 281 281 281 282 283 283 283 282 282 282 281 281 279 278 279 279 280 280 280 279
295 293 292 292 291 291 291 291 292 292 290 286 285 285 284 284 283 282 282 282 282 281 281 281 281 281 281 282 283 283 282 282 281 280 278 278 278 279 279 279 279 279 279
292 290 290 291 291 291 291 292 291 290 287 285 284 284 284 283 283 284 284 284 284 284 283 283 282 282 282 282 282 282 281 280 280 278 277 277 278 278 278 278 278 279 279

GFSMW_925_thetae_063.txt.gz
Theta_e
311 311 313 314 313 314 313 314 315 318 335 338 336 335 336 336 335 335 335 335 334 333 332 328 325 327 329 331 326 324 321 314 309 304 300 300 300 300 301 303 303 301 301
308 307 308 309 310 312 313 313 314 315 323 335 335 336 336 336 336 335 335 335 335 335 334 332 327 324 328 330 328 324 317 311 308 304 302 305 301 300 300 301 302 301 300
304 303 304 306 308 308 310 311 313 314 315 327 335 336 336 335 335 334 334 337 336 336 335 334 331 325 326 329 329 324 322 310 305 304 305 304 308 300 298 299 300 299 299
305 304 305 305 305 306 307 308 310 311 313 315 333 334 334 334 334 333 334 336 336 335 336 335 332 329 325 327 328 324 321 317 309 301 302 301 301 304 300 295 297 298 297
306 307 306 306 306 307 307 307 308 309 311 312 325 331 333 333 333 333 333 334 335 334 334 334 333 332 330 327 327 322 319 317 312 308 300 297 297 296 297 299 294 295 296
308 307 306 307 308 309 309 308 307 307 308 309 311 328 332 333 332 333 333 333 334 331 330 331 331 330 330 328 326 323 319 316 313 312 309 305 298 297 296 294 292 295 293
309 309 308 307 308 309 309 309 309 309 308 309 309 313 329 331 332 331 331 331 330 329 329 329 328 328 327 325 322 318 317 314 311 311 308 305 301 299 296 296 292 292 290
309 309 308 306 308 310 310 310 309 308 309 308 309 310 313 320 328 330 330 330 330 329 327 325 325 326 325 322 319 316 314 312 309 306 303 300 298 296 296 294 293 291 289
309 309 308 307 307 309 310 311 311 310 309 309 309 310 310 310 314 321 326 328 328 328 326 324 322 320 318 316 315 313 312 309 307 302 298 296 293 293 293 292 291 292 292
309 309 308 307 307 308 309 309 309 310 310 311 312 312 312 312 312 312 315 318 321 323 322 320 318 317 314 312 312 310 307 306 300 297 294 292 291 291 291 291 291 292 291
310 309 307 306 308 308 306 305 305 307 308 309 310 311 312 312 313 314 315 316 316 317 317 317 315 312 311 310 308 305 301 298 293 292 292 291 290 291 292 291 290 290 289
308 305 304 305 306 302 302 301 302 303 305 307 308 308 309 309 310 310 312 311 313 313 313 312 309 307 305 302 301 297 294 292 290 290 291 292 293 293 292 292 290 289 288
303 302 304 305 301 298 298 298 299 300 302 305 306 306 307 309 309 309 308 309 309 308 306 303 301 298 296 295 294 292 291 291 291 292 293 292 292 292 291 290 288 287 286
301 299 299 298 297 297 296 296 296 297 299 301 302 302 302 302 301 300 299 299 299 298 297 295 294 293 292 292 291 291 292 293 293 293 293 293 292 291 289 287 286 287 287
300 299 297 297 296 295 294 294 294 294 295 295 295 295 296 297 296 295 294 294 292 292 291 292 292 291 291 292 292 292 292 293 293 292 292 289 287 287 287 287 287 287 286
300 298 296 296 295 294 293 293 293 293 293 293 293 293 293 293 293 293 293 293 292 292 292 292 292 292 292 293 293 294 293 292 290 285 284 284 285 285 284 286 286 287 287
299 297 296 295 294 294 294 293 293 293 293 292 292 292 292 292 292 292 292 291 291 292 292 292 292 292 292 292 293 293 291 288 285 284 284 284 284 284 283 283 285 285 286
296 295 295 295 294 294 294 294 293 293 293 292 292 291 291 291 291 291 291 291 291 291 291 292 292 291 290 289 286 286 284 284 284 284 284 284 283 283 285 285 285 286 285
294 294 294 293 293 293 293 293 293 292 292 291 291 291 290 290 290 290 290 291 292 292 291 290 289 289 288 287 285 285 284 284 284 284 283 283 283 284 286 286 285 284 283
294 294 293 293 293 292 293 292 291 291 290 290 290 291 291 291 291 291 291 291 290 289 288 288 287 287 287 287 287 285 285 284 284 283 283 283 284 285 285 285 283 282 282
294 294 294 293 293 292 291 291 290 290 290 291 291 291 291 291 291 291 290 290 289 287 284 284 284 286 287 288 287 285 284 284 284 283 283 282 284 284 283 283 282 282 284
295 294 294 293 292 291 291 290 289 290 291 292 291 291 291 291 291 290 286 284 283 283 283 283 283 283 284 284 285 285 285 285 283 283 282 282 282 281 281 281 282 283 282
294 294 294 293 292 290 291 291 290 291 291 291 291 291 291 289 285 284 284 283 283 283 282 281 281 281 282 283 284 284 283 283 282 282 282 280 280 279 280 280 281 280 280
293 293 293 292 291 291 291 292 291 292 292 291 288 286 285 284 284 284 284 283 283 282 281 280 281 281 282 283 283 283 282 282 281 281 280 278 279 279 280 280 280 280 279
294 294 293 292 290 291 291 292 292 293 291 286 285 284 284 283 282 282 282 282 281 281 281 281 281 281 282 283 283 283 282 282 281 280 278 278 279 279 279 279 279 279 279
293 292 293 292 292 292 292 292 292 291 286 285 284 284 283 283 283 284 284 284 284 284 283 282 282 281 282 282 282 282 281 280 280 278 277 277 277 277 277 278 278 278 278

GFSMW_925_thetae_066.txt.gz
Theta_e
316 315 315 315 316 316 316 317 317 323 333 339 337 336 336 338 336 338 338 336 334 332 331 331 331 330 330 332 330 325 320 316 316 311 309 306 305 304 305 307 307 305 304
314 313 311 311 313 314 315 316 316 317 322 332 337 337 338 337 337 335 336 337 336 334 332 332 331 330 329 330 330 326 320 319 312 315 316 315 308 304 303 305 305 305 303
311 310 310 309 310 311 312 314 315 315 317 323 330 335 335 336 336 335 335 334 335 335 334 332 332 331 329 328 329 325 320 318 311 313 318 317 319 309 304 303 304 303 302
312 312 312 310 309 310 309 309 310 312 313 317 325 331 332 334 334 335 335 336 334 334 334 333 333 331 328 327 327 324 321 320 313 308 306 306 310 312 308 301 302 301 301
313 313 312 311 311 311 310 309 308 309 311 312 319 328 331 331 332 334 334 335 334 333 331 332 332 331 328 327 326 323 321 319 318 312 307 305 304 302 305 312 300 298 298
315 313 312 313 313 313 312 311 310 309 308 311 313 321 327 330 331 332 333 333 333 331 331 330 329 329 328 326 325 322 320 319 318 312 310 307 306 302 303 303 302 301 296
316 315 314 313 313 314 313 311 311 311 310 310 310 312 319 326 329 330 331 332 332 330 329 329 327 328 328 326 324 321 318 317 317 314 311 309 307 304 301 301 299 299 293
316 315 315 314 312 313 313 314 313 312 310 310 310 311 313 316 324 328 329 330 330 330 328 328 326 326 325 324 322 320 317 315 314 312 309 310 306 301 298 297 296 295 293
315 315 314 313 311 312 312 312 311 312 312 313 313 312 312 312 314 320 324 326 327 328 328 326 325 324 324 322 320 317 315 313 311 308 307 305 299 296 294 295 295 297 295
315 313 312 312 312 312 310 308 308 309 310 310 311 312 313 313 314 315 316 318 320 321 320 320 320 321 320 319 316 314 312 309 307 305 303 296 295 297 294 292 292 293 293
314 311 311 310 311 308 306 306 305 306 307 308 309 309 310 310 311 312 312 312 313 313 314 315 316 316 315 313 311 310 308 304 301 298 297 294 291 291 292 293 293 293 293
310 310 311 311 307 305 304 304 303 304 305 306 308 308 309 310 310 310 309 310 311 311 312 312 311 309 308 306 305 301 298 299 294 292 291 291 291 293 294 294 294 292 291
309 309 308 306 304 303 302 302 301 302 303 305 306 306 306 306 306 305 305 304 304 303 304 305 304 302 301 300 297 295 293 292 291 291 291 292 293 293 293 293 292 291 289
307 307 306 304 302 300 299 299 299 299 300 301 301 301 299 300 299 298 297 297 296 295 295 294 293 294 293 293 292 292 292 291 292 293 293 293 294 293 292 291 289 287 287
306 304 302 303 301 300 298 298 297 297 298 298 298 297 296 295 295 295 294 293 293 293 292 292 292 292 292 291 291 292 293 294 293 293 292 292 291 290 288 288 288 288 288
304 302 300 300 300 299 298 297 296 296 296 296 296 295 294 294 293 293 293 292 292 292 292 292 293 293 293 293 293 293 293 293 292 291 290 287 286 287 287 286 287 287 288
303 300 299 298 298 298 297 297 296 296 295 294 294 294 294 293 292 292 291 292 292 292 292 292 292 292 292 292 292 292 291 290 287 285 284 285 285 284 284 284 285 286 286
301 299 298 297 297 297 297 296 296 295 294 294 293 293 292 292 290 291 291 291 292 292 291 291 291 290 288 289 289 286 285 284 284 285 285 285 284 284 285 286 287 287 286
299 297 296 296 295 296 295 295 295 294 294 293 292 292 291 291 291 291 290 291 291 290 290 289 288 288 287 286 285 285 285 285 285 284 284 284 284 284 286 287 287 286 285
297 296 295 295 295 294 294 294 293 292 292 291 291 291 291 291 290 290 290 290 290 289 289 288 288 288 288 288 286 285 285 285 285 284 284 283 285 285 285 285 285 284 283
296 295 295 295 294 293 293 292 291 291 291 291 291 291 291 291 291 291 291 290 289 288 286 286 286 287 288 288 287 285 285 285 285 284 284 283 284 283 283 283 283 283 284
296 295 295 294 293 293 291 291 290 291 291 292 291 291 291 291 290 290 287 286 285 285 284 284 284 284 285 286 286 285 285 285 284 283 283 283 282 281 281 282 283 283 283
295 294 294 294 293 292 291 291 291 291 291 292 291 291 290 287 285 285 285 284 284 284 284 283 283 283 283 284 284 284 283 283 283 282 282 281 280 280 281 281 281 281 281
295 294 294 293 292 292 292 292 291 291 292 290 289 286 285 284 284 284 284 284 284 284 283 283 283 283 283 284 284 283 283 282 282 281 280 279 279 280 280 281 281 281 281
294 294 294 293 292 292 292 292 292 292 290 287 286 285 284 284 283 283 283 283 282 283 283 283 283 283 283 284 283 283 283 282 282 281 279 280 280 281 281 281 281 281 281
295 295 295 293 293 293 293 292 290 290 287 286 285 284 284 285 285 286 286 285 284 284 283 283 282 282 282 283 282 282 281 280 280 279 279 280 281 281 281 281 281 281 280

GFSMW_925_thetae_069.txt.gz
Theta_e
318 317 317 318 318 319 319 320 321 322 331 336 341 338 339 339 340 340 339 338 336 335 333 333 332 332 332 332 331 330 327 324 324 320 314 313 310 309 308 310 310 309 309
317 317 316 315 316 317 318 318 319 320 321 328 338 338 337 336 337 338 338 339 338 336 335 334 334 333 332 332 331 330 328 324 322 318 316 318 313 309 307 308 309 308 307
315 314 313 313 313 314 315 316 318 318 319 320 326 337 337 338 338 337 336 336 337 338 336 334 334 333 333 332 332 330 329 324 320 318 321 322 322 311 308 306 307 307 306
313 313 314 313 312 312 312 313 314 316 317 318 319 325 333 336 336 336 336 335 336 335 336 336 334 334 333 332 331 331 330 324 321 315 318 318 313 317 311 306 305 306 305
315 315 314 314 314 314 313 312 311 312 313 314 316 320 325 331 332 332 333 335 336 335 333 333 334 333 334 333 331 330 330 324 322 316 314 312 310 308 310 310 304 304 303
315 315 315 315 316 316 315 314 313 311 311 312 314 315 321 327 330 330 331 332 333 335 334 331 330 331 332 331 331 329 328 325 324 318 317 313 314 309 306 310 305 302 300
317 317 316 315 315 316 316 315 314 313 312 312 312 313 317 322 326 328 330 330 332 332 331 331 329 328 328 329 328 328 327 324 323 322 317 313 313 310 308 306 301 300 295
318 317 317 316 315 315 315 315 315 315 314 313 313 312 314 314 317 323 327 329 329 330 331 329 327 327 327 327 327 327 326 323 322 320 317 313 309 307 304 302 299 297 294
317 317 316 315 315 315 314 312 312 313 313 314 314 315 314 314 314 317 321 324 326 327 327 326 325 324 324 325 326 325 323 321 319 318 316 310 304 301 299 299 299 300 301
317 315 314 313 314 313 311 310 310 310 311 312 312 313 314 314 315 316 317 318 319 320 321 320 321 320 319 320 321 321 319 317 315 314 312 305 301 300 299 297 299 299 296
316 314 314 313 312 310 309 308 308 308 309 310 311 312 312 312 313 314 313 313 314 314 314 314 314 314 315 316 315 315 314 313 310 305 302 299 298 297 294 294 294 296 296
313 313 313 311 309 308 307 306 306 306 307 309 310 310 310 311 310 310 309 309 310 310 309 311 310 309 310 311 310 309 306 304 300 298 297 295 293 293 294 293 293 294 294
312 311 310 309 307 306 305 304 303 304 304 306 307 305 305 305 304 302 301 302 302 300 299 299 299 298 299 299 299 299 297 296 295 294 294 292 292 293 293 293 292 292 291
311 310 309 308 306 304 303 302 301 301 302 303 303 301 301 300 299 298 297 296 295 295 295 294 294 294 294 294 293 293 292 292 291 292 292 292 293 293 292 291 290 289 288
310 308 308 306 305 303 302 301 300 300 300 301 300 299 298 296 296 295 295 294 294 293 293 293 293 292 292 292 292 292 292 292 292 293 292 291 291 291 291 289 288 289 289
307 305 304 304 304 302 301 300 300 299 299 299 298 297 297 296 295 295 295 294 294 294 293 293 293 293 293 293 292 292 293 292 291 290 289 288 288 288 288 287 287 288 288
306 304 303 302 301 301 300 300 299 298 297 297 297 296 295 294 294 293 293 291 291 292 292 292 293 291 291 291 292 292 290 289 288 286 286 286 285 284 284 285 286 286 287
303 303 302 300 300 300 300 299 298 297 296 296 295 295 294 292 291 291 290 290 291 291 291 290 290 288 288 290 291 290 288 286 285 285 285 285 285 284 285 286 287 287 287
302 301 300 299 298 299 298 297 297 296 296 294 293 294 292 291 290 290 290 290 290 289 289 289 288 288 287 287 286 285 285 285 285 284 285 285 285 285 287 287 287 287 286
300 299 297 297 297 296 296 296 296 295 294 293 292 291 291 291 291 291 290 289 289 289 289 288 289 289 288 287 286 286 286 286 286 285 285 284 285 285 285 285 285 285 284
298 296 296 296 295 295 295 294 293 292 291 291 291 291 290 290 290 291 290 290 290 288 288 288 289 289 288 287 287 286 286 285 285 285 284 284 284 283 283 283 283 283 284
297 296 296 295 295 294 293 291 291 291 291 291 291 291 291 290 290 291 289 287 287 286 286 286 285 286 286 286 286 285 285 285 284 284 283 283 282 282 282 282 283 284 284
298 296 295 295 293 292 292 291 291 291 291 291 291 291 291 289 287 287 287 286 286 286 285 284 284 284 284 285 284 284 283 284 283 283 282 281 281 281 282 282 282 282 282
297 297 296 294 293 292 292 292 292 292 293 293 292 289 287 286 286 286 286 286 285 285 284 284 284 284 284 285 285 284 284 283 283 283 282 280 280 281 281 281 282 282 282
297 296 295 294 293 293 292 293 293 293 293 290 287 287 286 286 285 285 285 284 284 284 284 284 283 284 284 284 284 283 283 282 282 281 280 280 281 282 282 282 282 282 282
297 295 296 294 293 293 294 294 294 293 290 288 287 286 285 286 287 286 286 285 285 283 283 282 283 283 282 283 283 282 282 281 280 280 280 281 282 282 282 282 282 282 282

GFSMW_925_thetae_072.txt.gz
Theta_e
317 317 317 317 317 319 321 322 323 326 339 342 342 340 340 342 342 341 339 337 335 333 332 332 333 332 332 332 331 330 328 327 325 322 318 315 314 312 311 312 312 312 312
314 315 316 316 316 316 318 318 319 321 322 330 341 341 339 338 339 340 341 340 338 336 334 333 333 332 332 332 332 331 330 328 325 322 314 311 312 311 310 310 310 310 310
312 311 312 313 313 313 314 316 318 318 319 320 324 340 338 336 336 335 337 339 339 339 337 335 334 333 333 332 332 332 330 328 325 324 317 317 317 309 309 309 308 309 309
313 312 312 313 312 313 312 313 314 315 317 318 319 327 338 337 338 338 336 335 335 335 336 338 336 334 334 333 332 332 330 329 324 322 319 320 316 311 307 307 307 308 308
311 312 313 314 314 314 313 312 311 312 314 315 315 317 318 323 335 337 336 336 335 335 335 333 335 336 334 334 333 332 331 330 326 321 318 317 317 312 309 304 305 306 307
312 313 315 316 316 316 314 314 312 311 311 311 312 313 315 318 324 330 331 330 331 333 335 335 332 331 331 332 332 332 331 330 328 324 319 318 317 313 309 309 303 303 304
314 313 314 314 315 316 316 316 315 314 313 312 312 312 313 315 319 324 329 330 331 331 332 332 331 329 328 327 328 329 331 330 329 325 322 317 317 316 313 310 304 302 297
315 315 315 315 315 315 314 313 313 314 314 314 314 313 312 313 314 316 320 325 328 329 330 330 330 328 327 326 326 327 328 329 328 327 324 320 315 314 311 310 305 300 294
315 314 314 315 315 314 312 311 311 312 312 313 313 314 315 315 315 315 316 319 323 324 325 326 326 324 324 324 326 326 325 327 326 325 322 319 314 310 308 306 305 305 301
315 313 312 313 313 311 310 309 309 310 310 311 311 312 312 313 314 315 316 317 317 318 319 320 319 319 319 317 317 320 321 321 321 319 318 314 309 304 301 300 301 303 301
313 312 312 312 310 309 308 307 307 307 308 310 311 311 312 312 312 311 311 312 313 313 313 313 312 311 312 313 314 314 316 316 315 313 310 306 303 301 300 300 300 300 299
311 312 311 310 308 307 306 304 305 305 306 308 308 307 307 306 305 304 305 306 306 306 307 308 307 307 308 308 308 308 307 306 305 303 301 300 298 296 296 296 296 296 296
311 311 308 307 306 305 303 303 302 302 304 304 303 302 302 301 299 299 299 299 300 300 300 301 301 300 299 300 300 300 300 298 297 296 296 294 295 294 293 293 294 293 293
310 309 307 305 304 303 302 301 301 301 302 302 300 299 298 297 297 296 296 296 296 297 297 296 296 295 295 295 295 295 294 294 293 293 292 292 293 293 293 292 291 291 290
309 308 306 304 304 302 301 301 300 300 300 300 298 297 297 296 295 295 294 294 294 294 294 294 294 293 293 293 293 292 292 292 292 292 292 292 292 291 291 290 289 289 289
308 305 304 303 302 302 301 300 299 298 298 298 297 297 296 295 294 294 294 294 293 293 293 293 293 293 293 292 291 292 292 292 290 289 289 289 290 289 288 288 289 288 288
307 305 302 302 302 301 301 299 298 298 297 297 296 295 294 293 293 292 291 290 291 291 291 291 292 291 292 291 292 293 292 290 289 288 287 286 285 285 285 286 286 286 287
305 303 302 300 300 300 300 299 298 297 296 295 295 294 292 291 291 291 289 290 290 289 289 289 289 290 290 291 291 291 290 289 288 287 286 285 284 284 286 287 287 287 287
302 302 301 300 300 300 299 298 297 296 294 294 294 292 291 290 290 290 289 289 289 289 288 289 288 287 288 288 286 286 285 285 284 284 284 285 285 286 287 286 287 286 285
300 299 298 298 298 297 297 296 296 295 294 293 292 291 291 290 290 290 289 290 289 288 289 289 289 287 287 287 287 286 286 285 285 285 284 285 285 285 285 284 284 284 283
298 297 297 297 296 296 296 295 293 292 292 291 291 290 290 291 290 289 290 290 288 288 288 289 288 288 287 287 287 286 285 285 285 284 284 283 284 283 283 283 282 283 284
297 296 296 296 295 295 294 292 291 291 291 291 291 290 290 290 291 290 289 287 287 287 286 286 286 286 286 286 286 285 285 284 283 283 283 283 283 282 282 282 283 284 284
297 296 295 295 294 293 293 292 291 291 291 291 291 291 291 290 288 287 287 286 286 285 284 284 284 284 284 284 284 284 284 283 283 282 282 282 281 281 282 282 283 282 282
297 296 295 294 292 292 292 292 292 292 292 292 292 290 288 287 287 286 286 286 285 284 284 284 284 284 284 284 284 284 283 283 282 282 282 281 281 281 282 282 282 282 282
297 296 295 294 292 292 292 292 292 293 293 293 289 287 287 286 285 285 285 285 284 284 284 284 283 283 284 284 284 283 282 282 281 282 280 280 281 281 282 282 282 282 282
297 296 295 294 292 292 293 293 293 293 292 288 287 286 286 285 285 285 285 285 283 283 283 283 283 283 282 283 282 282 282 281 281 280 279 280 281 281 281 281 281 281 281

GFSMW_925_thetae_075.txt.gz
Theta_e
313 315 317 318 319 319 323 336 335 342 342 341 340 338 341 340 339 338 338 336 334 333 332 331 330 331 332 333 332 331 328 327 327 326 321 320 317 315 315 315 314 314 315
310 310 313 315 316 316 317 319 320 326 341 341 341 341 339 341 341 340 340 338 336 334 333 332 331 331 332 332 332 332 330 328 327 324 316 312 313 314 313 313 313 312 313
311 309 310 311 312 313 313 314 316 317 318 328 341 341 341 339 338 338 339 340 339 338 334 332 332 332 332 332 332 331 331 329 328 326 321 313 314 310 312 312 311 311 311
310 310 311 312 312 312 312 312 313 315 316 317 318 336 339 338 338 335 333 330 334 337 338 337 335 332 332 332 332 332 331 330 327 324 323 322 318 311 311 309 309 309 309
310 311 311 313 314 314 313 312 311 312 313 314 314 315 328 335 335 336 336 337 336 334 332 332 333 334 335 333 333 332 331 330 328 326 324 319 319 313 309 310 307 307 308
311 312 313 315 315 315 314 314 312 312 311 311 311 312 313 314 315 321 332 337 335 335 333 334 333 333 332 333 334 333 332 331 330 328 325 322 319 317 310 308 305 305 304
311 312 312 313 315 315 314 314 314 314 313 313 312 312 312 313 314 317 322 328 329 330 330 332 332 332 330 328 328 328 328 328 330 329 326 323 320 319 317 312 305 303 300
311 313 312 313 314 313 312 312 312 313 313 313 314 314 312 313 314 315 317 322 325 327 329 331 331 331 330 327 327 326 326 326 326 328 326 323 319 318 317 315 308 301 297
312 312 312 312 312 311 310 310 310 310 311 312 312 313 314 314 315 315 316 318 320 323 325 327 328 326 324 322 323 323 324 325 325 325 324 322 318 314 311 310 310 310 302
312 310 310 310 310 309 308 308 308 309 310 311 311 312 312 312 313 314 314 315 316 316 318 318 318 319 319 318 317 317 317 317 317 319 319 317 314 310 308 306 305 304 304
311 309 309 309 308 307 306 306 306 307 308 309 309 309 309 309 310 310 310 311 312 312 313 312 312 311 311 311 311 312 311 312 313 313 311 309 305 304 302 302 301 301 302
310 310 308 307 306 305 304 304 304 305 306 306 306 305 305 304 304 303 304 305 306 307 308 308 308 307 306 307 306 307 307 307 307 305 303 301 300 299 298 298 298 298 298
310 308 306 304 304 303 302 302 302 303 303 303 303 302 301 300 299 299 299 300 301 301 302 302 301 301 301 301 301 302 302 301 299 298 298 296 296 295 295 295 294 295 295
310 307 304 303 303 302 301 301 301 301 301 301 300 298 298 297 297 297 297 298 298 298 298 297 297 296 296 297 297 297 296 296 295 295 294 294 293 293 293 293 292 292 292
309 307 304 301 302 301 300 300 300 300 300 299 298 296 296 295 295 295 295 295 295 294 294 294 294 294 294 294 294 294 293 292 292 292 292 292 292 292 291 291 290 289 289
308 306 304 301 301 300 300 299 298 298 298 297 296 295 295 294 294 294 294 293 292 292 293 293 293 292 292 291 292 292 292 292 292 291 291 290 290 289 289 289 289 288 288
305 304 302 301 300 300 300 299 298 297 297 296 295 294 294 293 292 292 291 290 291 292 292 291 291 292 292 292 292 292 292 291 290 290 289 289 287 286 285 286 287 287 287
304 302 301 301 300 300 299 298 297 296 296 295 294 293 292 291 290 290 289 289 290 290 289 290 291 291 291 290 290 291 290 289 288 287 285 285 285 285 287 287 287 287 287
302 302 301 300 300 300 298 297 296 295 295 294 293 292 291 290 290 290 290 290 289 288 288 289 289 288 288 286 286 285 285 284 284 284 285 285 285 287 287 286 286 286 285
300 300 300 299 299 298 298 297 295 294 293 293 292 291 291 291 290 290 289 289 288 288 288 287 286 287 287 288 287 286 285 285 284 284 284 285 285 285 284 284 283 283 283
298 298 298 298 297 297 297 295 294 293 293 292 292 291 291 290 290 290 289 288 289 289 288 288 287 287 287 287 287 285 285 284 284 284 283 283 284 283 283 283 282 282 284
297 297 296 296 296 296 296 294 293 292 292 292 290 290 291 290 289 290 288 288 287 287 287 286 286 286 286 285 286 285 285 283 283 283 283 283 283 282 282 282 283 284 284
296 296 296 295 295 295 294 292 292 292 291 291 290 291 291 291 291 289 287 286 286 285 284 284 284 284 284 284 285 285 284 284 283 282 283 283 281 281 281 283 283 283 282
295 296 295 294 293 293 292 292 292 291 291 291 292 291 291 289 287 287 286 286 285 284 284 284 284 283 284 284 284 284 283 283 282 282 281 281 281 281 282 282 282 282 282
296 296 294 293 293 292 292 292 292 292 292 292 292 290 288 286 286 286 286 285 285 284 284 284 284 283 283 284 284 283 282 282 282 282 280 280 280 281 282 281 281 281 281
296 295 294 294 292 292 292 292 292 292 293 293 290 286 286 286 285 285 284 284 284 284 284 283 283 282 282 283 282 282 282 282 281 280 279 280 280 281 281 281 281 281 281

GFSMW_925_thetae_078.txt.gz
Theta_e
311 314 315 317 321 324 335 339 341 340 340 340 339 339 340 340 338 336 336 335 334 332 331 331 331 330 330 330 329 330 328 327 326 327 325 324 323 321 318 316 316 315 316
310 309 312 313 315 316 325 335 338 339 340 341 340 339 338 340 340 339 338 336 335 334 332 332 332 331 330 330 331 332 331 330 328 325 318 317 319 320 320 316 314 314 315
310 309 309 311 312 313 314 317 319 322 336 340 340 340 339 338 339 340 339 339 337 336 333 332 332 331 330 330 331 332 331 330 328 326 324 313 315 312 316 316 314 312 313
308 308 309 311 312 312 312 312 313 314 316 319 330 340 340 339 339 338 337 337 337 338 338 337 333 331 331 330 331 331 331 330 328 325 324 322 317 313 314 312 312 312 310
308 309 310 312 313 313 312 312 312 312 312 312 314 320 337 338 338 336 336 336 334 333 333 334 334 334 333 334 332 331 330 330 329 328 326 323 319 314 312 317 311 309 308
309 310 313 314 314 314 314 311 311 312 311 311 311 312 314 320 325 324 324 328 333 335 335 333 332 332 331 331 332 332 331 331 331 328 327 325 321 319 314 310 308 308 306
310 311 312 313 314 313 313 313 313 313 313 313 312 311 311 312 313 314 316 322 329 333 335 332 332 333 332 331 330 327 328 328 328 327 327 327 325 323 320 317 310 307 302
309 310 311 312 313 312 311 312 312 312 312 313 313 313 312 313 313 314 317 321 326 327 329 330 331 332 331 331 329 326 325 325 325 326 326 326 325 321 320 317 313 304 300
311 310 310 311 310 310 310 310 310 310 311 311 312 313 313 314 314 315 317 320 323 324 327 329 329 329 326 324 323 322 321 321 320 320 320 321 320 318 316 314 313 311 306
311 309 309 309 308 308 308 308 309 309 310 311 311 311 312 312 312 313 314 315 316 317 319 321 321 320 320 321 320 317 316 316 315 314 315 313 312 310 309 308 307 307 308
310 309 308 307 307 306 306 306 307 308 309 308 308 309 309 309 309 309 309 310 311 312 313 312 312 312 311 312 311 311 311 310 309 309 308 308 307 305 303 302 302 302 302
309 308 306 305 305 304 304 304 304 306 305 305 306 305 304 304 305 304 304 304 306 307 308 308 307 307 307 307 305 306 306 306 306 305 305 303 301 301 300 300 299 298 298
309 307 304 303 303 302 302 302 303 303 303 303 302 301 300 300 300 299 300 301 301 302 302 303 303 302 302 302 303 303 302 301 300 300 300 299 298 297 296 296 295 295 295
309 306 304 302 302 301 301 301 301 301 301 300 299 299 298 297 297 297 297 298 298 299 299 298 298 298 298 298 298 298 297 297 296 295 295 295 294 294 293 293 293 293 293
309 306 304 301 301 300 300 300 300 300 299 299 298 296 296 296 295 295 295 295 295 295 295 295 295 295 295 295 296 295 294 293 292 292 292 292 292 292 293 292 291 291 291
308 306 303 301 300 300 299 299 299 299 298 298 296 295 295 295 295 294 293 293 293 293 293 292 292 292 292 292 293 293 293 293 292 291 291 291 291 290 290 290 289 288 288
307 305 303 301 300 300 300 298 298 297 297 296 295 295 294 294 293 293 292 292 292 292 292 292 292 292 292 292 292 293 293 292 291 290 290 289 286 285 285 286 287 287 288
305 303 301 301 300 300 299 298 297 296 296 295 294 294 293 292 291 291 290 291 291 291 291 292 292 292 291 291 291 291 291 290 287 285 285 285 285 286 287 286 287 286 286
303 302 302 301 300 299 298 297 296 296 295 294 294 293 292 291 290 289 289 289 289 290 291 291 290 288 288 286 285 284 284 284 284 284 285 285 286 287 286 285 286 286 285
301 301 300 300 299 298 298 297 295 295 294 293 293 292 291 290 290 290 289 289 289 289 288 287 287 287 288 288 286 285 285 285 284 284 285 285 285 285 284 284 283 283 283
299 300 299 299 299 298 297 296 295 294 294 293 292 291 291 290 290 289 289 288 288 287 286 286 286 287 287 287 286 285 284 284 284 283 283 283 284 283 283 283 282 282 284
298 298 297 297 297 297 297 295 294 294 293 292 291 291 290 290 290 288 288 288 288 288 287 287 286 286 285 285 286 285 285 283 282 282 282 282 283 282 283 283 283 284 284
297 296 296 296 296 296 296 295 294 293 292 292 291 290 290 290 290 288 288 287 287 286 285 285 285 284 284 285 285 285 284 284 283 282 283 283 282 281 281 283 283 283 282
296 296 295 295 294 295 295 294 293 292 291 291 290 291 290 290 290 288 287 286 285 284 284 283 283 283 283 284 284 284 283 283 282 282 281 280 281 281 282 282 282 282 281
296 296 295 294 294 293 293 293 292 292 291 291 291 290 291 290 287 286 286 285 285 284 284 284 284 283 283 283 284 283 282 282 282 282 279 280 280 281 281 281 281 281 281
296 295 294 294 293 293 293 292 292 292 292 292 292 291 290 288 286 285 285 284 285 285 284 284 283 283 282 283 283 282 282 282 282 281 279 279 280 280 281 281 281 280 280

GFSMW_925_thetae_081.txt.gz
Theta_e
313 313 314 322 333 337 338 339 340 340 339 339 338 337 339 338 336 334 335 333 332 332 333 333 332 330 330 330 329 327 327 327 326 325 326 326 326 325 324 322 320 319 317
311 310 311 313 317 324 333 337 339 340 339 339 339 339 339 339 339 337 334 333 333 333 332 332 331 331 331 330 330 329 327 327 327 325 320 321 323 325 325 324 321 318 315
308 308 308 309 313 315 317 329 337 339 339 338 339 338 338 338 339 340 339 337 334 333 333 332 332 331 330 330 330 330 330 329 329 328 325 317 319 314 321 320 319 317 314
307 307 308 310 311 312 313 314 316 320 325 334 338 339 339 338 338 338 339 339 338 338 337 336 334 332 331 330 330 330 329 329 328 327 325 325 320 317 318 317 316 318 318
306 307 308 311 312 312 312 312 312 312 313 314 319 332 338 339 339 339 338 337 337 336 336 336 336 335 335 332 331 331 330 329 328 328 327 325 321 317 314 321 317 313 313
307 308 311 312 312 313 311 311 311 311 311 311 312 313 318 327 334 335 336 335 334 334 334 334 334 333 333 332 332 332 332 331 330 328 327 326 322 318 316 314 317 312 313
307 309 311 312 312 312 312 312 312 312 312 312 310 310 311 313 315 318 319 318 321 327 331 335 334 332 331 331 330 330 329 327 328 328 327 326 325 325 322 319 318 310 307
308 310 311 312 311 311 312 312 312 312 312 312 312 312 312 311 311 312 313 315 318 322 327 331 334 332 331 330 329 329 327 325 324 325 324 325 324 322 321 319 316 307 304
309 310 310 311 310 310 310 310 310 310 311 311 311 312 313 313 314 315 317 321 323 325 327 327 329 329 329 328 327 325 322 321 320 318 318 318 318 318 316 314 313 312 310
309 308 308 308 308 308 308 308 309 309 310 310 311 311 311 312 313 313 314 316 318 319 322 324 325 324 322 320 320 320 320 316 314 314 313 312 312 312 312 310 309 307 307
309 308 306 306 307 306 307 307 307 308 308 308 308 308 308 308 309 310 310 311 312 313 314 315 315 314 314 314 315 315 312 308 308 307 306 305 305 305 306 307 305 304 304
308 306 305 304 304 304 304 305 306 306 305 305 305 304 304 304 304 304 305 305 307 308 308 308 308 307 307 307 307 306 306 306 304 304 303 302 302 303 301 301 300 299 300
307 305 303 303 302 302 302 303 303 303 303 303 303 302 301 300 300 299 300 301 302 302 303 303 303 303 304 305 304 304 302 302 301 301 300 299 298 297 296 297 296 296 296
309 305 303 302 302 301 301 301 302 302 301 301 300 299 298 298 298 298 298 299 299 299 300 300 300 300 300 300 300 300 299 297 296 296 295 295 295 294 294 294 293 293 293
308 306 303 301 301 300 300 300 301 300 300 299 298 297 297 296 296 296 296 296 296 296 296 296 296 296 296 296 297 297 295 294 293 292 293 293 292 292 292 292 292 292 292
309 306 303 301 300 300 299 299 300 299 299 298 297 296 296 295 295 294 293 293 293 293 293 293 293 292 293 293 294 294 293 291 291 290 291 291 291 290 291 290 289 289 288
307 307 304 302 300 300 300 299 299 298 298 297 296 295 295 295 294 293 293 293 293 293 292 292 292 292 292 292 292 293 293 292 291 290 289 287 286 286 286 287 286 288 288
306 304 303 302 302 301 299 299 298 297 297 296 295 295 294 293 292 292 292 292 292 292 292 292 292 292 291 291 292 291 290 289 286 285 284 285 286 287 286 286 286 286 286
305 304 304 303 301 300 299 298 296 296 296 295 294 294 293 292 291 291 291 291 292 292 292 292 290 288 287 285 285 284 284 284 284 285 285 285 286 287 286 284 285 285 285
303 302 302 301 300 299 298 297 296 295 295 294 294 294 293 291 290 290 290 290 290 290 290 287 287 288 288 287 285 285 285 284 284 284 285 285 285 285 284 283 282 282 283
300 301 300 300 300 299 298 296 296 295 295 294 293 292 291 291 290 290 290 289 289 288 287 286 287 287 287 287 286 284 284 284 283 283 283 283 284 284 283 283 282 283 284
299 299 299 298 298 298 297 296 295 295 294 294 292 291 291 290 290 289 288 288 287 286 286 286 286 286 285 286 286 286 285 283 282 282 282 282 282 282 283 283 282 284 284
298 298 298 297 297 297 297 296 296 295 294 292 292 291 290 290 290 289 288 288 288 287 286 285 285 285 284 285 285 285 285 284 284 282 283 283 283 282 281 282 283 283 282
297 297 296 295 295 296 296 296 295 294 293 292 291 290 290 290 289 288 288 288 287 285 285 284 284 283 284 284 284 284 283 283 282 281 281 280 281 281 281 282 282 281 281
297 296 296 295 295 295 295 295 294 293 292 291 291 290 290 289 289 288 287 286 286 285 284 284 284 283 283 283 284 283 282 282 282 282 281 279 280 280 281 281 281 281 281
297 296 295 295 295 294 294 293 292 292 292 291 291 290 290 289 289 287 286 285 284 284 284 284 284 283 283 283 284 284 283 283 283 282 281 279 279 280 280 280 281 281 280

GFSMW_925_thetae_084.txt.gz
Theta_e
313 315 315 318 335 337 338 339 342 341 341 340 337 338 339 339 340 339 337 335 336 336 335 334 334 333 331 329 328 327 326 326 326 326 326 326 327 327 326 326 326 324 322
313 312 313 314 315 333 337 338 338 339 339 340 339 337 338 339 338 336 335 333 334 335 332 332 333 333 332 330 328 328 327 327 326 325 321 322 325 326 326 325 325 324 323
317 309 309 311 312 316 329 333 337 338 339 338 339 338 337 337 337 338 338 337 333 332 331 331 331 331 331 330 330 329 328 328 327 326 326 320 322 317 324 324 324 323 321
309 307 307 308 310 312 315 319 328 335 337 338 338 337 337 337 338 338 338 338 338 337 336 333 332 331 331 330 330 330 329 328 328 327 326 325 324 321 321 321 320 318 320
308 306 306 309 310 311 311 313 316 317 320 322 331 336 337 338 338 337 337 337 336 337 337 337 336 335 334 334 332 331 329 328 328 327 327 325 323 321 316 322 320 318 318
308 306 308 310 311 311 310 310 311 311 311 312 312 314 317 325 331 334 335 336 336 336 335 335 334 334 333 333 334 333 332 331 330 329 328 326 323 319 316 315 316 317 318
307 307 309 310 310 310 311 311 311 311 312 311 310 310 311 312 314 320 325 327 326 326 328 330 332 333 333 332 331 331 331 330 327 325 326 326 326 325 322 320 318 314 311
306 308 310 310 310 311 311 311 311 311 312 312 312 311 311 310 310 311 312 313 315 317 319 324 329 333 333 331 331 329 329 327 327 325 324 323 324 322 321 319 317 311 306
307 309 309 309 309 310 310 311 311 311 311 311 312 312 312 313 313 314 315 318 319 321 323 325 325 328 328 328 328 328 327 324 320 319 319 317 316 316 316 314 315 313 311
308 308 308 307 308 309 309 309 309 310 310 310 310 311 311 312 312 313 314 315 317 319 319 321 323 323 324 324 323 322 319 317 318 316 311 311 310 311 311 311 311 309 309
307 307 305 306 306 307 307 308 308 308 308 308 308 308 308 308 309 309 310 311 311 313 314 315 316 316 316 316 316 315 314 316 314 309 307 306 305 305 304 305 304 304 304
307 305 304 304 304 305 305 306 306 306 306 305 305 305 304 304 305 305 305 306 307 309 309 309 309 309 309 309 309 310 309 307 305 304 304 302 302 302 302 302 303 301 300
306 303 302 301 302 303 303 304 304 304 304 303 303 302 302 301 301 301 301 302 302 303 304 304 305 305 305 306 305 305 303 303 302 301 301 300 299 298 297 297 297 296 296
307 303 301 301 301 302 302 303 302 302 302 302 301 300 299 299 299 299 299 299 299 300 300 300 300 301 301 301 301 301 300 299 298 297 297 295 295 295 295 295 294 294 294
307 305 303 300 300 300 300 301 301 301 300 300 299 299 298 297 297 297 297 297 297 297 297 297 297 297 297 297 297 297 296 294 293 292 292 292 293 293 292 292 292 292 292
308 305 303 300 300 300 300 300 300 300 299 299 298 297 296 296 296 295 294 295 294 294 294 294 294 293 293 293 294 294 292 292 292 291 292 292 292 291 291 290 290 289 287
308 307 304 302 301 301 300 300 300 299 298 298 297 296 296 296 295 294 294 294 294 293 292 292 293 293 292 292 293 293 293 291 291 290 290 288 286 286 286 287 287 287 288
307 306 304 303 303 302 300 300 299 299 298 297 296 295 295 295 294 293 293 293 292 292 292 292 292 292 291 290 292 291 291 290 287 285 285 285 287 287 286 285 286 286 285
305 306 306 305 303 302 300 299 298 297 297 296 295 295 295 294 293 292 292 292 292 292 292 292 291 291 289 288 286 285 284 284 284 284 285 286 286 286 285 283 284 285 284
305 304 304 303 302 300 299 298 297 296 296 295 295 294 294 293 292 291 291 291 292 291 290 288 287 287 287 286 285 285 284 284 284 285 285 286 285 285 284 283 282 282 282
301 302 301 301 301 299 298 297 296 296 296 295 295 294 293 292 291 291 290 290 290 290 287 287 287 287 287 287 285 284 284 283 283 283 283 283 284 284 284 283 281 284 284
299 299 299 299 299 299 298 297 296 296 295 295 294 293 292 291 290 290 290 290 289 287 286 286 286 286 286 286 287 285 284 283 282 282 282 283 283 283 283 283 282 284 284
298 298 299 298 298 298 298 296 296 295 295 294 293 292 291 291 290 290 289 288 287 286 286 286 285 285 284 285 286 285 285 284 283 282 282 283 283 282 281 282 284 284 283
297 298 297 297 297 297 297 297 296 296 294 293 292 291 290 290 290 290 288 287 287 286 286 285 285 284 284 284 284 284 284 283 282 281 281 281 281 281 281 282 282 282 281
297 297 297 296 296 296 296 296 296 295 293 293 292 291 290 290 290 289 288 288 288 287 286 285 284 283 283 284 284 284 283 282 282 282 282 280 280 280 280 281 281 281 281
297 296 296 296 296 295 295 294 294 294 293 292 291 290 290 290 290 288 287 287 286 285 285 284 283 284 283 283 283 284 284 283 283 282 282 280 279 280 280 280 280 281 281

GFSMW_925_thetae_087.txt.gz
Theta_e
320 317 315 317 332 336 338 336 336 337 338 339 339 340 340 340 339 338 339 338 336 335 335 335 335 334 333 332 329 327 327 326 326 325 326 327 327 329 328 328 327 326 326
320 315 315 313 314 330 335 335 338 339 339 339 339 338 339 339 340 340 339 339 338 335 335 335 335 334 334 332 331 328 326 326 326 326 323 328 327 327 327 326 325 326 325
320 318 313 315 313 313 326 335 337 338 339 339 339 338 336 336 337 338 338 337 335 334 333 334 333 331 332 332 331 330 327 326 327 326 326 324 326 321 325 325 324 323 323
318 311 309 311 313 313 313 322 332 336 337 337 337 338 337 336 337 337 337 337 338 338 335 333 331 331 331 330 330 329 329 328 327 326 326 325 326 325 326 323 323 324 322
314 314 310 310 310 310 310 314 319 329 335 337 337 337 337 337 336 336 336 336 336 336 337 336 335 333 332 332 331 331 329 328 327 327 327 326 324 322 319 322 322 320 320
312 311 309 309 310 311 310 311 315 317 318 322 328 333 335 335 335 335 336 336 336 336 335 335 335 335 335 334 334 333 331 329 329 328 328 326 324 320 318 318 318 319 319
314 312 309 310 310 310 309 310 310 311 310 310 311 311 311 312 313 316 321 325 327 328 329 331 332 333 333 333 333 333 333 331 330 328 327 326 325 325 323 320 319 317 315
309 309 309 310 310 310 310 311 311 311 311 311 311 311 311 310 310 310 311 313 315 317 318 320 325 328 331 332 332 331 330 329 327 326 325 323 323 322 320 320 318 315 310
306 308 310 310 309 310 310 311 311 311 311 311 312 312 312 312 312 312 313 314 315 315 316 317 319 321 327 329 330 329 328 326 325 324 321 318 317 315 314 315 314 314 315
306 309 309 308 309 309 309 310 310 310 310 310 311 311 311 311 311 312 313 315 316 318 319 319 320 322 323 325 326 324 323 322 318 316 315 312 310 310 310 310 310 310 310
308 309 307 306 307 307 308 308 309 309 309 309 309 309 309 309 309 310 310 310 312 313 315 317 318 319 319 319 320 319 317 314 314 312 313 309 307 306 305 305 305 305 305
308 307 305 304 305 305 306 307 307 307 307 307 307 307 306 306 306 306 306 306 308 308 309 310 311 312 313 312 313 313 311 310 309 308 306 304 303 303 302 302 303 302 301
307 305 304 303 303 304 305 305 305 305 304 304 304 303 303 303 302 302 302 302 303 304 304 305 306 306 306 306 306 306 305 304 303 303 302 301 301 301 300 300 299 297 297
307 305 303 302 302 303 304 304 303 303 302 303 301 301 301 301 300 300 300 300 300 301 301 301 302 302 303 303 303 302 302 301 301 300 299 299 298 298 297 295 295 295 295
307 306 304 302 301 301 302 302 302 302 301 301 301 299 299 298 298 298 298 298 298 298 299 299 299 299 299 300 300 299 299 298 296 294 294 294 294 294 293 293 293 293 293
309 306 304 302 300 300 301 301 301 301 300 300 300 299 298 297 297 296 296 296 295 295 295 295 296 295 294 294 295 296 295 294 293 293 293 293 293 292 292 291 290 290 289
309 307 306 304 301 301 301 301 301 300 299 299 298 297 297 296 296 296 295 295 294 293 293 293 293 293 293 292 292 292 292 292 292 292 291 290 288 288 288 288 288 288 288
308 308 306 304 304 303 301 301 300 299 298 298 297 296 296 296 295 295 294 294 293 293 293 293 292 292 292 291 292 292 292 291 289 287 286 286 287 286 285 286 286 286 286
307 307 308 307 306 304 302 300 299 299 298 297 296 296 295 295 294 293 293 293 292 292 292 292 292 291 291 290 291 290 287 285 284 285 286 286 286 287 283 283 284 285 285
305 306 307 306 305 303 301 299 298 298 297 297 296 295 295 295 294 293 292 292 292 292 291 291 290 288 287 285 284 284 285 285 285 285 285 285 285 285 284 282 282 282 283
302 303 303 303 303 302 300 298 298 297 298 297 296 295 295 294 293 292 292 291 291 290 289 287 287 287 287 287 285 284 284 284 284 283 283 284 285 284 284 283 282 283 283
300 300 300 300 300 300 299 298 297 298 297 296 295 294 294 293 292 291 291 291 290 289 287 287 287 287 287 287 286 283 283 283 283 283 282 282 283 283 284 283 283 285 283
299 299 299 298 298 298 298 298 298 297 296 295 294 294 293 292 291 290 290 289 289 288 286 286 286 286 286 286 287 287 286 283 283 282 283 283 284 283 281 283 284 284 283
298 298 298 297 297 298 298 298 297 296 295 294 294 293 292 291 290 290 290 289 289 287 285 285 285 285 284 285 286 286 286 285 283 283 282 281 281 281 281 282 283 282 282
298 298 298 298 298 297 297 297 297 296 295 294 293 292 291 290 290 290 290 289 289 286 286 286 285 284 284 284 284 284 284 283 282 282 282 280 280 280 280 281 281 281 281
298 297 297 297 297 297 296 296 296 295 295 293 292 291 291 290 290 289 289 289 288 287 287 285 284 284 284 283 283 283 283 282 283 283 282 281 280 280 280 280 280 281 281

GFSMW_925_thetae_090.txt.gz
Theta_e
324 322 319 317 335 338 339 339 337 339 339 339 340 341 340 340 339 339 339 339 338 337 336 336 335 334 333 332 331 330 329 330 329 329 330 330 330 329 330 329 328 327 324
325 323 320 316 324 336 338 339 336 334 337 339 338 337 338 338 339 339 338 338 338 338 337 336 335 334 333 332 331 330 330 329 329 330 330 332 331 330 329 327 326 324 322
324 323 321 318 316 316 331 335 335 325 330 335 335 335 336 336 336 337 337 338 337 337 337 335 335 334 333 333 332 331 330 330 330 328 330 329 332 328 326 325 324 321 320
324 323 320 317 315 314 314 319 333 334 329 324 335 336 336 337 336 336 338 338 337 336 335 335 333 333 333 331 332 332 331 330 331 329 327 329 328 329 327 324 323 323 320
322 322 318 317 314 314 312 313 318 331 334 335 328 336 337 337 337 336 336 336 336 337 336 337 334 332 331 331 331 331 330 330 331 331 330 327 324 323 323 325 326 321 320
320 320 319 314 314 313 313 311 313 319 327 330 332 336 336 337 336 335 335 336 336 336 334 334 334 335 334 332 331 331 330 330 330 330 330 328 327 326 323 323 322 323 319
319 319 319 315 314 313 313 312 312 314 317 319 324 330 328 327 327 328 327 328 327 328 330 331 332 334 336 336 334 331 330 330 329 330 329 328 328 326 325 323 323 322 317
319 319 318 317 314 312 313 312 313 313 312 311 312 311 311 311 311 311 312 315 317 320 320 322 324 326 329 333 332 331 331 330 329 328 327 325 324 323 322 322 322 319 317
314 317 317 315 314 313 313 313 313 313 313 313 312 312 311 311 312 311 312 312 313 314 315 316 318 319 321 326 329 329 330 329 328 327 325 323 321 319 318 317 317 318 319
312 311 313 314 313 312 312 312 312 312 312 311 311 310 310 311 311 311 312 314 315 316 316 318 319 320 321 322 325 327 327 326 324 322 320 317 314 312 311 311 312 312 313
312 312 312 312 312 311 310 310 310 310 309 308 308 307 307 308 309 309 310 311 312 313 315 316 317 318 319 320 322 322 321 319 318 314 311 310 310 309 307 307 307 306 308
312 312 312 311 311 310 310 309 308 307 306 305 305 304 304 304 304 304 306 307 307 309 310 312 313 314 315 316 316 316 314 310 308 307 306 307 306 304 304 302 302 302 303
313 312 311 311 311 310 310 308 307 305 304 304 303 303 302 302 302 301 302 303 304 305 306 306 307 308 309 309 309 309 308 306 304 303 303 303 302 302 301 300 299 299 299
313 313 312 311 310 309 308 307 306 304 303 302 302 301 301 301 300 300 299 299 300 300 301 302 302 303 304 304 304 302 301 300 300 301 301 301 300 299 297 297 296 296 297
313 313 312 311 309 308 307 306 305 303 302 302 301 300 299 298 298 298 298 298 298 298 298 298 298 300 300 300 300 301 300 300 299 298 298 296 296 296 295 295 295 295 296
313 313 312 311 309 308 307 306 304 303 301 301 300 299 298 297 297 297 296 296 296 296 296 296 296 296 295 296 297 297 296 295 293 293 293 293 293 293 293 294 293 292 293
314 313 312 311 309 308 306 305 304 302 301 300 299 298 298 297 297 297 296 296 296 295 295 295 295 295 294 294 293 293 294 294 294 293 293 292 292 291 291 290 289 289 286
313 314 313 311 309 307 305 304 303 301 301 300 299 298 298 297 296 296 295 295 295 294 294 294 294 293 293 293 292 293 293 292 291 291 289 288 287 286 287 287 287 287 287
314 313 313 312 310 307 305 303 301 301 300 300 299 298 297 297 296 295 295 294 293 293 293 293 292 292 291 292 291 292 290 289 287 286 287 288 288 285 284 286 286 286 286
311 312 311 310 309 307 304 302 301 300 300 299 299 298 296 296 295 295 294 293 293 292 292 292 292 291 291 289 291 288 286 286 286 286 286 285 287 287 283 284 285 285 285
305 305 306 307 307 304 302 302 301 300 299 298 297 296 295 295 295 294 293 292 292 292 291 291 289 289 288 287 285 285 285 286 286 286 286 286 286 285 285 283 283 284 284
303 302 304 303 301 301 301 301 300 299 298 297 296 295 294 294 294 293 292 291 291 290 289 288 288 287 288 288 287 285 284 284 284 284 284 284 284 284 284 284 283 285 284
302 301 302 301 300 299 300 299 299 298 297 296 296 295 293 293 293 292 291 290 290 288 288 288 288 287 286 288 287 286 284 283 283 283 283 283 284 284 283 283 284 285 284
302 301 301 300 300 299 298 299 298 297 296 296 295 294 293 292 292 291 291 290 289 288 288 288 287 287 286 286 287 287 287 285 283 283 284 283 283 284 282 283 285 284 283
299 299 301 301 300 298 298 297 297 296 296 296 295 292 292 292 291 290 290 290 290 290 288 287 287 286 286 285 286 286 286 286 284 283 282 282 282 283 282 282 283 282 282
300 299 298 299 299 298 298 297 297 296 296 295 294 292 292 291 291 289 289 290 290 290 288 286 286 286 285 284 284 284 284 284 283 283 283 282 281 282 282 282 282 282 282

GFSMW_925_thetae_093.txt.gz
Theta_e
325 324 323 333 337 338 339 340 341 341 341 340 341 340 339 339 340 339 340 340 338 338 337 337 336 336 334 333 333 332 332 332 331 330 331 331 331 331 331 331 330 329 327
324 325 323 325 336 338 339 339 338 340 341 341 341 340 340 340 340 339 340 340 340 339 338 338 337 337 336 335 334 333 332 331 331 331 332 333 333 332 330 330 329 328 325
323 325 323 322 333 337 338 338 335 337 339 340 338 338 338 337 338 339 339 338 338 339 339 338 337 337 336 335 334 333 331 332 331 330 331 332 333 330 328 326 325 324 322
322 325 324 322 320 321 330 337 337 336 335 337 338 336 335 334 333 331 329 336 337 336 336 336 336 336 336 335 335 334 333 332 333 331 330 331 331 332 331 327 325 322 319
323 324 324 322 320 318 318 321 328 334 334 332 331 334 331 331 330 328 334 336 336 334 334 332 333 333 334 334 334 334 333 333 332 333 331 329 329 327 327 328 327 324 319
323 324 321 320 319 319 317 318 320 327 333 334 328 325 325 327 331 332 331 329 329 337 336 336 334 334 333 332 332 332 333 332 332 332 332 330 328 326 325 325 324 325 320
322 323 323 320 318 318 317 315 316 317 322 325 330 333 332 325 324 326 326 327 332 334 334 334 334 333 333 333 333 332 332 332 331 331 330 330 329 328 326 325 325 324 321
320 320 321 321 318 317 314 313 313 314 314 317 319 325 328 328 328 327 323 323 322 322 324 324 325 328 329 330 331 331 331 331 330 329 328 328 327 326 325 324 324 321 320
318 320 319 319 319 316 315 315 315 315 314 315 315 314 314 314 313 313 313 314 315 316 317 317 319 321 323 324 327 327 328 329 329 329 327 326 324 323 323 321 320 320 319
315 316 318 319 318 317 315 315 315 315 315 314 314 313 313 312 313 313 313 313 313 314 315 316 317 317 318 319 323 325 328 328 327 325 324 321 321 318 317 316 315 315 315
314 314 314 316 316 315 315 314 314 313 312 312 311 310 309 309 309 309 309 309 309 310 311 313 314 314 315 319 320 321 322 322 322 319 318 316 313 313 312 311 310 310 310
314 314 314 314 315 314 313 313 312 311 310 309 309 308 307 307 307 306 306 306 306 306 308 309 310 312 314 315 316 318 317 316 314 313 311 310 309 309 308 306 306 306 306
314 314 314 314 313 313 313 312 311 309 308 307 307 307 306 306 305 304 304 304 304 304 304 305 305 305 308 308 309 310 309 309 308 308 306 306 305 304 303 302 302 302 302
315 314 314 314 313 313 312 311 310 308 306 306 306 305 304 304 303 302 302 301 301 302 302 301 302 302 303 304 305 305 305 304 304 303 303 302 301 301 301 300 299 299 300
315 314 314 314 313 312 311 310 309 307 306 305 305 304 302 301 301 300 300 300 300 300 299 300 299 300 300 300 301 302 301 301 300 300 300 299 300 299 297 297 297 298 298
315 315 314 313 312 312 311 310 308 306 305 305 304 302 301 300 300 300 299 299 298 298 298 298 299 298 297 297 298 299 299 299 298 296 296 295 295 295 295 295 295 295 296
315 315 314 313 313 312 311 309 307 306 305 304 303 302 301 301 300 299 298 298 298 298 297 297 296 296 296 296 296 296 297 296 295 294 294 294 293 293 293 291 290 291 292
314 315 314 313 313 312 310 309 307 305 304 304 302 301 301 300 300 299 298 297 296 296 296 295 295 295 295 295 294 295 294 293 293 293 292 292 291 290 289 288 288 287 287
314 314 314 314 313 311 309 308 306 305 304 303 302 301 301 300 299 298 296 295 296 295 294 294 294 294 293 293 292 293 292 291 290 289 289 288 288 286 287 287 287 288 287
313 314 314 314 313 311 309 307 306 304 304 303 302 301 300 299 298 297 295 295 294 294 293 293 293 292 292 291 291 290 289 288 287 287 288 288 288 284 285 286 286 286 286
307 308 312 313 312 311 308 306 306 305 303 302 301 300 299 298 297 295 295 295 294 293 292 292 292 292 292 290 289 287 287 287 287 287 287 286 287 287 284 284 284 285 285
306 306 307 307 306 306 305 305 304 303 301 300 299 298 297 296 295 294 294 293 292 292 291 291 290 289 289 288 287 286 286 286 286 286 286 287 286 285 286 283 284 284 285
304 304 305 304 303 303 304 305 303 301 300 299 298 298 296 295 293 292 293 291 291 290 289 289 289 289 288 288 288 287 286 285 285 284 284 284 285 284 285 285 285 286 284
304 303 303 304 303 302 301 303 301 300 299 299 298 297 296 294 292 293 292 291 290 289 289 289 289 289 287 288 288 287 286 285 283 284 284 284 284 285 284 284 285 286 285
302 302 303 303 303 301 300 300 299 298 298 299 298 296 295 293 292 292 292 291 291 291 290 289 289 288 287 287 287 288 288 286 285 284 284 283 283 283 283 283 285 285 283
302 302 301 301 301 300 299 298 298 298 297 298 298 296 294 293 292 291 291 291 291 291 290 290 289 287 287 286 286 287 287 287 286 284 283 283 282 283 283 283 283 283 283

GFSMW_925_thetae_096.txt.gz
Theta_e
321 324 326 336 339 340 341 343 342 341 341 342 340 340 339 340 339 339 337 337 338 337 336 335 335 334 331 331 331 332 332 331 330 330 330 330 330 330 330 330 330 330 328
320 321 326 332 337 339 339 341 341 342 342 341 341 341 339 338 339 339 338 339 339 338 337 336 336 336 335 334 333 333 332 332 332 330 330 329 331 332 331 331 330 328 326
319 320 321 329 336 338 339 340 340 339 341 340 339 340 339 338 338 337 336 337 337 337 337 338 337 336 336 336 335 334 333 332 331 331 331 328 329 329 330 329 328 326 324
317 318 321 324 335 337 338 339 338 339 340 338 338 337 336 336 335 335 335 333 332 334 335 335 335 334 334 335 335 334 334 332 331 331 331 331 331 327 327 327 325 324 321
317 318 319 321 323 328 336 337 335 337 339 337 335 335 334 332 330 330 330 331 329 328 329 330 331 330 329 333 334 333 333 333 332 332 331 331 330 330 326 325 324 322 320
316 319 322 322 320 318 320 322 335 335 332 328 326 325 325 324 328 328 328 328 332 332 330 329 331 332 329 326 329 328 330 332 333 333 332 332 329 328 325 324 325 323 316
316 319 319 319 319 318 317 317 322 331 334 331 330 326 323 323 323 324 323 322 323 323 325 328 330 326 328 331 332 332 332 332 332 332 331 332 331 329 327 325 323 321 318
316 318 318 318 318 319 317 317 316 318 322 326 328 328 324 322 322 323 321 322 322 322 320 319 325 328 329 330 330 331 332 332 332 332 331 330 330 329 327 325 324 319 318
315 317 317 318 318 318 317 314 315 314 315 317 320 320 319 322 326 325 324 321 320 319 321 320 318 318 320 322 324 325 327 328 330 330 329 328 328 327 325 324 323 321 318
315 314 315 317 318 317 315 314 315 314 314 315 315 314 314 314 314 313 313 314 314 313 313 314 315 316 317 317 319 321 323 326 327 328 328 327 326 324 323 322 320 319 318
312 311 312 316 317 316 315 315 315 315 314 314 314 313 311 311 311 311 311 311 311 312 313 313 314 314 315 316 318 318 319 321 323 323 322 323 320 317 317 316 314 314 313
311 311 310 314 315 315 315 314 313 313 312 311 311 311 310 310 309 309 309 308 308 309 309 310 311 311 312 313 314 316 317 318 318 318 316 316 314 312 311 311 310 309 309
313 312 310 312 313 313 313 313 312 310 310 309 309 309 308 307 306 306 306 306 306 305 305 306 307 307 309 310 310 311 312 312 312 312 311 311 309 308 308 307 306 305 305
312 311 310 310 312 313 312 311 310 308 308 308 307 307 306 305 305 304 304 303 303 303 303 303 303 304 304 305 307 307 308 308 307 307 307 306 305 305 304 303 303 302 302
313 311 310 309 312 312 311 310 308 307 307 306 305 305 304 304 303 303 302 302 302 302 301 301 301 301 302 302 302 303 304 304 304 303 303 302 302 301 301 301 300 299 300
313 312 311 310 310 311 311 309 308 306 306 305 304 303 303 302 302 302 301 301 301 300 300 299 299 299 299 299 299 300 301 300 300 299 299 299 299 298 297 297 297 298 298
313 312 311 310 311 311 310 309 307 306 305 305 304 303 302 301 301 300 300 299 299 299 299 298 298 297 297 297 297 298 298 299 298 297 297 295 294 294 295 294 295 296 296
312 312 311 312 312 311 310 309 307 305 305 304 303 302 301 301 300 300 299 299 298 297 296 297 296 296 296 296 295 296 296 296 295 294 294 294 293 293 291 290 288 288 289
309 312 313 313 312 311 310 308 306 305 304 304 303 302 301 301 300 299 298 296 296 297 297 296 295 295 295 294 294 293 293 293 292 292 292 292 291 290 288 287 288 287 286
308 311 314 314 313 311 309 308 306 305 304 304 303 302 301 301 300 299 297 295 295 296 295 294 294 293 294 293 292 292 292 291 290 289 289 289 288 286 288 287 287 287 286
306 309 312 313 313 311 309 307 306 305 304 304 302 301 301 300 299 298 296 296 294 294 294 293 293 293 293 292 291 289 289 288 288 288 287 288 289 286 285 286 286 286 286
305 307 307 307 308 308 308 306 306 305 304 303 301 300 300 299 298 296 295 294 294 293 292 292 292 291 291 290 290 288 287 287 287 287 287 286 287 287 285 284 285 286 285
304 304 305 304 304 304 305 305 304 304 303 301 300 299 298 297 296 294 293 293 293 292 291 291 291 290 289 289 289 288 287 286 286 286 286 286 287 286 286 285 285 286 285
302 303 303 303 302 302 303 304 303 302 301 300 299 298 297 296 294 293 292 292 292 291 291 290 290 289 289 288 288 288 288 286 285 285 285 285 285 285 284 285 285 286 284
302 302 302 302 302 301 301 301 301 300 299 299 299 298 297 295 294 292 292 292 292 293 291 291 291 289 288 288 288 288 287 286 284 283 284 285 285 285 285 283 284 285 286
302 302 301 301 301 301 300 299 299 299 299 299 298 297 296 295 294 293 292 291 292 292 291 291 291 290 289 288 288 288 288 288 287 285 284 284 283 283 283 283 283 285 285

GFSMW_925_thetae_099.txt.gz
Theta_e
320 325 332 335 339 341 341 341 342 341 341 342 341 340 339 338 338 338 338 337 336 335 335 334 333 333 329 329 330 330 331 330 330 330 330 330 329 329 329 330 330 330 329
317 320 330 336 339 341 341 340 340 340 342 340 341 341 340 340 338 339 338 338 337 336 335 335 335 334 332 331 331 331 331 331 331 330 329 327 330 331 331 330 330 330 328
316 320 325 335 338 339 340 340 339 340 340 341 340 340 339 339 339 339 338 337 336 336 336 335 335 336 335 334 334 333 332 332 331 331 330 326 327 327 329 329 326 325 324
315 319 324 330 336 338 338 339 339 337 340 338 339 338 338 337 337 338 336 335 334 335 335 336 335 335 335 335 334 334 334 333 331 331 330 330 330 327 328 325 322 321 321
313 316 318 328 335 337 338 339 340 340 339 340 338 337 335 335 335 334 332 330 328 329 328 329 333 332 331 331 330 329 330 330 332 331 330 330 329 329 326 327 321 319 318
313 315 320 326 332 334 336 337 336 339 339 337 336 335 333 331 332 332 331 330 330 329 329 330 330 330 329 327 327 327 326 327 328 331 330 329 329 328 326 324 323 322 315
313 315 317 316 319 323 331 331 334 336 337 335 331 331 328 328 327 325 326 325 327 328 324 325 327 327 324 321 320 322 326 324 326 329 331 330 332 330 328 326 324 320 314
311 316 317 317 318 318 320 323 329 333 332 328 326 325 326 326 327 326 323 322 322 322 322 323 323 323 322 321 320 318 321 326 327 330 329 328 329 330 330 328 323 320 316
311 315 316 317 317 317 317 317 319 325 330 331 331 330 325 323 322 322 322 323 322 322 323 323 323 322 322 323 325 326 326 326 328 329 330 330 329 329 328 327 326 322 318
311 314 316 316 317 317 317 316 316 316 318 322 323 324 325 325 324 323 321 320 319 319 318 317 316 315 315 316 317 319 320 320 324 326 327 329 328 327 326 325 324 323 320
310 309 311 314 316 317 316 314 314 314 314 315 316 318 317 317 317 316 315 314 313 313 313 313 314 314 315 315 316 316 316 317 319 322 322 324 323 323 321 321 321 320 318
309 308 310 313 314 314 314 314 314 314 314 314 314 314 313 313 312 311 311 311 310 310 310 311 312 312 313 313 314 315 316 318 318 318 319 320 319 318 318 316 314 314 313
310 307 309 310 312 313 313 314 314 314 313 313 312 310 309 308 308 309 307 306 306 306 306 307 307 308 308 309 310 311 313 315 315 315 314 315 314 313 312 311 310 310 309
311 309 308 308 311 312 312 312 311 312 311 310 309 308 307 306 306 306 306 306 305 305 304 304 304 304 304 305 306 308 309 311 311 311 310 310 310 310 309 308 307 305 304
311 309 308 307 310 310 310 310 309 308 308 307 307 306 305 305 305 305 304 303 302 302 302 302 302 302 302 303 303 304 305 306 307 306 306 306 305 305 305 304 303 302 302
311 310 309 307 308 310 309 309 308 307 307 306 305 305 304 304 304 303 302 302 302 302 301 301 300 300 301 300 300 301 301 302 302 303 302 302 301 301 300 300 300 300 300
311 310 308 308 309 310 309 308 307 306 306 305 305 304 304 303 302 302 301 301 300 300 300 300 299 299 299 298 297 298 299 300 300 300 299 298 298 298 298 297 297 297 298
311 310 309 309 310 311 309 308 307 306 305 305 304 303 302 302 301 301 300 300 300 299 299 299 298 298 297 298 297 296 297 297 298 297 297 296 295 294 294 295 295 295 295
308 310 312 311 310 310 310 308 306 306 305 304 303 302 302 301 301 300 300 299 298 297 298 298 297 296 296 296 296 295 295 295 295 295 294 294 294 292 291 290 289 288 289
305 307 312 312 311 310 309 308 306 305 304 304 303 303 302 301 301 300 299 297 295 296 296 296 296 295 295 294 294 293 292 292 292 292 291 292 292 290 289 288 287 287 287
306 308 310 310 310 309 308 307 305 304 305 304 303 302 302 301 301 300 298 295 295 294 295 295 295 294 294 293 293 292 291 291 290 289 289 289 289 289 289 287 287 287 286
304 305 306 305 307 308 307 306 305 305 304 304 303 302 301 300 300 299 296 294 293 293 294 293 293 293 293 292 292 292 288 288 288 288 288 288 289 287 286 285 286 286 286
302 303 303 303 304 306 306 305 305 305 304 303 302 301 300 299 298 297 295 293 292 293 293 292 292 292 291 290 290 291 289 287 287 286 286 287 288 287 287 284 286 287 286
301 302 302 302 302 303 303 304 304 303 302 302 301 300 299 298 297 296 294 292 292 292 292 292 291 292 291 289 289 289 289 288 287 285 285 286 287 286 285 286 286 286 285
301 301 300 300 300 301 301 302 302 301 301 300 299 299 298 297 296 295 294 292 292 293 293 293 292 291 291 290 290 288 289 288 286 284 285 285 286 286 285 284 285 286 285
300 300 300 300 300 300 300 300 299 299 299 299 298 298 298 297 296 295 294 293 292 292 292 291 292 292 291 290 290 289 288 287 286 285 284 285 285 285 285 284 283 284 285

GFSMW_925_thetae_102.txt.gz
Theta_e
323 330 336 339 339 340 341 342 343 342 343 341 339 338 338 337 336 335 336 336 335 331 330 329 330 330 330 330 330 329 330 330 329 329 329 329 329 329 328 329 330 330 330
318 321 329 336 338 340 339 340 341 341 342 342 340 339 338 338 337 336 337 335 336 335 335 334 333 332 332 329 329 329 330 330 330 330 328 325 328 330 329 329 329 329 329
318 318 326 333 337 339 340 341 339 340 341 341 340 340 340 338 338 337 337 338 336 336 335 334 334 334 334 333 330 330 330 330 330 330 330 325 327 325 327 327 328 327 324
314 317 322 331 336 339 340 339 339 339 340 340 341 339 339 339 338 338 338 337 337 337 335 335 334 334 335 334 331 332 332 331 331 330 330 329 329 328 327 322 321 319 320
311 316 320 330 336 338 339 339 339 339 339 340 340 338 339 338 337 337 337 336 335 334 333 333 332 334 333 332 332 331 330 329 330 330 330 329 329 329 326 326 319 317 317
311 313 321 327 332 335 337 338 339 339 339 339 337 337 337 335 335 334 333 332 329 329 328 327 327 329 331 330 329 328 327 327 326 326 325 327 328 326 326 324 323 321 315
311 313 316 322 327 331 334 336 337 338 338 337 336 336 335 332 330 330 329 329 331 329 330 328 326 326 327 328 324 322 321 322 324 324 326 324 327 327 327 327 324 321 315
310 313 315 319 325 328 330 335 336 336 336 336 335 334 332 330 329 328 327 326 325 327 327 325 325 325 325 324 324 325 321 321 320 320 317 328 326 329 329 328 325 320 314
310 314 315 319 323 324 327 332 334 335 334 334 332 330 328 327 326 325 326 324 322 322 322 322 322 323 323 323 325 325 326 327 327 327 328 328 329 329 328 328 328 325 319
308 312 314 316 319 321 320 323 329 332 332 329 327 325 325 325 325 325 322 321 321 321 321 321 321 321 321 319 319 318 318 319 319 319 323 325 326 326 327 328 327 325 322
309 311 313 315 316 317 317 316 319 324 328 328 328 328 326 324 324 323 322 322 321 320 318 317 316 315 314 314 315 315 316 316 316 317 319 321 323 324 324 324 323 322 321
307 308 311 313 314 315 315 314 314 315 316 319 319 318 318 319 318 318 316 314 314 313 312 312 312 313 313 312 313 314 314 315 316 317 317 317 319 319 319 320 318 318 317
307 309 309 310 312 313 313 313 313 313 313 314 314 314 313 313 312 310 310 309 309 309 309 309 309 309 309 309 310 311 312 313 313 314 315 315 315 315 316 315 314 313 312
308 309 308 308 310 311 312 312 312 313 313 312 312 311 310 309 309 308 307 306 306 307 306 306 305 305 305 305 306 307 308 310 311 311 312 312 311 311 311 311 309 310 308
309 309 309 307 309 310 311 311 312 311 312 311 310 309 308 307 307 306 305 304 304 304 304 304 304 303 303 303 303 304 305 306 307 308 308 308 308 307 308 308 308 306 304
311 308 308 307 308 309 310 310 310 309 309 309 308 307 306 305 305 304 303 303 303 303 303 302 302 301 301 300 301 301 302 302 303 303 304 303 303 303 303 303 302 302 302
310 309 307 307 309 309 309 309 309 308 307 307 306 305 305 304 303 302 302 302 302 301 301 301 301 300 300 299 298 297 298 299 300 300 300 300 300 299 299 299 299 298 299
310 309 308 308 309 310 309 309 307 306 306 305 305 304 303 303 302 301 301 301 301 301 300 300 299 299 298 298 297 297 297 297 298 298 298 298 298 297 296 297 296 296 297
306 307 310 310 310 310 309 308 306 306 305 305 304 303 303 302 301 301 301 300 300 299 298 298 298 297 297 297 296 296 295 295 296 296 296 296 295 295 293 293 293 292 292
305 306 309 310 310 310 309 308 306 305 305 304 304 303 303 302 302 301 300 300 299 297 295 296 296 296 296 296 295 295 294 294 294 294 293 293 293 292 291 290 288 288 289
305 306 308 309 309 309 309 307 306 305 306 305 304 303 302 302 301 301 300 299 297 295 294 296 296 295 295 295 294 294 293 292 292 292 291 291 291 290 291 289 287 287 287
303 304 304 305 307 307 308 307 306 307 305 304 304 303 302 301 301 300 299 298 295 294 294 294 295 295 294 294 293 293 292 290 290 290 290 289 290 289 289 288 287 287 286
301 302 302 303 304 305 305 305 305 305 304 304 303 302 301 301 300 299 298 296 294 293 293 293 293 294 294 293 292 292 292 289 288 287 287 287 288 289 288 287 285 287 287
300 301 301 300 301 302 303 304 304 304 303 302 302 301 300 300 299 298 297 296 294 293 292 292 292 293 293 292 290 290 291 291 288 287 286 286 287 288 287 286 286 287 287
300 300 300 300 299 300 301 302 302 302 302 301 300 300 299 298 298 297 297 295 295 294 293 293 293 292 292 293 292 290 290 289 289 287 285 286 287 288 286 286 286 286 286
298 299 299 299 299 299 299 299 299 299 299 299 299 299 299 298 298 297 296 295 294 294 293 293 292 292 292 291 290 290 290 289 288 287 285 285 285 286 286 285 284 285 285

GFSMW_925_thetae_105.txt.gz
Theta_e
317 319 333 339 338 338 340 341 341 342 341 339 339 337 337 338 337 334 329 327 326 327 328 330 331 333 334 332 332 329 329 329 329 329 329 329 329 329 329 328 328 329 329
317 316 325 335 337 338 338 340 340 341 340 339 339 338 338 337 336 332 330 335 329 331 329 328 329 330 330 329 329 329 329 329 329 329 327 325 327 328 328 329 328 328 329
317 315 322 331 336 337 338 339 340 339 340 340 339 338 338 337 336 335 334 335 334 334 333 332 333 332 332 331 329 328 329 329 329 329 329 325 326 325 325 324 326 328 328
316 314 318 328 334 336 336 338 338 339 339 338 339 338 337 337 336 337 336 336 337 335 335 334 334 333 333 333 332 329 329 330 330 330 330 329 328 327 327 323 322 320 322
317 315 315 326 332 335 337 337 338 338 339 338 339 338 338 336 336 337 337 337 337 336 336 335 334 333 334 334 333 332 330 330 330 329 329 329 329 328 327 326 321 319 318
318 314 314 321 330 334 336 338 337 338 338 339 339 338 338 337 337 337 337 337 335 335 334 334 333 332 332 333 332 330 328 327 326 326 327 326 326 326 326 325 323 320 317
312 311 316 322 327 331 334 336 337 337 338 337 338 338 338 337 335 335 334 333 331 330 331 329 327 327 329 330 329 327 326 325 325 325 326 326 326 325 323 325 324 321 318
311 311 314 320 326 330 332 334 336 336 336 335 335 336 335 335 334 333 330 330 329 329 329 330 328 327 326 327 327 324 323 322 324 322 324 323 321 321 323 325 324 320 315
310 310 313 318 323 328 331 333 334 334 333 332 334 334 334 332 331 329 328 328 328 326 326 327 325 323 323 324 324 324 323 324 324 325 325 325 325 326 326 327 326 324 319
310 309 313 316 321 327 329 330 331 332 331 332 333 333 331 329 328 328 327 326 325 323 321 321 321 322 322 322 321 321 320 319 319 319 318 319 319 320 322 325 326 325 323
308 308 313 315 317 322 325 326 329 330 330 330 329 328 327 326 325 324 325 322 321 320 320 320 320 318 317 316 315 314 314 315 315 315 315 315 317 318 320 322 323 322 321
306 307 312 314 314 315 317 318 320 325 327 327 325 324 323 323 322 321 320 319 318 317 316 314 313 313 312 312 312 312 312 313 313 314 314 315 315 316 316 318 319 319 318
309 308 309 310 312 313 313 313 314 316 320 322 322 320 319 319 318 317 315 313 312 311 310 310 309 309 309 309 308 308 309 309 311 311 312 312 313 314 314 313 314 314 313
308 308 307 307 310 311 312 312 312 313 313 314 314 314 313 313 312 311 310 309 308 308 307 307 306 306 305 305 305 305 305 306 308 309 309 310 310 310 311 310 310 310 309
309 309 308 306 308 309 310 311 311 311 312 312 311 311 310 309 308 307 307 306 306 305 304 304 303 303 303 303 303 303 303 303 304 305 306 306 307 307 307 307 307 307 306
310 309 309 307 307 308 309 310 310 310 311 310 309 308 307 306 306 305 304 304 304 303 302 302 302 302 302 301 300 300 300 300 301 301 302 302 303 303 303 303 303 304 303
310 309 308 308 309 309 310 309 309 309 308 308 307 306 305 305 304 304 303 302 302 302 302 301 301 301 300 299 299 298 298 298 298 298 298 299 300 300 300 300 300 300 300
306 307 307 308 309 310 309 309 308 307 307 305 305 304 304 304 303 303 302 302 301 301 300 300 300 300 299 298 297 297 297 296 296 297 298 297 297 298 297 298 298 298 298
304 305 307 308 309 309 309 308 306 306 305 305 304 304 304 303 302 302 301 301 300 300 299 299 299 299 298 298 296 296 296 295 295 295 296 296 296 295 295 294 295 294 294
304 305 307 308 309 309 308 307 306 305 305 305 305 304 303 302 302 301 301 300 300 299 299 297 297 297 297 297 296 296 295 294 294 294 294 294 294 293 292 292 291 291 291
303 304 306 307 308 309 308 307 305 305 306 305 304 304 303 302 302 301 300 300 299 298 296 295 296 296 296 296 296 295 295 294 292 292 292 292 292 292 292 291 288 288 288
301 302 303 303 305 306 307 306 305 306 305 304 304 303 302 302 301 301 300 299 298 297 295 294 294 295 296 295 295 295 294 294 292 290 290 290 290 290 290 291 289 287 287
300 301 302 302 302 304 305 305 305 305 304 304 303 303 302 301 301 300 299 298 297 295 295 294 294 294 295 295 294 294 293 294 291 289 289 288 288 290 289 289 287 287 288
299 300 300 299 299 301 303 303 304 304 303 303 302 302 301 300 300 299 298 298 296 295 294 293 293 294 294 294 294 294 292 292 292 289 288 286 287 287 289 288 287 287 287
299 299 299 299 298 299 300 301 301 302 302 301 301 300 300 299 299 298 298 297 297 296 295 294 294 293 293 294 293 293 292 291 290 290 288 287 286 288 288 287 286 286 286
297 298 298 298 298 298 298 298 298 298 299 299 299 299 299 299 298 298 297 297 296 296 295 294 293 293 293 293 292 292 291 291 290 289 288 287 285 286 287 287 286 285 286

GFSMW_925_thetae_108.txt.gz
Theta_e
320 323 335 337 337 339 341 342 341 341 339 338 337 336 336 335 335 334 331 330 330 330 330 330 330 331 331 332 334 334 333 330 328 328 328 328 329 328 328 328 328 328 328
320 319 331 336 336 337 339 340 341 341 340 338 338 337 336 336 336 337 336 331 329 329 329 329 329 330 330 332 333 332 329 328 328 328 327 326 326 327 327 328 328 327 327
319 318 325 333 336 337 337 338 338 339 339 338 337 337 336 335 336 336 335 330 327 327 328 328 329 330 331 332 330 329 328 328 329 328 328 326 327 325 325 324 327 327 327
317 315 317 327 334 336 336 334 333 337 338 338 337 332 332 336 335 334 333 331 330 330 332 329 329 330 330 329 328 327 327 328 329 329 329 329 329 327 327 323 322 324 325
317 316 315 319 329 333 335 336 336 337 337 336 332 326 331 336 335 335 335 333 333 334 333 332 332 332 332 332 332 331 331 330 330 328 327 328 328 327 326 326 323 322 322
317 316 312 313 323 331 332 329 333 334 337 336 336 334 334 334 334 333 334 335 336 336 334 334 334 328 330 333 333 331 331 329 329 329 327 326 326 325 326 325 325 323 322
318 315 310 317 324 329 331 333 334 334 335 335 334 335 334 334 334 334 334 335 334 334 333 333 333 331 329 329 330 331 329 327 327 327 326 325 325 325 325 324 322 322 321
318 312 310 314 321 326 331 333 334 334 333 333 333 334 333 334 335 335 333 333 334 332 330 329 328 327 327 327 328 327 324 323 322 322 323 323 325 324 323 324 324 321 318
311 311 310 314 320 325 330 332 333 333 333 333 334 334 335 335 334 333 330 330 329 329 329 329 328 326 325 324 325 324 324 323 324 324 324 323 323 323 323 323 323 322 323
310 310 310 313 318 324 328 329 331 332 331 332 332 333 333 332 331 329 328 328 327 325 324 324 323 322 322 322 322 322 320 318 316 316 315 315 316 316 317 319 320 322 322
308 308 309 314 317 321 325 327 330 330 330 330 331 331 330 329 328 327 326 325 324 321 320 321 320 320 320 319 317 315 313 313 314 314 313 313 314 315 315 316 317 320 319
308 308 307 312 314 317 322 325 327 328 327 328 328 327 327 325 325 324 323 322 320 319 318 318 317 315 313 312 311 311 310 310 311 311 312 311 311 314 313 314 315 316 317
309 308 308 310 311 313 316 318 319 323 325 324 324 323 322 322 320 319 319 318 317 316 313 311 310 309 309 308 307 306 306 306 307 308 309 309 310 311 311 312 312 312 312
308 308 307 307 309 311 312 312 313 317 320 320 320 319 318 318 317 316 315 314 311 309 308 308 307 306 305 304 304 304 304 304 305 306 306 307 307 307 308 308 309 309 309
308 307 307 305 307 308 309 310 311 311 312 313 314 313 312 312 311 310 308 307 306 306 305 305 304 303 303 303 303 303 303 303 302 303 303 303 303 303 304 305 305 306 306
308 307 307 306 306 308 308 309 309 310 310 310 310 309 309 308 306 305 305 305 305 304 304 303 303 303 302 301 301 301 301 300 299 299 299 299 300 300 301 302 302 302 302
306 307 306 307 308 308 309 308 308 308 309 309 307 306 306 305 305 304 304 304 303 303 302 302 302 301 300 300 299 299 298 298 297 297 298 298 299 299 299 299 300 300 300
303 303 304 306 308 309 309 308 308 308 307 307 306 305 305 304 303 303 302 302 302 301 301 301 301 300 299 298 297 297 297 296 295 296 296 297 297 297 297 297 297 297 297
302 304 305 307 308 308 308 308 306 306 306 305 304 304 303 303 302 302 301 301 301 300 300 300 300 299 298 297 297 296 296 296 295 295 296 296 295 295 295 295 294 294 294
302 303 305 307 307 308 308 307 306 305 304 304 304 304 303 302 302 301 301 301 300 300 299 299 298 298 298 297 297 296 296 295 295 294 294 294 293 293 293 293 291 291 291
301 303 304 305 306 307 307 306 305 305 305 304 304 303 303 303 302 301 301 300 300 299 299 298 298 297 297 297 296 296 295 295 295 293 292 292 292 292 292 292 292 289 288
300 301 301 302 303 305 306 305 304 305 305 304 303 302 302 301 301 301 300 300 299 298 298 297 296 296 296 296 296 296 295 295 295 294 291 291 291 291 291 291 291 289 288
299 300 300 300 302 303 305 304 304 304 304 304 303 302 302 301 300 300 300 299 298 298 297 296 295 296 296 295 295 295 295 294 295 294 292 290 288 288 290 290 289 288 288
298 299 299 298 298 301 302 302 302 302 303 302 302 301 301 300 300 300 299 299 298 297 297 295 295 295 295 295 295 294 294 294 293 293 291 290 287 287 287 290 288 287 286
298 298 298 297 297 298 298 299 300 301 301 301 300 300 300 300 299 299 299 299 299 298 297 296 296 295 294 294 294 294 294 293 292 290 290 289 288 286 287 288 288 287 286
296 297 297 297 296 297 297 297 297 298 298 299 299 299 299 299 298 298 298 298 298 297 296 296 295 295 294 293 293 293 293 292 291 290 290 289 288 287 286 286 287 286 286

GFSMW_925_thetae_111.txt.gz
Theta_e
319 325 336 337 336 339 340 341 341 339 338 337 336 334 332 329 331 331 331 329 329 331 332 332 333 333 333 333 332 332 332 332 330 327 328 328 328 328 327 327 327 327 327
319 324 335 336 337 338 340 341 340 340 339 337 337 335 333 331 332 333 330 327 328 330 330 329 330 331 332 332 332 333 332 329 328 328 327 330 327 327 327 327 327 327 326
320 321 333 336 336 336 338 341 341 340 339 338 336 336 334 334 333 334 333 332 330 329 330 329 329 331 331 330 330 332 330 328 328 328 329 329 329 326 326 325 326 326 326
318 317 326 334 334 330 334 337 338 336 338 336 336 336 335 335 334 334 335 335 334 329 329 328 328 328 328 330 330 330 328 328 328 328 329 329 329 328 329 323 322 323 324
318 317 320 326 332 334 334 336 335 333 333 336 336 335 334 334 335 334 335 333 332 329 327 327 328 328 330 330 330 329 328 329 329 329 328 327 327 327 327 327 323 324 324
318 316 313 315 325 332 335 334 328 329 329 331 335 334 329 330 333 334 334 332 331 330 331 331 329 331 331 326 325 331 330 329 329 329 328 328 326 325 325 325 325 324 323
318 314 315 318 325 330 333 333 333 333 331 328 327 329 330 330 331 333 332 328 330 332 332 333 332 332 329 328 331 331 331 330 328 328 327 326 326 325 325 324 324 322 321
316 313 312 316 323 328 331 330 332 331 330 329 333 333 331 329 329 330 329 332 332 331 332 332 330 330 328 328 328 328 327 326 324 323 322 323 323 324 323 324 324 323 322
312 312 311 314 319 326 330 331 331 331 331 332 330 328 327 329 329 332 332 331 331 331 331 329 328 327 326 325 326 325 324 323 323 324 322 321 321 321 321 321 321 322 322
312 312 310 313 318 322 328 329 330 331 331 331 331 330 331 330 331 330 329 330 329 329 329 327 326 325 323 322 322 322 321 320 317 315 314 314 314 314 314 315 316 317 317
309 311 308 312 316 321 325 327 329 329 329 329 330 330 330 330 328 328 328 327 326 325 324 323 321 320 320 319 318 316 314 313 313 313 313 312 311 312 313 314 315 315 316
310 310 309 310 313 317 321 324 325 327 327 328 328 328 328 327 327 326 325 323 322 320 319 319 318 317 315 313 311 311 310 310 310 310 310 309 309 310 312 312 312 313 314
309 309 310 310 311 313 317 319 322 323 324 326 326 323 322 323 322 321 319 318 317 317 317 316 314 311 310 309 308 307 306 306 306 307 307 308 308 308 307 308 308 310 311
309 308 308 308 309 310 312 314 317 320 321 322 321 321 320 319 318 317 316 316 316 315 312 309 308 307 306 305 305 305 304 304 304 305 305 305 305 305 305 305 306 306 308
308 308 308 307 307 308 309 309 312 316 318 318 317 317 316 316 316 314 313 311 309 308 307 306 305 304 304 304 304 304 303 303 302 302 302 302 302 302 302 302 303 303 305
307 306 306 306 306 307 308 309 310 311 313 315 315 313 312 310 310 309 308 306 306 305 305 304 303 302 302 302 303 303 302 301 300 300 300 299 300 300 300 300 301 301 301
304 304 305 305 307 307 308 308 308 308 309 309 307 307 307 307 306 305 305 304 303 302 302 302 301 301 301 301 301 301 300 300 298 298 298 298 298 298 298 298 299 299 299
302 303 303 304 306 307 307 307 307 307 307 306 306 305 305 305 303 303 303 302 302 301 301 301 302 301 300 300 299 300 298 297 296 296 296 296 296 297 297 297 296 297 297
301 302 303 304 306 307 307 307 306 306 305 304 304 304 304 303 303 302 302 301 301 301 301 301 301 300 300 298 297 297 297 296 295 295 295 296 296 296 295 295 294 294 294
300 301 303 305 306 306 306 306 305 304 304 304 304 303 303 303 302 301 301 301 300 300 300 300 300 300 299 298 297 297 296 296 296 295 294 294 294 294 294 294 293 291 291
300 301 302 302 304 306 306 305 304 304 304 304 303 302 302 302 302 301 301 301 300 300 299 299 299 299 298 297 297 297 297 296 296 295 295 293 293 293 293 293 293 291 289
299 300 300 301 303 304 305 305 305 304 304 304 304 303 302 302 301 301 300 300 299 298 298 298 297 297 296 296 296 296 296 295 295 295 294 293 291 291 291 292 292 291 288
298 299 299 300 301 303 304 303 302 303 303 303 302 302 301 301 300 300 300 299 298 298 297 296 296 297 296 296 296 296 295 295 295 295 294 292 291 289 289 291 290 290 288
298 298 298 297 297 299 300 300 301 302 302 302 301 301 301 300 300 300 299 299 298 297 297 297 297 296 296 296 296 295 295 295 294 294 294 292 290 288 287 288 289 289 288
297 297 297 296 296 296 297 297 299 300 301 301 300 300 299 299 299 298 298 299 299 299 298 297 297 296 295 296 295 295 295 294 294 292 291 291 290 288 287 287 287 288 287
295 296 296 296 295 295 295 296 296 297 297 298 298 298 299 298 298 298 298 298 298 298 297 297 297 296 295 295 294 294 294 293 293 291 290 290 290 288 287 286 286 286 287

GFSMW_925_thetae_114.txt.gz
Theta_e
316 317 320 324 329 333 337 338 340 339 338 337 336 335 336 335 336 336 335 334 332 332 332 333 333 334 334 334 334 334 334 333 331 330 330 330 330 329 329 328 327 328 328
316 317 320 330 325 336 337 339 339 339 338 337 336 336 336 335 334 334 333 333 334 335 335 335 334 334 334 334 333 333 332 333 331 331 331 332 331 328 326 327 326 326 327
317 318 320 333 330 333 336 338 339 339 338 337 336 336 335 333 334 334 333 331 331 330 332 333 333 333 333 333 333 333 334 333 330 328 331 333 333 331 328 325 325 326 326
318 318 321 332 333 333 337 338 339 338 338 338 337 336 335 334 332 334 334 330 328 328 330 330 329 330 331 331 330 331 332 330 329 328 328 331 331 332 331 326 323 324 324
317 318 321 332 334 333 332 336 337 338 338 337 336 336 336 336 335 335 334 332 331 331 329 328 330 329 329 330 330 331 330 329 330 331 330 329 330 328 328 328 325 325 325
318 319 325 333 332 331 330 329 334 335 335 335 336 334 334 335 334 334 334 333 332 329 328 328 327 327 329 330 328 326 329 329 329 331 330 330 328 328 327 326 325 325 324
319 318 321 330 333 331 329 330 328 330 330 329 331 332 330 329 331 333 333 333 332 330 330 329 329 328 329 329 327 329 328 329 329 329 329 329 328 327 326 326 326 325 323
317 315 322 326 331 333 333 331 331 329 329 327 329 329 329 330 330 329 329 330 329 328 329 330 331 330 330 328 329 329 329 327 327 328 328 327 326 325 325 323 324 325 323
314 314 319 324 330 331 331 331 330 330 329 329 328 328 326 329 328 328 328 329 328 328 330 329 331 330 330 329 329 328 326 327 325 324 323 322 321 321 321 321 321 322 322
313 314 318 320 324 330 330 329 331 331 331 328 328 326 324 328 326 324 328 327 328 328 330 330 330 328 327 326 325 324 323 322 321 320 318 316 314 315 316 317 317 316 318
314 314 313 318 322 326 328 328 328 329 330 329 328 326 326 324 323 324 327 330 329 327 328 328 326 325 324 323 322 322 320 317 316 315 314 314 313 314 314 315 315 315 316
313 314 313 315 320 324 325 324 324 325 326 327 328 327 326 326 326 326 326 327 326 328 327 325 323 321 320 320 318 317 313 313 313 312 312 312 309 311 312 312 313 313 313
312 314 313 315 315 319 320 320 320 322 322 323 324 324 324 324 323 323 324 324 324 323 320 319 319 318 317 312 309 309 308 309 309 309 309 308 308 309 308 308 308 309 309
312 312 312 311 312 314 315 317 315 317 318 319 319 319 320 321 320 320 319 318 318 318 317 316 314 311 309 307 306 306 305 305 305 306 305 305 305 305 306 307 307 305 306
311 311 311 312 312 312 311 313 314 315 315 316 316 315 315 317 317 316 314 313 313 313 312 309 307 306 305 305 305 305 304 304 303 303 303 303 302 302 302 303 304 303 303
309 309 310 312 311 311 310 310 311 312 313 313 311 311 312 311 310 310 309 308 307 306 305 304 304 304 304 304 304 304 303 302 301 301 300 300 300 299 300 300 300 300 301
307 307 309 309 310 310 310 309 309 308 309 308 307 306 307 307 307 308 307 306 305 304 304 303 303 302 302 302 303 303 302 301 300 299 299 298 298 298 298 298 299 298 298
307 308 307 308 308 309 308 308 307 307 306 306 305 304 304 303 303 302 302 302 302 302 302 302 301 301 301 301 301 301 300 299 298 298 297 297 297 297 297 297 297 296 296
305 306 306 307 307 308 307 307 307 306 306 305 304 303 303 302 301 301 301 301 301 301 301 301 301 301 301 300 299 299 298 298 297 297 296 296 296 296 296 296 296 295 293
304 304 305 307 308 307 306 307 307 307 306 305 304 303 302 302 301 301 301 300 300 301 300 300 300 299 298 298 297 298 298 297 297 297 296 296 295 295 295 294 294 294 293
303 303 304 304 305 305 306 306 306 306 304 303 302 302 302 302 301 300 300 300 300 299 299 297 297 297 297 297 297 297 298 298 297 296 295 295 295 294 293 293 293 292 291
302 302 303 302 303 304 305 305 304 303 303 303 303 302 302 301 300 300 300 299 298 298 298 298 297 297 297 298 297 297 296 296 296 296 295 294 293 292 292 292 292 292 291
300 300 302 301 299 299 301 303 301 301 302 302 301 301 300 300 299 299 298 298 298 299 298 296 297 297 297 296 297 296 296 296 295 295 295 295 293 291 290 290 291 291 291
300 300 300 300 297 297 298 298 300 301 301 301 300 300 300 299 298 298 298 299 298 298 298 297 297 298 296 296 295 295 295 295 295 294 294 294 292 291 289 288 290 290 289
299 299 299 298 297 296 295 296 296 299 300 300 301 300 300 299 298 298 297 298 298 298 298 297 297 297 296 297 296 295 295 294 294 293 293 292 291 290 289 288 288 289 288
297 298 297 297 295 294 294 294 295 295 296 297 297 297 298 298 298 298 298 298 298 298 298 298 297 297 297 296 296 295 294 294 294 292 292 290 290 290 289 289 288 288 287

GFSMW_925_thetae_117.txt.gz
Theta_e
317 317 319 325 328 327 327 334 338 337 337 336 336 336 333 329 327 327 328 329 328 328 327 327 329 330 332 332 333 333 334 334 333 332 331 331 330 331 330 330 329 329 328
317 317 319 324 325 328 327 329 336 337 337 336 337 337 338 336 333 331 328 327 327 328 329 331 332 333 334 333 334 334 335 335 334 332 331 334 332 330 329 328 328 328 328
318 318 319 323 326 324 327 327 332 337 337 337 337 337 336 336 336 336 335 333 333 333 333 333 333 334 334 334 335 334 334 334 333 331 332 333 335 332 330 327 325 326 326
318 318 319 322 327 325 325 330 330 336 338 337 336 335 336 335 335 335 334 334 334 335 335 334 334 334 334 334 334 334 334 335 332 329 329 331 332 332 332 328 325 324 324
318 318 320 322 330 328 325 331 332 335 338 337 337 337 336 335 333 334 334 333 332 332 333 333 331 331 332 333 333 332 333 332 330 331 332 330 330 330 329 331 327 325 325
320 319 320 322 332 328 330 331 332 333 337 336 335 336 336 336 334 335 334 333 331 330 330 330 331 331 330 330 329 328 328 329 330 331 331 331 330 329 327 327 327 327 325
319 320 321 329 332 331 330 328 329 334 332 334 335 335 334 336 337 336 335 332 331 330 330 329 328 328 328 329 327 327 327 327 330 330 330 330 329 328 326 325 325 326 325
315 316 323 331 333 330 329 327 327 326 330 327 329 330 330 331 331 332 333 332 332 331 329 328 329 328 329 328 325 325 328 328 329 329 328 329 328 326 325 325 324 325 324
314 316 321 330 331 329 328 328 328 327 327 327 326 328 329 329 329 329 329 329 329 329 329 329 330 330 328 329 328 329 329 328 328 328 327 325 324 324 322 322 322 323 322
315 314 323 331 331 330 330 330 330 329 327 328 327 327 327 327 326 327 328 327 327 327 328 328 328 329 327 324 328 327 327 326 326 324 323 322 320 318 318 317 317 317 317
314 314 321 330 330 330 331 331 330 330 329 328 327 327 327 326 326 326 327 326 326 327 326 326 326 327 327 328 327 326 324 324 322 321 318 316 315 315 315 315 315 314 314
313 315 319 327 327 327 327 328 329 330 329 329 328 327 325 325 326 326 325 324 323 323 322 325 327 328 327 325 323 321 321 318 317 316 315 314 313 312 313 313 314 312 311
313 313 314 318 320 322 322 323 325 327 328 329 327 326 325 325 325 325 325 325 326 325 325 326 325 324 321 320 318 317 315 314 313 313 312 312 310 311 311 309 308 308 308
313 313 314 313 314 316 319 318 320 323 324 325 326 324 324 324 323 323 324 324 323 321 320 322 320 318 316 314 313 311 310 310 309 309 309 308 307 308 308 308 308 306 306
311 312 313 313 313 314 316 316 316 318 320 321 320 320 320 319 318 318 317 316 315 315 315 315 313 312 311 310 308 307 307 306 306 305 305 304 304 303 304 303 305 304 303
310 310 311 313 313 312 312 313 314 315 317 317 315 316 316 315 314 315 314 313 312 313 312 311 310 307 307 306 306 305 305 304 304 303 302 302 301 301 301 300 300 300 301
309 310 310 311 311 311 311 311 311 312 312 311 310 310 310 310 310 309 309 308 309 309 308 307 306 305 305 305 305 304 303 303 303 302 301 301 300 299 299 299 299 299 298
309 309 309 310 310 311 310 310 309 309 309 309 308 308 308 307 306 306 305 305 304 304 303 303 303 303 303 303 303 303 303 302 301 300 300 299 299 298 298 298 298 297 296
308 308 308 309 310 309 309 309 309 308 307 307 306 306 305 304 304 304 304 303 303 302 302 302 302 302 302 302 302 301 300 300 300 299 298 298 297 297 297 296 296 296 296
306 307 308 309 309 308 309 309 309 309 307 306 305 305 304 304 304 303 302 301 301 301 301 300 301 301 301 300 301 300 300 299 299 298 297 297 296 296 296 295 295 295 294
305 306 306 306 307 307 309 308 307 306 305 305 304 303 303 303 303 302 302 301 301 300 300 300 300 300 299 299 299 299 299 299 298 297 296 295 296 294 294 294 294 294 293
303 305 304 303 302 304 307 305 304 304 304 304 303 303 302 302 301 301 300 300 299 299 299 299 299 299 299 299 298 298 298 298 297 297 296 295 295 294 292 293 293 293 292
303 303 303 301 299 299 301 300 300 301 303 304 303 303 302 301 301 300 300 300 300 301 300 299 299 298 298 298 298 297 297 297 296 296 296 295 295 294 292 291 292 292 292
302 302 302 301 299 297 297 298 300 302 302 301 301 300 301 301 300 300 300 301 300 301 301 299 298 300 298 297 297 297 296 296 296 296 295 295 295 293 292 290 289 289 291
301 301 301 300 298 298 297 296 297 298 299 300 301 301 300 299 299 298 299 299 300 300 300 300 299 300 299 298 298 297 297 296 296 295 294 294 293 292 291 290 290 289 290
300 300 300 299 297 296 295 295 295 296 297 298 297 297 297 298 299 299 299 299 300 299 298 298 298 298 298 297 297 296 296 295 294 293 292 292 291 290 291 290 289 289 289